[[{"header":{"parameterUnit":"m.s-1","parameterCategory":1,"la1":31.0,"la2":29.5877,"lo1":-88.7671,"lo2":-86.6584,"dy":0.0162,"dx":0.0185,"nx":115,"ny":88,"refTime":"2024-07-09T06:00:00:Z","depth":0,"parameterNumber":2,"parameterNumberName":"U-component_of_WINDS"},"data":[0.0,0.0,0.0,0.0,0.0,0.0,0.0,0.0,0.0,0.0,0.0,0.0,0.0,0.0,0.0,0.0,0.0,0.0,0.0,0.0,0.0,0.0,0.0,0.0,0.0,0.0,0.0,0.0,0.0,0.0,0.0,0.0,0.0,0.0,0.0,0.0,0.0,0.0,0.0,0.0,0.0,0.0,0.0,0.0,0.0,0.0,0.0,0.0,0.0,0.0,0.0,0.0,0.0,0.0,0.0,0.0,0.0,0.0,0.0,0.0,0.0,0.0,0.0,0.0,0.0,0.0,0.0,0.0,0.0,0.0,0.0,0.0,0.0,0.0,0.0,0.0,0.0,0.0,0.0,0.0,0.0,0.0,0.0,0.0,0.0,0.0,0.0,0.0,0.0,0.0,0.0,0.0,0.0,0.0,0.0,0.0,0.0,0.0,0.0,0.0,0.0,0.0,0.0,0.0,0.0,0.0,0.0,0.0,0.0,0.0,0.0,0.0,0.0,0.0,0.0,0.0,0.0,0.0,0.0,0.0,0.0,0.0,0.0,0.0,0.0,0.0,0.0,0.0,0.0,0.0,0.0,0.0,0.0,0.0,0.0,0.0,0.0,0.0,0.0,0.0,0.0,0.0,0.0,0.0,0.0,0.0,0.0,0.0,0.0,0.0,0.0,0.0,0.0,0.0,0.0,0.0,0.0,0.0,0.0,0.0,0.0,0.0,0.0,0.0,0.0,0.0,0.0,0.0,0.0,0.0,0.0,0.0,0.0,0.0,0.0,0.0,0.0,0.0,0.0,0.0,0.0,0.0,0.0,0.0,0.0,0.0,0.0,0.0,0.0,0.0,0.0,0.0,0.0,0.0,0.0,0.0,0.0,0.0,0.0,0.0,0.0,0.0,0.0,0.0,0.0,0.0,0.0,0.0,0.0,0.0,0.0,0.0,0.0,0.0,0.0,0.0,0.0,0.0,0.0,0.0,0.0,0.0,0.0,0.0,0.0,0.0,0.0,0.0,0.0,0.0,0.0,0.0,0.0,0.0,0.0,0.0,0.0,0.0,0.0,0.0,0.0,0.0,0.0,0.0,0.0,0.0,0.0,0.0,0.0,0.0,0.0,0.0,0.0,0.0,0.0,0.0,0.0,0.0,0.0,0.0,0.0,0.0,0.0,0.0,0.0,0.0,0.0,0.0,0.0,0.0,0.0,0.0,0.0,0.0,0.0,0.0,0.0,0.0,0.0,0.0,0.0,0.0,0.0,0.0,0.0,0.0,0.0,0.0,0.0,0.0,0.0,0.0,0.0,0.0,0.0,0.0,0.0,0.0,0.0,0.0,0.0,0.0,0.0,0.0,0.0,0.0,0.0,0.0,0.0,0.0,0.0,0.0,0.0,0.0,0.0,0.0,0.0,0.0,0.0,0.0,0.0,0.0,0.0,0.0,0.0,0.0,0.0,0.0,0.0,0.0,0.0,0.0,0.0,0.0,0.0,0.0,0.0,0.0,0.0,0.0,0.0,0.0,0.0,0.0,0.0,0.0,0.0,0.0,0.0,0.0,0.0,0.0,0.0,0.0,0.0,0.0,0.0,0.0,0.0,0.0,0.0,0.0,0.0,0.0,0.0,0.0,0.0,0.0,0.0,0.0,0.0,0.0,0.0,0.0,0.0,0.0,0.0,0.0,0.0,0.0,0.0,0.0,0.0,0.0,0.0,0.0,0.0,0.0,0.0,0.0,0.0,0.0,0.0,0.0,0.0,0.0,0.0,0.0,0.0,0.0,0.0,0.0,0.0,0.0,0.0,0.0,0.0,0.0,0.0,0.0,0.0,0.0,0.0,0.0,0.0,0.0,0.0,0.0,0.0,0.0,0.0,0.0,0.0,0.0,0.0,0.0,0.0,0.0,0.0,0.0,0.0,0.0,0.0,0.0,0.0,0.0,0.0,0.0,0.0,0.0,0.0,0.0,0.0,0.0,0.0,0.0,0.0,0.0,0.0,0.0,0.0,0.0,0.0,0.0,0.0,0.0,0.0,0.0,0.0,0.0,0.0,0.0,0.0,0.0,0.0,0.0,0.0,0.0,0.0,0.0,0.0,0.0,0.0,0.0,0.0,0.0,0.0,0.0,0.0,0.0,0.0,0.0,0.0,0.0,0.0,0.0,0.0,0.0,0.0,0.0,0.0,0.0,0.0,0.0,0.0,0.0,0.0,0.0,0.0,0.0,0.0,0.0,0.0,0.0,0.0,0.0,0.0,0.0,0.0,0.0,0.0,0.0,0.0,0.0,0.0,0.0,0.0,0.0,0.0,0.0,0.0,0.0,0.0,0.0,0.0,0.0,0.0,0.0,0.0,0.0,0.0,0.0,0.0,0.0,0.0,0.0,0.0,0.0,0.0,0.0,0.0,0.0,0.0,0.0,0.0,0.0,0.0,0.0,0.0,0.0,0.0,0.0,0.0,0.0,0.0,0.0,0.0,0.0,0.0,0.0,0.0,0.0,0.0,0.0,0.0,0.0,0.0,0.0,0.0,0.0,0.0,0.0,0.0,0.0,0.0,0.0,0.0,0.0,0.0,0.0,0.0,0.0,0.0,0.0,0.0,0.0,0.0,0.0,0.0,0.0,0.0,0.0,0.0,0.0,0.0,0.0,0.0,0.0,0.0,0.0,0.0,0.0,0.0,0.0,0.0,0.0,0.0,0.0,0.0,0.0,0.0,0.0,0.0,0.0,0.0,0.0,0.0,0.0,0.0,0.0,0.0,0.0,0.0,0.0,0.0,0.0,0.0,0.0,0.0,0.0,0.0,0.0,0.0,0.0,0.0,0.0,0.0,0.0,0.0,0.0,0.0,0.0,0.0,0.0,0.0,0.0,0.0,0.0,0.0,0.0,0.0,0.0,0.0,0.0,0.0,0.0,0.0,0.0,0.0,0.0,0.0,0.0,0.0,0.0,0.0,0.0,0.0,0.0,0.0,0.0,0.0,0.0,0.0,0.0,0.0,0.0,0.0,0.0,0.0,0.0,0.0,0.0,0.0,0.0,0.0,0.0,0.0,0.0,0.0,0.0,0.0,0.0,0.0,0.0,0.0,0.0,0.0,0.0,0.0,0.0,0.0,0.0,0.0,0.0,0.0,0.0,0.0,0.0,0.0,0.0,0.0,0.0,0.0,0.0,0.0,0.0,0.0,0.0,0.0,0.0,0.0,0.0,0.0,0.0,0.0,0.0,0.0,0.0,0.0,0.0,0.0,0.0,0.0,0.0,0.0,0.0,0.0,0.0,0.0,0.0,0.0,0.0,0.0,0.0,0.0,0.0,0.0,0.0,0.0,0.0,0.0,0.0,0.0,0.0,0.0,0.0,0.0,0.0,0.0,0.0,0.0,0.0,0.0,0.0,0.0,0.0,0.0,0.0,0.0,0.0,0.0,0.0,0.0,0.0,0.0,0.0,0.0,0.0,0.0,0.0,0.0,0.0,0.0,0.0,0.0,0.0,0.0,0.0,0.0,0.0,0.0,0.0,0.0,0.0,0.0,0.0,0.0,0.0,0.0,0.0,0.0,0.0,0.0,0.0,0.0,0.0,0.0,0.0,0.0,0.0,0.0,0.0,0.0,0.0,0.0,0.0,0.0,0.0,0.0,0.0,0.0,0.0,0.0,0.0,0.0,0.0,0.0,0.0,0.0,0.0,0.0,0.0,0.0,0.0,0.0,0.0,0.0,0.0,0.0,0.0,0.0,0.0,0.0,0.0,0.0,0.0,0.0,0.0,0.0,0.0,0.0,0.0,0.0,0.0,0.0,0.0,0.0,0.0,0.0,0.0,0.0,0.0,0.0,0.0,0.0,0.0,0.0,0.0,0.0,0.0,0.0,0.0,0.0,0.0,0.0,0.0,0.0,0.0,0.0,0.0,0.0,0.0,0.0,0.0,0.0,0.0,0.0,0.0,0.0,0.0,0.0,0.0,0.0,0.0,0.0,0.0,0.0,0.0,0.0,0.0,0.0,0.0,0.0,0.0,0.0,0.0,0.0,0.0,0.0,0.0,0.0,0.0,0.0,0.0,0.0,0.0,0.0,0.0,0.0,0.0,0.0,0.0,0.0,0.0,0.0,0.0,0.0,0.0,0.0,0.0,0.0,0.0,0.0,0.0,0.0,0.0,0.0,0.0,0.0,0.0,0.0,0.0,0.0,0.0,0.0,0.0,0.0,0.0,0.0,0.0,0.0,0.0,0.0,0.0,0.0,0.0,0.0,0.0,0.0,0.0,0.0,0.0,0.0,0.0,0.0,0.0,1.7593,0.0,0.0,0.0,0.0,0.0,0.0,0.0,0.0,0.0,0.0,0.0,0.0,0.0,0.0,0.0,0.0,0.0,0.0,0.0,0.0,0.0,0.0,0.0,0.0,0.0,0.0,0.0,0.0,0.0,0.0,0.0,0.0,0.0,0.0,0.0,0.0,0.0,0.0,0.0,0.0,0.0,0.0,0.0,0.0,0.0,0.0,0.0,0.0,0.0,0.0,0.0,0.0,0.0,0.0,0.0,0.0,0.0,0.0,0.0,0.0,0.0,0.0,0.0,0.0,0.0,0.0,0.0,0.0,0.0,0.0,0.0,0.0,0.0,0.0,0.0,0.0,0.0,0.0,0.0,0.0,0.0,0.0,0.0,0.0,0.0,0.0,0.0,0.0,0.0,0.0,0.0,0.0,0.0,0.0,0.0,0.0,0.0,0.0,0.0,0.0,0.0,0.0,0.0,0.0,0.0,0.0,0.0,0.0,0.0,0.0,1.9331,1.966,1.8702,1.7981,1.7712,0.0,0.0,0.0,0.0,0.0,0.0,0.0,0.0,0.0,0.0,0.0,0.0,0.0,0.0,0.0,0.0,0.0,0.0,0.0,0.0,0.0,0.0,0.0,0.0,0.0,0.0,0.0,0.0,0.0,0.0,0.0,0.0,0.0,0.0,0.0,0.0,0.0,0.0,0.0,0.0,0.0,0.0,0.0,0.0,0.0,0.0,0.0,0.0,0.0,0.0,0.0,0.0,0.0,0.0,0.0,0.0,0.0,0.0,0.0,0.0,0.0,0.0,0.0,0.0,0.0,0.0,0.0,0.0,0.0,0.0,0.0,0.0,0.0,0.0,0.0,0.0,0.0,0.0,0.0,0.0,0.0,0.0,0.0,0.0,0.0,0.0,0.0,0.0,0.0,0.0,0.0,0.0,0.0,0.0,0.0,0.0,0.0,0.0,0.0,0.0,0.0,0.0,0.0,0.0,0.0,0.0,0.0,0.0,0.0,0.0,0.0,0.0,1.9001,1.8373,1.8443,0.0,0.0,0.0,0.0,0.0,0.0,0.0,0.0,0.0,0.0,0.0,0.0,0.0,0.0,0.0,0.0,0.0,0.0,0.0,0.0,0.0,0.0,0.0,0.0,0.0,0.0,0.0,0.0,0.0,0.0,0.0,0.0,0.0,0.0,0.0,0.0,0.0,0.0,0.0,0.0,0.0,0.0,0.0,0.0,0.0,0.0,0.0,0.0,0.0,0.0,0.0,0.0,0.0,0.0,0.0,0.0,0.0,0.0,0.0,0.0,0.0,0.0,0.0,0.0,0.0,0.0,0.0,0.0,0.0,0.0,0.0,0.0,0.0,0.0,0.0,0.0,0.0,0.0,0.0,0.0,0.0,0.0,0.0,0.0,0.0,0.0,0.0,0.0,0.0,0.0,0.0,0.0,0.0,0.0,0.0,0.0,0.0,0.0,0.0,0.0,0.0,0.0,0.0,0.0,0.0,0.0,0.0,0.0,0.0,0.0,1.96,2.1425,2.0797,0.0,2.0599,0.0,0.0,0.0,0.0,0.0,0.0,0.0,0.0,0.0,0.0,0.0,0.0,0.0,0.0,0.0,0.0,0.0,0.0,0.0,0.0,0.0,0.0,0.0,0.0,0.0,0.0,0.0,0.0,0.0,0.0,0.0,0.0,0.0,0.0,0.0,0.0,0.0,0.0,0.0,0.0,0.0,0.0,0.0,0.0,0.0,0.0,0.0,0.0,0.0,0.0,0.0,0.0,0.0,0.0,0.0,0.0,0.0,0.0,0.0,0.0,0.0,0.0,0.0,0.0,0.0,0.0,0.0,0.0,0.0,0.0,0.0,0.0,0.0,0.0,0.0,0.0,0.0,0.0,0.0,0.0,0.0,0.0,0.0,0.0,0.0,0.0,0.0,0.0,0.0,0.0,0.0,0.0,0.0,0.0,0.0,0.0,0.0,0.0,0.0,0.0,0.0,0.0,0.0,0.0,0.0,0.0,0.0,0.0,0.0,0.0,0.0,2.0468,1.9869,1.9445,0.0,0.0,0.0,0.0,0.0,0.0,0.0,0.0,0.0,0.0,0.0,0.0,0.0,0.0,0.0,0.0,0.0,0.0,0.0,0.0,0.0,0.0,0.0,0.0,0.0,0.0,0.0,0.0,0.0,0.0,0.0,0.0,0.0,0.0,0.0,0.0,0.0,0.0,0.0,0.0,0.0,0.0,0.0,0.0,0.0,0.0,0.0,0.0,0.0,0.0,0.0,0.0,0.0,0.0,0.0,0.0,0.0,0.0,0.0,0.0,0.0,0.0,0.0,0.0,0.0,0.0,0.0,0.0,0.0,0.0,0.0,0.0,0.0,0.0,0.0,0.0,0.0,0.0,0.0,0.0,0.0,0.0,0.0,0.0,0.0,0.0,0.0,0.0,0.0,0.0,0.0,0.0,0.0,0.0,0.0,0.0,0.0,0.0,0.0,0.0,0.0,0.0,0.0,0.0,0.0,0.0,0.0,0.0,0.0,0.0,1.8642,0.0,1.9899,1.951,1.8826,1.7981,0.0,0.0,0.0,0.0,0.0,0.0,0.0,0.0,0.0,0.0,0.0,0.0,0.0,0.0,0.0,0.0,0.0,0.0,0.0,0.0,0.0,0.0,0.0,0.0,0.0,0.0,0.0,0.0,0.0,0.0,0.0,0.0,0.0,0.0,0.0,0.0,0.0,0.0,0.0,0.0,0.0,0.0,0.0,0.0,0.0,0.0,0.0,0.0,0.0,0.0,0.0,0.0,0.0,0.0,0.0,0.0,0.0,0.0,0.0,0.0,0.0,0.0,0.0,0.0,0.0,0.0,0.0,0.0,0.0,0.0,0.0,0.0,0.0,0.0,0.0,0.0,0.0,0.0,0.0,0.0,0.0,0.0,0.0,0.0,0.0,0.0,0.0,0.0,0.0,0.0,0.0,0.0,0.0,0.0,0.0,0.0,0.0,0.0,0.0,0.0,0.0,0.0,0.0,0.0,0.0,0.0,0.0,0.0,0.0,1.9301,1.9331,2.0647,2.0647,1.9634,0.0,0.0,0.0,0.0,0.0,0.0,0.0,0.0,0.0,0.0,0.0,0.0,0.0,0.0,0.0,0.0,0.0,0.0,0.0,0.0,0.0,0.0,0.0,0.0,0.0,0.0,0.0,0.0,0.0,0.0,0.0,0.0,0.0,0.0,0.0,0.0,0.0,0.0,0.0,0.0,0.0,0.0,0.0,0.0,0.0,0.0,0.0,0.0,0.0,0.0,0.0,0.0,0.0,0.0,0.0,0.0,0.0,0.0,0.0,0.0,0.0,0.0,0.0,0.0,0.0,0.0,0.0,0.0,0.0,0.0,0.0,0.0,0.0,0.0,0.0,0.0,0.0,0.0,0.0,0.0,0.0,0.0,0.0,0.0,0.0,0.0,0.0,0.0,0.0,0.0,0.0,0.0,0.0,0.0,0.0,0.0,0.0,0.0,0.0,0.0,0.0,0.0,0.0,0.0,0.0,0.0,0.0,0.0,0.0,1.7475,1.7894,1.9331,2.1784,1.9929,1.8538,0.0,0.0,0.0,0.0,0.0,0.0,0.0,0.0,0.0,0.0,0.0,0.0,0.0,0.0,0.0,0.0,0.0,0.0,0.0,0.0,0.0,0.0,0.0,0.0,0.0,0.0,0.0,0.0,0.0,0.0,0.0,0.0,0.0,0.0,0.0,0.0,0.0,0.0,0.0,0.0,0.0,0.0,0.0,0.0,0.0,0.0,0.0,0.0,0.0,0.0,0.0,0.0,0.0,0.0,0.0,0.0,0.0,0.0,0.0,0.0,0.0,0.0,0.0,0.0,0.0,0.0,0.0,0.0,0.0,0.0,0.0,0.0,0.0,0.0,0.0,0.0,0.0,0.0,0.0,0.0,0.0,0.0,0.0,0.0,0.0,0.0,0.0,0.0,0.0,0.0,0.0,0.0,0.0,0.0,0.0,0.0,0.0,0.0,0.0,0.0,0.0,0.0,0.0,0.0,0.0,0.0,0.0,0.0,0.0,1.6838,0.0,1.9989,0.0,1.966,1.8056,0.0,0.0,0.0,0.0,0.0,0.0,0.0,0.0,0.0,0.0,0.0,0.0,0.0,0.0,0.0,0.0,0.0,0.0,0.0,0.0,0.0,0.0,0.0,0.0,0.0,0.0,0.0,0.0,0.0,0.0,0.0,0.0,0.0,0.0,0.0,0.0,0.0,0.0,0.0,0.0,0.0,0.0,0.0,0.0,0.0,0.0,0.0,0.0,0.0,0.0,0.0,0.0,0.0,0.0,0.0,0.0,0.0,0.0,0.0,0.0,0.0,0.0,0.0,0.0,0.0,0.0,0.0,0.0,0.0,0.0,0.0,0.0,0.0,0.0,0.0,0.0,0.0,0.0,0.0,0.0,0.0,0.0,0.0,0.0,0.0,0.0,0.0,0.0,0.0,0.0,0.0,0.0,0.0,0.0,0.0,0.0,0.0,0.0,0.0,0.0,0.0,0.0,0.0,0.0,0.0,0.0,0.0,0.0,1.6084,1.8985,2.0724,2.1335,2.0797,2.0049,1.8385,0.0,0.0,0.0,0.0,0.0,0.0,0.0,0.0,0.0,0.0,0.0,0.0,0.0,0.0,0.0,0.0,0.0,0.0,0.0,0.0,0.0,0.0,0.0,0.0,0.0,0.0,0.0,0.0,0.0,0.0,0.0,0.0,0.0,0.0,0.0,0.0,0.0,0.0,0.0,0.0,0.0,0.0,0.0,0.0,0.0,0.0,0.0,0.0,0.0,0.0,0.0,0.0,0.0,0.0,0.0,0.0,0.0,0.0,0.0,0.0,0.0,0.0,0.0,0.0,0.0,0.0,0.0,0.0,0.0,0.0,0.0,0.0,0.0,0.0,0.0,0.0,0.0,0.0,0.0,0.0,0.0,0.0,0.0,0.0,0.0,0.0,0.0,0.0,0.0,0.0,0.0,0.0,0.0,0.0,0.0,0.0,0.0,0.0,0.0,0.0,0.0,0.0,0.0,0.0,0.0,0.0,0.0,0.0,0.0,1.9508,2.0482,2.1784,2.3251,2.0557,1.9141,0.0,0.0,0.0,0.0,0.0,0.0,0.0,0.0,0.0,0.0,0.0,0.0,0.0,0.0,0.0,0.0,0.0,0.0,0.0,0.0,0.0,0.0,0.0,0.0,0.0,0.0,0.0,0.0,0.0,0.0,0.0,0.0,0.0,0.0,0.0,0.0,0.0,0.0,0.0,0.0,0.0,0.0,0.0,0.0,0.0,0.0,0.0,0.0,0.0,0.0,0.0,0.0,0.0,0.0,0.0,0.0,0.0,0.0,0.0,0.0,0.0,0.0,0.0,0.0,0.0,0.0,0.0,0.0,0.0,0.0,0.0,0.0,0.0,0.0,0.0,0.0,0.0,0.0,0.0,0.0,0.0,0.0,0.0,0.0,0.0,0.0,0.0,0.0,0.0,0.0,0.0,0.0,0.0,0.0,0.0,0.0,0.0,0.0,0.0,0.0,0.0,0.0,0.0,0.0,0.0,0.0,0.0,0.0,0.0,2.1894,2.2562,2.343,2.4552,2.1724,2.0244,2.0356,0.0,0.0,0.0,0.0,0.0,0.0,0.0,0.0,0.0,0.0,0.0,0.0,0.0,0.0,0.0,0.0,0.0,0.0,0.0,0.0,0.0,0.0,0.0,0.0,0.0,0.0,0.0,0.0,0.0,0.0,0.0,0.0,0.0,0.0,0.0,0.0,0.0,0.0,0.0,0.0,0.0,0.0,0.0,0.0,0.0,0.0,0.0,0.0,0.0,0.0,0.0,0.0,0.0,0.0,0.0,0.0,0.0,0.0,0.0,0.0,0.0,0.0,0.0,0.0,0.0,0.0,0.0,0.0,0.0,0.0,0.0,0.0,0.0,0.0,0.0,0.0,0.0,0.0,0.0,0.0,0.0,0.0,0.0,0.0,0.0,0.0,0.0,0.0,0.0,0.0,0.0,0.0,0.0,0.0,0.0,0.0,0.0,0.0,0.0,0.0,0.0,0.0,0.0,0.0,0.0,0.0,0.0,0.0,2.5657,2.6482,2.6273,2.5,2.361,2.1773,0.0,0.0,0.0,0.0,0.0,0.0,0.0,0.0,0.0,0.0,0.0,0.0,0.0,0.0,0.0,0.0,0.0,0.0,0.0,0.0,0.0,0.0,0.0,0.0,0.0,0.0,0.0,0.0,0.0,0.0,0.0,0.0,0.0,0.0,0.0,0.0,0.0,0.0,0.0,0.0,0.0,0.0,0.0,0.0,0.0,0.0,0.0,0.0,0.0,0.0,0.0,0.0,0.0,0.0,0.0,0.0,0.0,0.0,0.0,0.0,0.0,0.0,0.0,0.0,0.0,0.0,0.0,0.0,0.0,0.0,0.0,0.0,0.0,0.0,0.0,0.0,0.0,0.0,0.0,0.0,0.0,0.0,0.0,0.0,0.0,0.0,0.0,0.0,0.0,0.0,0.0,0.0,0.0,0.0,0.0,0.0,0.0,0.0,0.0,0.0,0.0,0.0,0.0,0.0,0.0,0.0,0.0,0.0,0.0,2.6971,2.9146,2.9834,2.8936,2.6273,2.4158,0.0,0.0,0.0,0.0,0.0,0.0,0.0,0.0,0.0,0.0,0.0,0.0,0.0,0.0,0.0,0.0,0.0,0.0,0.0,0.0,0.0,0.0,0.0,0.0,0.0,0.0,0.0,0.0,0.0,0.0,0.0,0.0,0.0,0.0,0.0,0.0,0.0,0.0,0.0,0.0,0.0,0.0,0.0,0.0,0.0,0.0,0.0,0.0,0.0,0.0,0.0,0.0,0.0,0.0,0.0,0.0,0.0,0.0,0.0,0.0,0.0,0.0,0.0,0.0,0.0,0.0,0.0,0.0,0.0,0.0,0.0,0.0,0.0,0.0,0.0,0.0,0.0,0.0,0.0,0.0,0.0,0.0,0.0,0.0,0.0,0.0,0.0,0.0,0.0,0.0,0.0,0.0,0.0,0.0,0.0,0.0,0.0,0.0,0.0,0.0,0.0,0.0,0.0,0.0,0.0,0.0,0.0,0.0,2.5306,2.8302,3.1217,3.2587,3.2168,2.9265,2.6376,0.0,0.0,0.0,0.0,0.0,0.0,0.0,0.0,0.0,0.0,0.0,0.0,0.0,0.0,0.0,0.0,0.0,0.0,0.0,0.0,0.0,0.0,0.0,0.0,0.0,0.0,0.0,0.0,0.0,0.0,0.0,0.0,0.0,0.0,0.0,0.0,0.0,0.0,0.0,0.0,0.0,0.0,0.0,0.0,0.0,0.0,0.0,0.0,0.0,0.0,0.0,0.0,0.0,0.0,0.0,0.0,0.0,0.0,0.0,0.0,0.0,0.0,0.0,0.0,0.0,0.0,0.0,0.0,0.0,0.0,0.0,0.0,0.0,0.0,0.0,0.0,0.0,0.0,0.0,0.0,0.0,0.0,0.0,0.0,0.0,0.0,0.0,0.0,0.0,0.0,0.0,0.0,0.0,0.0,0.0,0.0,0.0,0.0,0.0,0.0,0.0,0.0,0.0,0.0,0.0,0.0,0.0,0.0,2.6543,2.9581,3.2791,3.4472,3.4382,3.1958,2.8254,0.0,0.0,0.0,0.0,0.0,0.0,0.0,0.0,0.0,0.0,0.0,0.0,0.0,0.0,0.0,0.0,0.0,0.0,0.0,0.0,0.0,0.0,0.0,0.0,0.0,0.0,0.0,0.0,0.0,0.0,0.0,0.0,0.0,0.0,0.0,0.0,0.0,0.0,0.0,0.0,0.0,0.0,0.0,0.0,0.0,0.0,0.0,0.0,0.0,0.0,0.0,0.0,0.0,0.0,0.0,0.0,0.0,0.0,0.0,0.0,0.0,0.0,0.0,0.0,0.0,0.0,0.0,0.0,0.0,0.0,0.0,0.0,0.0,0.0,0.0,0.0,0.0,0.0,0.0,0.0,0.0,0.0,0.0,0.0,0.0,0.0,0.0,0.0,0.0,0.0,0.0,0.0,0.0,0.0,0.0,0.0,0.0,0.0,0.0,0.0,0.0,0.0,0.0,0.0,0.0,0.0,0.0,0.0,2.7365,3.0952,3.3304,3.4472,3.4472,3.2437,2.9337,0.0,0.0,0.0,0.0,0.0,0.0,0.0,0.0,0.0,0.0,0.0,0.0,0.0,0.0,0.0,0.0,0.0,0.0,0.0,0.0,0.0,0.0,0.0,0.0,0.0,0.0,0.0,0.0,0.0,0.0,0.0,0.0,0.0,0.0,0.0,0.0,0.0,0.0,0.0,0.0,0.0,0.0,0.0,0.0,0.0,0.0,0.0,0.0,0.7157,0.0,0.0,0.0,0.0,0.0,0.0,0.0,0.0,0.0,0.0,0.0,0.0,0.0,0.0,0.0,0.0,0.0,0.0,0.0,0.0,0.0,0.0,0.0,0.0,0.0,0.0,0.0,0.0,0.0,0.0,0.0,0.0,0.0,0.0,0.0,0.0,0.0,0.0,0.0,0.0,0.0,0.0,0.0,0.0,0.0,0.0,0.0,0.0,0.0,0.0,0.0,0.0,0.0,0.0,0.0,0.0,0.0,0.0,0.0,2.7792,3.1367,3.3309,3.4505,3.4891,3.3335,3.0366,0.0,0.0,0.0,0.0,0.0,0.0,0.0,0.0,0.0,0.0,0.0,0.0,0.0,0.0,0.0,0.0,0.0,0.0,0.0,0.0,0.0,0.0,0.0,0.0,0.0,0.0,0.0,0.0,0.0,0.0,0.0,0.0,0.0,0.0,0.0,0.0,0.0,0.0,0.0,0.0,0.0,0.0,0.0,0.0,0.0,0.0,0.0,0.0,0.0,0.0,0.0,0.0,0.0,0.0,0.0,0.0,0.0,0.0,0.0,0.0,0.0,0.0,0.0,0.0,0.0,0.0,0.0,0.0,0.0,0.0,0.0,0.0,0.0,0.0,0.0,0.0,0.0,0.0,0.0,0.0,0.0,0.0,0.0,0.0,0.0,0.0,0.0,0.0,0.0,0.0,0.0,0.0,0.0,0.0,0.0,0.0,0.0,0.0,0.0,0.0,0.0,0.0,0.0,0.0,0.0,0.0,0.0,2.4718,2.7763,3.118,3.3091,3.438,3.5198,3.414,3.1102,2.6159,0.0,0.0,0.0,0.0,0.0,0.0,0.0,0.0,0.0,0.0,0.0,0.0,0.0,0.0,0.0,0.0,0.0,0.0,0.0,0.0,0.0,0.0,0.0,0.0,0.0,0.0,0.0,0.0,0.0,0.0,0.0,0.0,0.0,0.0,0.0,0.0,0.0,0.0,1.2627,1.4544,0.0,0.0,0.0,0.0,0.0,0.0,0.0,0.0,0.6069,0.0,0.0,0.0,0.0,0.0,0.0,0.0,0.0,0.0,0.0,0.0,0.0,0.0,0.0,0.0,0.0,0.0,0.0,0.0,0.0,0.0,0.0,0.0,0.0,0.0,0.0,0.0,0.0,0.0,0.0,0.0,0.0,0.0,0.0,0.0,0.0,0.0,0.0,0.0,0.0,0.0,0.0,0.0,0.0,0.0,0.0,0.0,0.0,0.0,0.0,0.0,0.0,0.0,0.0,0.0,0.0,2.2847,2.4642,2.7298,3.0776,3.289,3.4109,3.4216,3.3765,3.1308,2.6891,0.0,0.0,0.0,0.0,0.0,0.0,0.0,0.0,0.0,0.0,0.0,0.0,0.0,0.0,0.0,0.0,0.0,0.0,0.0,0.0,0.0,0.0,0.0,0.0,0.0,0.0,0.0,0.0,0.0,0.0,0.0,0.0,0.0,0.0,0.0,0.0,0.0,0.0,0.0,1.6071,1.7174,0.0,0.0,0.0,0.0,0.0,0.0,0.0,0.0,0.7414,0.0,0.0,0.0,0.0,0.0,0.0,0.0,0.0,0.0,0.0,0.0,0.0,0.0,0.0,0.0,0.0,0.0,0.0,0.0,0.0,0.0,0.0,0.0,0.0,0.0,0.0,0.0,0.0,0.0,0.0,0.0,0.0,0.0,0.0,0.0,0.0,0.0,0.0,0.0,0.0,0.0,0.0,0.0,0.0,0.0,0.0,0.0,0.0,0.0,0.0,0.0,0.0,0.0,0.0,0.0,2.3197,2.5117,2.7643,3.1048,3.2081,3.3045,3.3916,3.2198,2.9841,0.0,0.0,0.0,0.0,0.0,0.0,0.0,0.0,0.0,0.0,0.0,0.0,0.0,0.0,0.0,0.0,0.0,0.0,0.0,0.0,0.0,0.0,0.0,0.0,0.0,0.0,0.0,0.0,0.0,0.0,0.0,0.0,0.0,0.0,0.0,0.0,0.0,0.0,0.0,0.0,1.6609,1.8115,1.9199,0.0,0.0,0.0,0.0,0.0,0.0,0.9606,0.8773,0.0,0.0,0.0,0.0,0.0,0.0,0.0,0.0,0.0,0.0,0.0,0.0,0.0,0.0,0.0,0.0,0.0,0.0,0.0,0.0,0.0,0.0,0.0,0.0,0.0,0.0,0.0,0.0,0.0,0.0,0.0,0.0,0.0,0.0,0.0,0.0,0.0,0.0,0.0,0.0,0.0,0.0,0.0,0.0,0.0,0.0,0.0,0.0,0.0,0.0,0.0,0.0,0.0,0.0,0.0,2.3244,2.5486,2.8134,3.121,3.146,3.2307,3.3916,3.1209,2.8767,0.0,0.0,0.0,0.0,0.0,0.0,0.0,0.0,0.0,0.0,0.0,0.0,0.0,0.0,0.0,0.0,0.0,0.0,0.0,0.0,0.0,0.0,0.0,0.0,0.0,0.0,0.0,0.0,0.0,0.0,0.0,0.0,0.0,0.0,0.0,0.0,0.0,0.0,0.0,0.0,0.0,1.8965,2.0589,1.9043,0.0,0.0,0.0,0.0,1.3227,1.1824,0.0,0.0,0.0,0.0,0.0,0.0,0.0,0.0,0.0,0.0,0.0,0.0,0.0,0.0,0.0,0.0,0.0,0.0,0.0,0.0,0.0,0.0,0.0,0.0,0.0,0.0,0.0,0.0,0.0,0.0,0.0,0.0,0.0,0.0,0.0,0.0,0.0,0.0,0.0,0.0,0.0,0.0,0.0,0.0,0.0,0.0,0.0,0.0,0.0,0.0,0.0,0.0,0.0,0.0,0.0,0.0,2.2419,2.5449,2.8146,3.0459,3.182,3.2975,3.3945,3.2507,2.9972,0.0,0.0,0.0,0.0,0.0,0.0,0.0,0.0,0.0,0.0,0.0,0.0,0.0,0.0,0.0,0.0,0.0,0.0,0.0,0.0,0.0,0.0,0.0,0.0,0.0,0.0,0.0,0.0,0.0,0.0,0.0,0.0,0.0,0.0,0.0,0.0,0.0,0.0,0.0,0.0,0.0,1.9957,2.1556,1.9924,1.8782,0.0,0.0,1.6875,1.7641,1.5915,0.0,0.0,0.0,0.0,0.0,0.0,0.0,0.0,0.0,0.0,0.0,0.0,0.0,0.0,0.0,0.0,0.0,0.0,0.0,0.0,0.0,0.0,0.0,0.0,0.0,0.0,0.0,0.0,0.0,0.0,0.0,0.0,0.0,0.0,0.0,0.0,0.0,0.0,0.0,0.0,0.0,0.0,0.0,0.0,0.0,0.0,0.0,0.0,0.0,0.0,0.0,0.0,0.0,0.0,0.0,2.0093,2.354,2.5975,2.836,3.0745,3.0939,3.1683,3.3185,3.09,2.846,0.0,0.0,0.0,0.0,0.0,0.0,0.0,0.0,0.0,0.0,0.0,0.0,0.0,0.0,0.0,0.0,0.0,0.0,0.0,0.0,0.0,0.0,0.0,0.0,0.0,0.0,0.0,0.0,0.0,0.0,0.0,0.0,0.0,0.0,0.0,0.0,0.0,0.0,0.0,0.0,0.0,0.0,2.1849,2.1213,0.0,0.0,0.0,1.9446,2.0166,0.0,0.0,0.0,0.0,0.0,0.0,0.0,0.0,0.0,0.0,0.0,0.0,0.0,0.0,0.0,0.0,0.0,0.0,0.0,0.0,0.0,0.0,0.0,0.0,0.0,0.0,0.0,0.0,0.0,0.0,0.0,0.0,0.0,0.0,0.0,0.0,0.0,0.0,0.0,0.0,0.0,0.0,0.0,0.0,0.0,0.0,0.0,0.0,0.0,0.0,0.0,0.0,0.0,0.0,0.0,0.0,0.0,2.454,2.7027,2.9442,3.1748,3.0996,3.1442,3.3199,3.0135,0.0,0.0,0.0,0.0,0.0,0.0,0.0,0.0,0.0,0.0,0.0,0.0,0.0,0.0,0.0,0.0,0.0,0.0,0.0,0.0,0.0,0.0,0.0,0.0,0.0,0.0,0.0,0.7152,0.0,0.0,0.0,0.0,0.0,0.0,0.0,0.0,0.0,0.0,0.0,0.0,0.0,0.0,1.956,2.1948,2.2369,2.2244,0.0,0.0,2.1618,2.2113,2.1086,1.9669,0.0,0.0,0.0,0.0,0.0,0.0,0.0,0.0,0.0,0.0,0.0,0.0,0.0,0.0,0.0,0.0,0.0,0.0,0.0,0.0,0.0,0.0,0.0,0.0,0.0,0.0,0.0,0.0,0.0,0.0,0.0,0.0,0.0,0.0,0.0,0.0,0.0,0.0,0.0,0.0,0.0,0.0,0.0,0.0,0.0,0.0,0.0,0.0,0.0,0.0,0.0,0.0,0.0,0.0,0.0,2.4567,2.8666,3.169,3.3682,3.2876,3.3325,3.5198,3.216,2.901,0.0,0.0,0.0,0.0,0.0,0.0,0.0,0.0,0.0,0.0,0.0,0.0,0.0,0.0,0.0,0.0,0.0,0.0,0.0,0.0,0.0,0.0,0.0,0.0,0.0,0.0,0.0,0.0,0.0,0.0,0.0,0.0,0.0,0.0,0.0,0.0,0.0,0.0,0.0,0.0,0.0,1.9957,2.2006,2.3086,2.3938,0.0,0.0,2.3757,2.4166,2.3391,2.2182,2.0467,0.0,0.0,0.0,0.0,0.0,0.0,0.0,0.0,0.0,0.0,0.0,0.0,0.0,0.0,0.0,0.0,0.0,0.0,0.0,0.0,0.0,0.0,0.0,0.0,0.0,0.0,0.0,0.0,0.0,0.0,0.0,0.0,0.0,0.0,0.0,0.0,0.0,0.0,0.0,0.0,0.0,0.0,0.0,0.0,0.0,0.0,0.0,0.0,0.0,0.0,0.0,0.0,0.0,2.2163,2.5412,2.901,3.1582,3.3031,3.2236,3.2092,3.2834,3.088,2.8502,0.0,0.0,0.0,0.0,0.0,0.0,0.0,0.0,0.0,0.0,0.0,0.0,0.0,0.0,0.0,0.0,0.0,0.0,0.0,0.0,0.0,0.0,0.0,0.0,0.0,0.0,0.0,0.0,0.83,0.9372,1.0007,0.0,0.0,0.0,0.0,0.0,0.0,0.0,0.0,0.0,0.0,2.0744,2.3606,2.4322,0.0,0.0,2.5117,2.5039,2.5215,2.5287,2.4438,2.1876,2.0829,0.0,0.0,0.0,0.0,0.0,0.0,0.0,0.0,0.0,0.0,0.0,0.0,0.0,0.0,0.0,0.0,0.0,0.0,0.0,0.0,0.0,0.0,0.0,0.0,0.0,0.0,0.0,0.0,0.0,0.0,0.0,0.0,0.0,0.0,0.0,0.0,0.0,0.0,0.0,0.0,0.0,0.0,0.0,0.0,0.0,0.0,0.0,0.0,0.0,0.0,0.0,0.0,2.2722,2.5772,2.9031,3.1294,3.2566,3.1683,3.1315,3.1583,3.036,2.849,0.0,0.0,0.0,0.0,0.0,0.0,0.0,0.0,0.0,0.0,0.0,0.0,0.0,0.0,0.0,0.0,0.0,0.0,0.0,0.0,0.0,0.0,0.0,0.0,0.0,0.0,0.0,0.0,0.9004,1.0037,1.048,0.0,0.0,0.0,0.0,0.0,0.0,0.0,0.0,0.0,0.0,2.1386,2.4165,2.5563,2.6264,2.6463,2.6774,2.7043,2.7043,2.762,2.7075,2.4425,0.0,0.0,0.0,0.0,0.0,0.0,0.0,0.0,0.0,0.0,0.0,0.0,0.0,0.0,0.0,0.0,0.0,0.0,0.0,0.0,0.0,0.0,0.0,0.0,0.0,0.0,0.0,0.0,0.0,0.0,1.3855,0.0,0.0,0.0,0.0,0.0,0.0,0.0,0.0,0.0,0.0,0.0,0.0,0.0,0.0,0.0,0.0,0.0,0.0,0.0,0.0,0.0,0.0,2.2794,2.5427,2.8731,3.1164,3.2494,3.1683,3.1609,3.2451,3.1021,2.9188,2.703,0.0,0.0,0.0,0.0,0.0,0.0,0.0,0.0,0.0,0.0,0.0,0.0,0.0,0.0,0.0,0.0,0.0,0.0,0.0,0.0,0.0,0.0,0.0,0.0,0.0,0.0,0.8539,0.9253,0.9758,0.0,0.0,0.0,0.0,0.0,0.0,0.0,0.0,0.0,0.0,1.9568,2.1867,2.322,2.6585,2.8655,2.8355,2.9306,3.0063,3.0063,3.0516,3.0274,0.0,0.0,0.0,0.0,0.0,0.0,0.0,0.0,0.0,0.0,0.0,0.0,0.0,0.0,0.0,0.0,0.0,0.0,0.0,0.0,0.0,0.0,0.0,0.0,0.0,0.0,0.0,2.0042,1.973,0.0,0.0,0.0,0.0,0.0,0.0,0.0,0.0,0.0,0.0,0.0,2.2299,2.3236,0.0,0.0,0.0,0.0,0.0,0.0,0.0,0.0,0.0,0.0,0.0,0.0,2.3566,2.5948,2.9389,3.1378,3.1656,3.1389,3.1044,3.0771,2.9854,2.8003,2.5242,0.0,0.0,0.0,0.0,0.0,0.0,0.0,0.0,0.0,0.0,0.0,0.0,0.0,0.0,0.0,0.0,0.0,0.0,0.0,0.0,0.0,0.0,0.0,0.0,0.0,0.9667,0.0,0.0,0.0,0.0,0.0,0.0,0.0,0.0,0.0,0.0,0.0,1.6382,1.7973,2.06,2.2911,2.4278,2.6756,2.8816,0.0,0.0,0.0,0.0,0.0,0.0,0.0,0.0,0.0,0.0,0.0,0.0,0.0,0.0,0.8845,0.7485,0.6155,0.5321,0.5711,0.0,0.0,0.0,0.0,0.0,0.0,0.0,0.0,0.0,0.0,0.0,0.0,0.0,0.0,2.3228,0.0,2.1449,0.0,0.0,0.0,0.0,0.0,0.0,0.0,0.0,2.566,2.4757,2.4607,2.5536,2.5261,0.0,2.3782,2.2005,0.0,0.0,0.0,0.0,0.0,0.0,0.0,0.0,2.4034,2.6347,2.9379,3.0897,3.0745,3.0696,3.0419,2.9779,2.9227,2.7555,2.4755,2.2558,1.9979,0.0,0.0,0.0,0.0,0.0,0.0,0.0,0.0,0.0,0.0,0.0,0.0,0.0,0.0,0.0,0.0,0.0,0.0,0.0,0.0,0.0,0.0,0.0,1.1642,0.0,0.0,0.0,0.0,0.0,0.0,0.0,0.0,0.0,1.5057,1.6289,1.7581,1.9123,2.0997,2.2748,2.4295,0.0,0.0,0.0,0.0,0.0,0.0,0.0,3.4366,3.3669,3.2669,3.0971,2.8573,2.4545,2.0123,1.5311,0.0,0.0,0.775,0.6004,0.5414,0.6711,0.8097,0.9028,0.8809,0.9084,0.7891,0.0,0.0,0.0,0.0,0.0,0.0,0.0,0.0,2.6456,2.6247,0.0,2.4235,0.0,0.0,0.0,0.0,0.0,2.1222,0.0,0.0,2.7672,2.7871,2.7469,2.7873,2.7311,2.5894,2.7728,2.6139,2.1607,1.8272,0.0,0.0,0.0,0.0,0.0,0.0,2.4245,2.649,2.8749,2.9779,2.9779,2.9779,2.9804,2.9702,2.9176,2.7828,2.5725,2.4356,2.2248,1.9302,1.7279,0.0,0.0,0.0,0.0,0.0,0.0,0.0,0.0,0.0,0.0,0.0,0.0,0.0,0.0,0.0,0.0,0.0,0.0,0.0,0.0,1.3264,0.0,0.0,0.0,0.0,0.0,0.0,0.0,0.0,0.0,0.0,1.4974,1.6653,1.8263,2.0229,0.0,0.0,0.0,0.0,2.8513,2.8641,3.2197,3.4917,3.5017,3.6726,3.7638,3.6589,0.0,0.0,2.7479,2.4335,2.1131,1.5579,1.4288,1.2357,0.7944,0.6487,0.6616,0.9086,0.9774,0.9741,0.9486,0.9387,0.7749,2.8882,0.0,0.0,0.0,0.0,3.0176,3.0455,3.1072,3.041,2.9937,2.9599,2.774,0.0,0.0,0.0,0.0,0.0,0.0,2.6568,2.9843,2.9061,2.9227,3.0206,2.9536,2.8946,2.8373,2.7069,2.5496,2.3811,2.1691,1.9781,1.8182,0.0,0.0,0.0,0.0,2.4755,2.648,2.8672,2.9779,2.9779,2.9779,2.9443,2.8609,2.844,2.7885,2.7058,2.5103,2.2886,2.0305,1.8982,0.0,0.0,0.0,0.0,0.0,0.0,0.0,0.0,0.0,0.0,0.0,0.0,0.0,0.0,0.0,0.0,0.0,0.0,0.0,1.6317,1.5079,1.4296,0.0,0.0,0.0,0.0,0.0,0.0,0.0,0.0,0.0,1.4256,1.5954,1.7742,0.0,0.0,2.2225,2.2406,2.4581,2.7018,2.9273,3.1719,0.0,3.6449,3.7461,3.8165,3.8668,3.7287,3.4108,2.79,2.6315,2.4124,1.8852,1.7803,1.6439,1.2837,1.035,0.9305,1.0062,1.0196,1.0187,0.9935,0.6498,0.2154,3.4061,3.0279,3.0619,3.2383,3.4809,3.3094,3.2786,3.347,3.2616,3.2127,3.1905,3.0427,2.8675,2.6717,2.5345,0.0,0.0,0.0,2.8549,3.1589,3.042,3.0194,3.0572,2.9906,2.9145,2.8177,2.6933,2.5714,2.4655,2.412,2.2672,2.0461,0.0,0.0,2.1013,2.3217,2.5059,2.6655,2.8643,2.9745,2.9745,2.9548,2.8923,2.7743,2.7534,2.7174,2.6476,2.5161,2.3515,2.1432,2.0507,1.9039,0.0,0.0,0.0,0.0,0.0,0.0,0.0,0.0,0.0,0.0,0.0,1.3271,0.0,0.0,0.0,0.0,1.5524,1.7512,1.9414,1.7703,0.0,0.0,0.0,0.0,0.0,0.0,0.0,1.0414,1.0755,1.1708,1.349,1.5258,1.7051,1.8671,1.992,2.055,2.0591,0.0,2.3308,2.6033,2.9006,3.2107,3.5488,3.7191,3.8423,3.9283,3.7031,3.3568,2.8924,2.6914,2.4501,2.0724,1.9409,1.8195,1.4692,1.2885,1.1717,1.0802,1.0545,0.9691,0.6804,0.0275,-0.4887,3.8091,3.7434,3.6148,3.626,3.7074,3.527,3.4171,3.3661,3.3441,3.3171,3.2856,3.2226,3.0906,2.9076,2.8072,0.0,2.7922,2.9297,3.0716,3.2041,3.1537,3.0778,2.9687,2.9541,2.8313,2.6229,2.7171,2.6525,2.4545,2.5553,2.516,2.3097,1.8469,1.8391,2.2836,2.4024,2.5267,2.6797,2.8549,2.94,2.9484,2.8964,2.8184,2.703,2.6563,2.5797,2.4702,2.4702,2.3941,2.2473,2.1613,2.0333,1.8457,0.0,0.0,0.0,0.0,0.0,0.0,0.0,0.0,0.0,0.0,0.0,0.0,0.0,0.0,0.0,1.7323,0.0,2.1797,2.0674,0.0,0.0,0.0,1.6082,1.2925,1.298,1.237,1.0094,0.0,0.0,1.259,1.441,1.626,1.7736,1.7859,1.7972,1.8442,1.838,1.8662,2.1074,2.4801,2.9071,3.2996,3.6139,3.8052,3.8237,3.606,3.2834,2.965,2.6615,2.3434,2.0439,1.9614,1.8541,1.5028,1.4362,1.3425,1.0222,0.9678,0.7418,0.0835,-0.6166,-1.0907,4.0248,3.881,3.7803,3.7024,3.6441,3.597,3.5164,3.4148,3.4101,3.4005,3.3887,3.2983,3.1966,3.0809,3.0532,3.0428,3.0523,3.0829,3.165,3.2733,3.1332,3.0745,3.0754,2.8969,2.78,2.7264,2.6513,2.5784,2.5016,2.5184,2.498,2.4094,2.2878,2.2832,2.4054,2.4932,2.5714,2.6292,2.7502,2.8177,2.8155,2.7765,2.703,2.5849,2.5381,2.4638,2.3541,2.3541,2.2892,2.1688,2.1053,1.9631,1.696,1.4977,0.0,0.0,0.0,0.0,0.0,0.0,0.0,0.0,0.0,1.2987,1.2632,0.0,1.6063,0.0,1.8675,2.0644,2.2058,2.1405,0.0,0.0,1.9199,1.8049,1.6483,1.4179,1.2447,1.2168,1.1187,1.0658,1.1283,1.2954,1.4769,1.6716,1.8875,1.9789,1.8756,1.8489,1.9205,2.1027,2.3228,2.6603,3.1401,3.4868,3.6745,3.6069,3.4142,3.1865,2.8965,2.6703,2.4491,2.2483,2.0847,1.9496,1.7886,1.3825,0.8394,0.3861,0.242,0.0846,-0.3792,-0.8409,-1.2144,4.1773,4.0973,3.9398,3.7777,3.6263,3.5958,3.5568,3.5197,3.4711,3.4492,3.4466,3.3628,3.2969,3.2516,3.2516,3.2381,3.2222,3.2632,3.3154,3.3507,3.2709,3.183,3.0997,2.9692,2.8476,2.7354,2.6586,2.6172,2.5937,2.5937,2.5567,2.4948,2.5199,2.5464,2.5551,2.5655,2.5808,2.5918,2.7077,2.7692,2.767,2.7107,2.6126,2.5015,2.3839,2.296,2.2296,2.1765,2.1141,2.0323,2.0131,1.9056,1.7054,1.5433,1.377,0.0,0.0,0.0,0.0,0.0,0.0,0.0,0.0,0.0,0.0,0.0,1.6185,1.8078,1.9795,2.1391,2.2985,2.2197,2.1486,2.1166,2.0373,1.9141,1.7579,1.5836,1.4088,1.2232,1.1358,1.0853,1.1023,1.2519,1.4026,1.5217,1.7432,1.8983,1.8853,1.7653,1.7188,1.9006,2.059,2.4134,3.087,3.4399,3.5984,3.5344,3.3223,3.0774,2.8508,2.6054,2.3816,2.2164,2.157,1.929,1.4198,0.8524,0.3041,-0.0874,-0.4953,-0.7526,-0.8449,-1.0293,-1.2336,4.2899,4.3079,4.0728,3.8391,3.6347,3.567,3.5678,3.6044,3.5124,3.4726,3.47,3.4223,3.3997,3.3997,3.4022,3.372,3.3419,3.4245,3.461,3.447,3.4495,3.3281,3.1162,3.0778,2.9437,2.7298,2.7114,2.7012,2.7012,2.7012,2.6608,2.5926,2.6448,2.6871,2.7114,2.6388,2.5836,2.5723,2.6744,2.741,2.7295,2.6351,2.5331,2.419,2.2226,2.1069,2.0819,1.9827,1.8969,1.8482,1.8377,1.8001,1.7071,1.5696,1.41,0.0,1.1004,0.0,0.0,0.0,0.0,0.0,0.0,0.0,0.0,1.3738,1.6211,1.9711,2.0818,2.2143,2.3753,2.2534,2.1729,2.1915,2.1204,1.9713,1.7479,1.715,1.5673,1.1932,1.1365,1.1165,1.1324,1.2551,1.3505,1.4096,1.532,1.6933,1.8418,1.6234,1.4864,1.6089,1.8195,2.2752,2.9077,3.2832,3.4492,3.4282,3.1978,2.9535,2.818,2.4989,2.2228,2.1052,2.058,1.7008,0.672,0.1172,-0.265,-0.5625,-1.1174,-1.4482,-1.2656,-1.1809,-1.2045,4.3671,4.3098,4.0859,3.8532,3.643,3.6284,3.5755,3.497,3.4816,3.4726,3.4726,3.4625,3.4575,3.4575,3.455,3.4435,3.4435,3.456,3.5198,3.5865,3.4096,3.3002,3.2418,3.0295,2.9141,2.8566,2.75,2.7012,2.7012,2.7012,2.689,2.6749,2.7133,2.7558,2.7964,0.0,0.0,0.0,2.5917,2.6014,2.5994,2.4488,2.3389,2.2887,2.1188,0.0,1.8286,1.7995,1.695,1.4935,1.4841,0.0,0.0,0.0,0.0,0.0,0.0,0.0,0.0,0.0,0.0,0.0,0.5732,0.5775,0.9345,1.4332,1.802,1.9477,2.2025,2.3135,2.2299,2.1222,2.0169,1.9063,2.0118,2.0117,1.7708,1.462,1.2702,1.3994,1.2391,1.1212,1.1328,1.1622,1.2499,1.3858,1.4604,1.5579,1.7256,1.5441,1.425,1.4925,1.8424,2.2242,2.4314,2.7457,2.9657,2.9653,2.8292,2.692,2.6618,2.3601,2.1901,2.2256,1.6613,0.9432,0.1763,-0.3976,-0.9218,-1.3178,-1.5206,-1.5815,-1.5294,-1.3378,-1.2508,4.3682,0.0,4.0756,3.8845,0.0,3.7222,3.686,3.6307,3.5755,3.5529,3.5504,3.5253,3.5127,3.5127,3.5127,3.4986,3.4728,3.5261,3.584,3.6345,3.5139,3.4265,3.3577,3.23,3.0921,2.9614,2.8922,2.8241,2.7656,2.7656,2.7656,2.7656,2.778,2.7944,2.8316,2.7851,2.7153,2.6367,2.6367,2.5952,2.5008,2.3224,2.182,2.0784,1.8349,0.0,0.0,0.0,0.0,0.0,0.0,0.0,0.0,0.0,0.0,1.0642,1.0482,0.9807,0.8427,0.8285,0.8163,0.7841,0.6904,0.7122,0.9098,1.3668,1.6634,1.7205,1.8903,1.9542,1.8988,1.847,1.7942,1.7227,1.7951,1.8105,1.684,1.3634,1.1927,1.2804,1.2182,1.1423,1.1497,1.1504,1.181,1.2881,1.31,1.3434,1.4416,1.4707,1.4437,1.3263,1.6075,1.9307,2.1106,2.2881,2.5208,2.6497,2.5884,2.5293,2.618,2.3235,2.092,2.1167,1.5231,0.7818,0.0451,-0.9101,-1.7586,-1.952,-1.8723,-1.5699,-1.2581,-1.1637,-1.1611,4.3222,4.2895,4.0749,3.9164,3.8089,3.801,3.799,3.7939,0.0,0.0,0.0,3.5931,3.568,3.568,3.5705,3.5419,3.5084,3.5987,3.6358,3.6358,3.6358,3.5858,3.4775,3.4483,3.3055,3.0721,3.0411,2.9597,2.8301,2.8301,2.8301,2.8301,2.8301,2.8301,2.8262,2.7949,2.7598,2.7246,2.6865,2.5759,2.4043,2.1993,2.0107,1.8615,1.5806,1.4619,1.5318,1.3538,1.1569,0.957,1.001,1.0654,1.1116,1.1775,1.1415,0.9831,1.0249,0.9705,0.7927,0.8213,0.8141,0.7339,0.7619,0.8307,0.9499,1.2264,1.4014,1.421,1.5062,1.5782,1.5964,1.5781,1.5643,1.5652,1.5353,1.5119,1.5275,1.3324,1.1578,1.1592,1.1681,1.1633,1.166,1.1523,1.1536,1.1576,1.1823,1.1737,1.201,1.3382,1.385,1.2366,1.2424,1.3922,1.7551,1.846,2.0186,2.309,2.3209,2.3443,2.4391,2.2413,1.961,1.7105,1.3483,0.6892,-0.1848,-1.1497,-2.0131,-2.0924,-1.9265,-1.5228,-0.8755,-0.9346,-1.117,4.2516,4.2249,4.0505,3.9258,3.8485,3.8139,3.799,3.7939,3.7337,3.7061,3.7036,3.6483,3.6257,3.6257,3.6232,3.6232,3.6207,3.6307,3.6358,3.6358,3.6358,3.6263,3.6073,3.4969,3.3575,3.2028,3.0824,2.9618,2.8388,2.8301,2.8301,2.8301,2.8301,2.8301,2.8281,2.8242,2.8184,2.8105,2.6076,2.4262,2.2639,2.0023,1.8211,1.7309,1.5413,1.3926,1.294,1.0186,0.75,0.5166,0.7183,0.8536,0.8961,0.9003,0.7907,0.5234,0.5088,0.4936,0.4774,0.721,0.7598,0.4788,0.2607,0.3779,0.9645,1.0642,1.1063,1.1344,1.4146,1.6034,1.5952,1.4791,1.4104,1.3985,1.2781,1.1924,1.2204,1.1917,1.1579,1.1579,1.1599,1.1543,1.1657,1.139,1.1289,1.1411,1.099,1.1489,1.1795,1.206,1.2182,1.1095,0.7882,0.7864,1.1596,1.2758,1.3992,1.6878,1.9107,2.0284,2.0717,1.8461,1.4789,0.9249,0.7586,0.1394,-1.1065,-0.8198,-0.6641,-0.7261,-0.9305,-1.0131,-0.6251,-0.8949,-1.151,4.2038,4.1959,4.04,3.9548,3.912,3.8944,3.8919,3.8868,3.8341,3.7914,3.7613,3.7362,3.7262,3.7236,3.6432,3.6211,3.6428,3.6137,3.653,3.7262,3.7262,3.7262,3.7236,3.6652,3.5194,3.3137,3.2515,3.0937,2.8849,2.8633,2.8516,2.832,2.8301,2.8301,2.8301,2.7492,2.7168,2.706,2.6044,2.4274,2.1697,1.9639,1.7229,1.4424,1.0956,0.9595,1.041,0.5956,0.2046,-0.0677,0.0796,0.2275,0.3383,0.3582,0.3758,0.4124,0.277,0.1838,0.1853,0.3284,0.1676,-0.3419,-0.5043,-0.2791,0.4121,0.6494,0.8492,1.0426,1.2445,1.3361,1.3352,1.278,1.2519,1.2519,1.1832,1.1368,1.1375,1.1572,1.1619,1.1626,1.1556,1.1643,1.157,0.9837,0.8537,0.8455,0.8502,0.9183,1.1594,1.2079,0.9513,0.3464,0.1502,0.2559,0.4979,0.6672,0.8517,1.1321,1.4158,1.5118,1.4189,1.1568,0.8645,0.555,0.279,-0.1244,-0.874,-0.4352,0.0466,0.4818,0.3267,0.1092,-0.172,-0.4572,-0.5545,4.1398,4.1529,4.0236,3.9697,3.9697,3.9697,3.9697,3.9647,3.9245,3.8818,3.8391,3.814,3.799,3.7891,3.644,3.5795,3.5709,3.5412,3.6057,3.7292,3.7419,3.7494,3.7593,3.7792,3.6541,3.402,3.3832,3.2148,2.9411,2.9062,2.8668,2.816,2.8013,2.7777,2.745,2.597,2.5128,2.511,2.4361,2.2688,2.0158,1.8428,1.5268,1.0654,0.7466,0.6064,0.6679,0.2261,-0.2132,-0.5639,-0.5349,-0.4275,-0.2932,-0.2665,-0.1486,0.0622,0.0381,-0.0,-0.0,-0.0,-0.3045,-1.0122,-1.0778,-0.8365,-0.2952,0.1747,0.5252,0.7962,0.9838,1.118,1.1228,1.1287,1.1443,1.145,1.1545,1.1606,1.1619,1.1647,1.1667,1.1549,1.1677,1.1643,1.1101,0.9055,0.6679,0.503,0.4448,0.6512,1.1161,1.2481,0.715,-0.2753,-0.5041,-0.3372,-0.291,-0.1388,0.1703,0.5408,0.8066,0.8361,0.6773,0.4617,0.1384,-0.0462,-0.3715,-0.5447,-0.343,-0.1871,0.1248,0.6257,0.8641,0.8983,0.1259,-0.0,-0.0,3.9903,3.9903,3.98,3.9697,3.9697,3.9697,3.9697,3.9697,3.9622,3.9597,3.9396,3.8467,3.804,3.7792,3.6464,3.5286,3.4129,3.3817,3.4516,3.5631,3.5868,3.6033,3.6183,3.7318,3.6541,3.4065,3.3749,3.2276,2.9623,2.9492,2.8671,2.7355,2.6996,2.6276,2.4978,2.3352,2.2345,2.2215,1.9265,1.7505,1.7029,1.4826,1.1004,0.575,0.8,0.653,0.1476,0.0249,-0.2886,-0.8711,-0.907,-0.9014,-0.8742,-0.8782,-0.8928,-0.8799,-0.3355,-0.0,-0.0,-0.0,-0.2954,-0.9722,-1.0558,-1.0424,-0.918,-0.3392,0.0547,0.2192,0.7199,1.0385,1.1228,1.1504,1.1586,1.1579,1.1599,1.1619,1.164,1.1735,1.1823,1.1557,1.1844,1.1848,1.1524,1.0338,0.7581,-0.0,-0.0,0.3443,0.9458,1.1071,0.6602,-0.6562,-1.0832,-1.0342,-0.9869,-1.0993,-0.5936,-0.0312,0.0937,0.1246,0.0932,-0.0155,-0.2175,-0.8501,-1.185,-1.1095,-1.0125,-0.7606,-0.3115,0.1095,0.5811,0.9473,-0.0,-0.0,-0.0,3.9697,3.9697,3.9697,3.9697,3.9697,3.9697,3.9697,3.9594,3.8792,3.8921,3.944,3.83,3.8231,3.8893,3.7484,3.6294,3.5442,3.4842,3.5114,3.6038,3.5672,3.5566,3.5566,3.6097,3.5329,3.3485,3.3375,3.2253,3.0128,2.8767,2.6725,2.4613,2.5528,2.5277,2.3526,2.353,2.2497,2.016,1.7173,1.5299,1.4759,1.425,1.1016,0.5545,0.4305,0.2917,-0.0,-0.0,-0.1277,-0.3962,-0.5789,-0.6841,-0.6846,-0.69,-0.7862,-0.9472,-0.3823,-0.0,-0.0,-0.0,-0.1211,-0.43,-0.837,-1.0732,-1.0677,-0.7961,-0.4698,-0.028,0.2818,0.6089,1.042,1.1409,1.1633,1.1619,1.1619,1.1647,1.159,1.1663,1.175,1.2013,1.1874,1.1695,1.0845,0.7468,0.3747,-0.0,-0.0,-0.0,-0.0,0.5193,0.2354,-0.2819,-0.3127,-0.3589,-0.6407,-0.6098,-0.4532,-0.3908,-0.3751,-0.3749,-0.4061,-0.7782,-1.1355,-1.4145,-1.5122,-1.5975,-1.6481,-1.4245,-1.0635,-0.5965,-0.0793,0.3034,-0.2917,-0.3917,-0.3937,3.9697,3.9569,3.9183,3.8767,3.8477,3.8477,3.8477,3.8372,3.737,3.7713,3.8921,3.7902,3.8348,3.9362,3.8137,3.745,3.734,3.5568,3.5134,3.5808,3.5024,3.4736,3.4736,3.5178,3.427,3.2695,3.2427,3.1007,2.8639,2.7831,2.5393,2.2586,2.3566,2.2701,1.9568,2.0322,1.9549,1.6691,1.3645,1.1606,1.1217,1.2463,1.0622,0.5262,0.1675,-0.0,-0.0,-0.0,0.1035,0.2716,-0.0259,-0.2076,-0.2075,-0.1179,-0.2506,-0.6233,-0.2675,-0.0,-0.0,-0.0,-0.0,-0.0,-0.4989,-0.8178,-0.9223,-1.0147,-0.8438,-0.399,-0.1146,0.3007,0.8459,1.0855,1.164,1.1626,1.1647,1.1576,1.1663,1.1616,1.1911,1.234,1.2206,0.964,0.5581,0.109,-0.141,-0.0,-0.0,-0.0,-0.0,-0.0,-0.0,-0.0,-0.0,0.4547,-0.109,-0.1089,-0.0624,-0.1098,-0.2042,-0.6452,-0.7867,-1.3226,-1.6309,-1.5504,-1.7483,-1.9111,-2.0099,-1.9017,-1.6925,-1.243,-0.8176,-0.6126,-1.0281,-0.9702,-0.8614,3.9697,3.9465,3.7604,3.6325,3.5508,3.5617,3.5617,3.5727,3.5508,3.6271,3.7477,3.7477,3.8243,3.949,3.8243,3.8248,3.88,3.5335,3.3797,3.4086,3.3572,3.3191,3.3304,3.4515,3.3669,3.0895,3.0548,2.8328,2.433,2.6182,2.5342,2.1036,2.1176,1.7814,1.2346,1.1508,1.1228,1.0555,0.7369,0.5562,0.5889,0.8563,0.8638,0.529,0.1676,-0.0,-0.0,-0.0,0.2896,0.9664,0.6394,0.4818,0.5082,0.7784,0.6301,0.0402,-0.0,-0.0,-0.0,-0.0,-0.0,-0.0,-0.0,-0.2189,-0.5368,-0.8023,-0.8723,-0.9341,-0.2749,0.1889,0.6387,0.9908,1.1523,1.1653,1.1748,1.1677,1.169,1.1958,1.2298,1.1275,1.0131,0.4683,-0.8315,-0.8154,-0.4696,-0.2034,-0.0,-0.0,-0.0,-0.0,-0.0,-0.0,0.6026,1.004,0.2349,0.2975,0.6462,0.5701,0.0159,-0.7952,-1.1519,-1.4607,-1.5747,-1.7226,-1.9296,-2.1277,-2.321,-2.2614,-2.0157,-1.7826,-1.7677,-1.7494,-1.6546,-1.4898,-1.3645,3.9665,3.934,3.6218,3.458,3.445,3.4979,3.5288,3.5178,3.4292,3.4736,3.5945,3.6054,3.6918,3.8348,3.8792,3.9228,3.9402,3.6989,3.553,3.4714,3.3642,3.2644,3.1632,3.1225,3.0471,2.9183,2.8098,2.5626,2.2324,2.2928,2.0781,1.7444,1.941,1.654,0.853,0.492,0.3853,-0.0,0.2385,0.2785,0.4929,0.8046,0.9377,0.8371,0.2914,-0.0,-0.0,-0.0,0.1336,0.3742,0.6857,0.8778,0.8907,1.0002,0.7545,-0.0,-0.0,-0.0,-0.0,-0.0,-0.0,-0.0,-0.0,-0.0,-0.1826,-0.2986,-0.1863,0.1876,0.0436,0.2776,0.8103,1.1078,1.1816,1.1809,1.1904,1.2013,1.1965,1.1954,0.8477,-0.0619,-0.3589,-0.6427,-0.9584,-1.1167,-0.9735,-0.8154,-0.5789,-0.314,-0.0,-0.0,-0.0,-0.0,0.7263,1.234,0.9832,0.9128,1.0099,0.8673,0.4008,-0.6723,-1.3061,-1.659,-1.8387,-1.8842,-2.0968,-2.5111,-2.7367,-2.7116,-2.4623,-2.4364,-2.429,-2.227,-2.1816,-1.916,-1.791,3.8883,3.734,3.5176,3.3965,3.3788,3.4869,3.5068,3.4515,3.3508,3.362,3.4515,3.4626,3.5617,3.7453,3.8582,3.9258,3.9465,3.8137,3.6918,3.5836,3.3957,3.253,3.1401,2.9375,2.817,2.7314,2.5375,2.2879,2.0358,1.9509,1.6926,1.3054,1.6186,1.375,0.6034,0.1746,-0.0,-0.0,-0.0,0.1211,0.3362,0.5393,0.5527,0.336,-0.0941,-0.2289,-0.0,-0.0,-0.0,-0.0,0.687,1.0685,1.0672,1.0685,0.8086,0.255,-0.0,-0.0,-0.0,-0.0,-0.0,-0.0,-0.0,-0.0,-0.0,0.2297,0.6368,0.9055,0.7628,0.6485,1.0121,1.202,1.2189,1.1993,1.206,1.2169,1.2277,1.2233,0.449,-0.7661,-1.1323,-1.2122,-1.2589,-1.242,-1.2284,-1.2644,-0.9933,-0.7114,-0.4793,-0.0,-0.0,-0.0,-0.0,0.9667,0.9332,0.8653,0.6165,0.4385,0.2905,-0.6934,-1.5081,-1.861,-2.043,-2.1024,-2.3882,-2.8591,-3.0877,-3.0819,-3.0529,-3.0192,-2.8017,-2.5688,-2.4439,-2.2727,-2.1318,3.7012,3.3818,3.4626,3.427,3.3487,3.4515,3.4403,3.3395,3.3191,3.3191,3.3077,3.3191,3.4714,3.6918,3.7477,3.8348,3.9025,3.8243,3.7583,3.7026,3.4759,3.3438,3.2737,2.9925,2.7554,2.5863,2.2688,2.0309,1.8756,1.7118,1.4632,1.168,1.2119,1.0955,0.5629,-0.0,-0.0,-0.0,-0.0,-0.0,-0.0,-0.0,-0.2153,-0.837,-0.9747,-0.7018,-0.0,-0.0,-0.0,-0.0,0.6857,1.0645,1.0751,1.0778,0.9024,0.5366,0.2148,-0.0,-0.0,-0.0,-0.0,-0.0,-0.0,-0.0,-0.0,0.6958,1.0831,1.1147,1.1244,1.163,1.1399,1.2196,1.2429,1.2313,1.2223,1.2298,1.2338,1.2004,0.5945,-0.8471,-1.2752,-1.2556,-1.2542,-1.3162,-1.3523,-1.3483,-1.291,-1.202,-1.0212,-0.5185,-0.0,-0.0,-0.0,0.4461,0.5799,0.5973,0.1981,-0.1315,-0.3097,-0.845,-1.6673,-2.1475,-2.2031,-2.2937,-2.7798,-3.2271,-3.3713,-3.3648,-3.3515,-3.2726,-3.0591,-2.8909,-2.765,-2.6082,-2.4074,3.3621,3.3452,3.2592,3.282,3.3544,3.3776,3.3529,3.3077,3.3077,3.253,3.1862,3.2644,3.362,3.4825,3.6464,3.7796,3.8243,3.8687,3.8477,3.7631,3.7486,3.5911,3.3191,3.0935,2.7961,2.4271,2.0916,1.9024,1.8372,1.6786,1.5216,1.4865,1.6577,1.4566,0.9191,0.7735,0.5342,-0.0,-0.0,-0.0,-0.0,-0.0,-0.0,-0.9747,-1.0719,-0.9484,-0.7286,-0.2689,-0.0,-0.0,0.687,1.0672,1.0765,1.0758,0.9401,0.6827,0.4824,0.378,0.355,-0.0,-0.0,-0.0,-0.0,-0.0,0.7106,0.9931,1.1576,1.1563,1.1697,1.1831,1.1951,1.2284,1.2372,1.2464,1.24,1.2454,1.1805,0.746,-0.0778,-1.0041,-1.4129,-1.4855,-1.4992,-1.5479,-1.668,-1.6632,-1.5805,-1.4692,-1.2379,-0.8182,-0.0,-0.0,-0.0,-0.1835,-0.2167,-0.4318,-0.8953,-0.9743,-1.0172,-1.1583,-1.875,-2.3548,-2.4095,-2.6666,-3.1478,-3.4423,-3.5718,-3.6146,-3.583,-3.5085,-3.323,-3.2016,-3.1268,-2.8953,-2.5846,3.1596,3.2539,3.1416,3.1896,3.3523,3.3776,3.362,3.3191,3.3077,3.2301,3.1325,3.1883,3.2644,3.3508,3.5595,3.6918,3.7583,3.9025,3.9258,3.855,3.9226,3.7844,3.4515,3.1815,2.8501,2.47,2.163,2.003,1.9419,1.8384,1.7474,1.7378,1.8441,1.6718,1.198,1.0955,0.803,0.4158,-0.0,-0.0,-0.0,-0.0,-0.2153,-0.6333,-0.9203,-1.0584,-1.0296,-0.6191,-0.2689,0.0269,0.5655,0.9157,1.0485,1.0618,0.994,0.8723,0.7962,0.7626,0.758,0.5837,0.2664,0.1,0.1293,0.4766,1.0082,1.1576,1.1543,1.1543,1.173,1.1139,1.015,1.1587,1.2326,1.2481,1.2528,1.2562,1.1436,0.5134,-0.3113,-1.0336,-1.4562,-1.5624,-1.6283,-1.7558,-1.8987,-1.8952,-1.7548,-1.561,-1.3295,-1.0908,-0.6984,-0.4013,-0.3346,-0.5864,-0.9923,-1.447,-2.0076,-1.925,-1.7566,-1.8817,-2.2682,-2.5819,-2.7212,-3.0526,-3.4786,-3.6201,-3.7511,-3.7805,-3.7658,-3.659,-3.4769,-3.2792,-3.0669,-2.853,-2.6056,3.0898,3.0956,3.0888,3.1726,3.3014,3.427,3.4181,3.3191,3.3077,3.2322,3.1112,3.1112,3.1652,3.3077,3.4515,3.5836,3.7287,3.9013,3.9486,3.9327,3.9519,3.8621,3.6619,3.2684,2.8954,2.6061,2.4117,2.2452,2.0843,2.0589,2.0335,1.8676,1.7098,1.5144,1.3185,1.1659,1.0758,0.9024,0.3756,-0.0,-0.0,-0.0,-0.0,-0.0,-0.7148,-1.0712,-1.0564,-0.7689,-0.4574,0.0269,0.4431,0.7383,0.9946,1.0758,1.0645,1.0378,1.0934,1.0809,1.1101,1.0345,0.8017,0.2891,0.4056,0.7421,1.0825,1.1543,1.1674,1.1694,1.1784,1.0277,0.8044,0.8505,1.0364,1.0705,1.0208,1.1329,1.1823,0.5148,-0.358,-1.1119,-1.4546,-1.5897,-1.6507,-1.8106,-1.9274,-1.9045,-1.7769,-1.5796,-1.4408,-1.2656,-1.1053,-0.9392,-0.771,-0.955,-1.361,-1.7937,-2.2701,-2.2056,-2.1394,-2.3336,-2.5066,-2.7806,-3.0898,-3.4099,-3.6257,-3.7805,-3.8594,-3.8574,-3.7805,-3.6127,-3.4151,-3.1879,-2.9913,-2.7762,-2.6702,3.0898,3.0879,3.0878,3.1142,3.1665,3.3043,3.3529,3.3077,3.3077,3.2207,3.1112,3.0898,3.1112,3.1672,3.3077,3.3957,3.5069,3.7996,3.9029,3.8412,3.9226,3.881,3.6858,3.291,2.9559,2.7379,2.4838,2.2716,2.1222,2.1122,2.0781,2.0349,1.7033,1.5206,1.3997,1.2955,1.1931,1.0378,0.6447,0.255,-0.0,-0.0,-0.0,-0.0,-0.6472,-1.0028,-0.9332,-0.0268,0.5517,0.7282,0.6046,0.6973,1.0232,1.0846,1.09,1.0921,1.1043,1.1192,1.1328,1.1409,1.0203,0.8703,0.6825,0.7557,1.1227,1.166,1.1694,1.1789,1.1837,1.0318,0.6572,0.4185,0.1093,-0.3601,0.203,0.831,0.9589,0.4992,-0.4195,-1.4578,-1.7149,-1.7435,-1.8133,-1.944,-2.0602,-1.9381,-1.7842,-1.6408,-1.5311,-1.4368,-1.274,-1.3943,-1.3597,-1.4758,-1.7251,-2.1405,-2.3884,-2.3419,-2.3952,-2.6017,-2.7806,-2.9962,-3.3361,-3.6791,-3.7308,-3.8428,-3.8574,-3.8574,-3.7179,-3.5664,-3.385,-3.1879,-2.9759,-2.7919,-2.7004,3.0898,3.0898,3.0898,3.0858,3.0988,3.1761,3.2207,3.2207,3.2207,3.1767,3.0995,3.0898,3.0898,3.1112,3.2436,3.3077,3.3614,3.6428,3.7216,3.6866,3.7331,3.7607,3.6595,3.3849,3.1067,2.7973,2.5035,2.2256,2.0462,2.0706,2.0657,1.8887,1.5713,1.3891,1.4146,1.2832,1.1799,1.0518,0.8354,0.5245,0.0538,0.31,-0.0,0.4031,-0.0,-0.2687,-0.3758,0.4699,1.0692,1.0283,0.8929,0.88,1.045,1.0968,1.1036,1.1043,1.1179,1.1301,1.1382,1.1457,1.1545,1.1188,0.9152,0.959,1.1076,1.1694,1.1775,1.1703,1.1918,1.0702,0.7386,0.0466,-0.674,-0.9917,-0.5792,0.0156,0.4222,-0.1713,-0.8407,-1.5017,-1.7549,-1.7999,-1.8672,-2.0259,-2.0316,-1.9533,-1.78,-1.6923,-1.6319,-1.5373,-1.4901,-1.5924,-1.7078,-1.7864,-1.8664,-2.214,-2.4134,-2.3828,-2.6306,-2.8374,-2.9976,-3.1923,-3.4539,-3.7085,-3.8059,-3.8574,-3.8574,-3.8117,-3.6737,-3.5217,-3.3549,-3.1574,-2.9449,-2.8997,-2.8076,3.0898,3.0898,3.0898,3.0898,3.0879,3.0898,3.1112,3.0995,3.0995,3.0995,3.0898,3.0898,3.0898,3.0995,3.1727,3.2488,3.2488,3.399,3.4224,3.4205,3.4648,3.5353,3.5286,3.4316,3.164,2.8092,2.4817,2.1562,1.9546,1.9911,1.916,1.6925,1.2996,1.2088,1.2824,1.1666,1.0632,0.9977,1.0143,0.756,0.4042,0.6888,0.9069,0.9192,0.8912,0.5778,0.3751,0.7397,1.0699,1.0692,1.0928,1.0833,1.1002,1.1118,1.1179,1.1212,1.1321,1.1416,1.1436,1.1545,1.1619,1.1496,1.1482,1.164,1.1687,1.1769,1.1717,1.1817,1.1586,1.095,0.931,-0.2335,-1.0543,-1.2311,-1.1966,-1.0826,-0.9085,-1.0653,-1.3951,-1.6445,-1.6707,-1.7611,-1.8426,-1.9421,-1.9454,-1.7512,-1.6709,-1.6949,-1.6975,-1.682,-1.6664,-1.7164,-1.8626,-2.0079,-2.105,-2.235,-2.3496,-2.4271,-2.7862,-3.0207,-3.1574,-3.3296,-3.5371,-3.7066,-3.8078,-3.8574,-3.8574,-3.7658,-3.659,-3.5217,-3.4001,-3.1268,-2.8842,-2.9913,-2.9759,3.0898,3.0898,3.0898,3.0898,3.0898,3.0898,3.0898,3.0898,3.0898,3.0898,3.0898,3.0898,3.0762,3.0762,2.9846,2.9456,2.9766,3.0897,3.0642,2.8584,3.2046,3.1787,3.1102,3.1067,3.0238,2.7379,2.3518,2.0472,1.8908,1.7271,1.6385,1.467,1.2497,1.0899,1.124,1.1136,0.9128,0.7526,0.918,0.9612,0.8252,0.8935,1.0456,1.0725,1.0712,1.0124,0.9157,1.0053,1.0934,1.0934,1.0975,1.1056,1.1138,1.1267,1.1335,1.1369,1.1477,1.1558,1.1572,1.1592,1.1619,1.1626,1.164,1.1667,1.1789,1.1697,1.1844,1.139,0.9361,0.93,0.9226,-0.2969,-1.0554,-1.2623,-1.4152,-1.4919,-1.4315,-1.4756,-1.6798,-1.9101,-2.021,-2.0231,-1.9376,-1.9452,-1.8484,-1.5813,-1.5894,-1.6467,-1.7302,-1.8272,-1.876,-1.9248,-2.0867,-2.2338,-2.282,-2.378,-2.4748,-2.5529,-2.8642,-3.1727,-3.2944,-3.4504,-3.6294,-3.7492,-3.8409,-3.8574,-3.8574,-3.8428,-3.7511,-3.5979,-3.4601,-3.2641,-3.1268,-3.1727,-3.1879,3.0873,3.0972,3.0936,3.0878,3.0858,3.0957,3.0898,3.0898,3.0898,3.0392,2.9903,2.9766,2.9294,2.8545,2.7692,2.7314,2.7504,2.8112,2.7764,2.6833,2.8645,2.86,2.7432,2.7107,2.6747,2.5384,2.1783,1.9066,1.7065,1.4874,1.321,1.2568,1.1197,1.0809,1.0717,1.0751,0.9123,0.6969,0.7393,0.8226,0.8231,0.8283,0.9585,1.0594,1.0873,1.0846,1.0717,1.0776,1.098,1.1151,1.1179,1.1212,1.128,1.1409,1.1491,1.1518,1.1558,1.1619,1.1619,1.1619,1.1619,1.1626,1.1674,1.1762,1.173,1.1831,1.1854,1.1555,1.0087,0.89,0.6434,-0.1564,-0.9438,-1.2834,-1.4828,-1.6104,-1.6355,-1.7062,-1.8732,-2.0825,-2.1079,-2.1001,-2.0684,-2.0676,-1.9834,-1.8161,-1.8179,-1.8751,-1.9085,-1.9897,-2.1028,-2.1845,-2.346,-2.4602,-2.4761,-2.5555,-2.6504,-2.7435,-2.8968,-3.1863,-3.3833,-3.5456,-3.7072,-3.792,-3.8574,-3.8574,-3.8574,-3.8428,-3.7951,-3.6275,-3.49,-3.4151,-3.37,-3.3549,-3.3549,3.0092,3.0074,2.9582,2.9711,3.0143,3.0016,2.9903,3.002,3.0157,2.9039,2.8307,2.8051,2.7434,2.6227,2.5741,2.5619,2.5375,2.5635,2.5481,2.496,2.557,2.5587,2.4869,2.4147,2.3544,2.2812,2.0219,1.7803,1.5634,1.266,1.1351,1.0843,1.0717,1.0738,1.0758,1.0778,1.0002,0.8122,0.7598,0.7332,0.7197,0.7392,0.8856,1.0461,0.9914,0.9619,0.9908,1.0246,1.0735,1.0677,1.1012,1.1308,1.1477,1.1531,1.1619,1.1613,1.1613,1.164,1.1674,1.1667,1.1674,1.1681,1.1796,1.175,1.1851,1.1861,1.1867,1.1189,0.9853,0.5642,-0.0784,-0.4698,-0.8669,-1.2088,-1.4774,-1.6085,-1.6993,-1.8329,-2.0559,-2.1923,-2.314,-2.3692,-2.3212,-2.3052,-2.1883,-2.0996,-2.0996,-2.1168,-2.1651,-2.2316,-2.3596,-2.4087,-2.5384,-2.5568,-2.574,-2.6043,-2.7004,-2.8686,-2.9898,-3.2168,-3.4751,-3.6331,-3.7754,-3.8175,-3.8574,-3.8574,-3.8574,-3.8574,-3.7658,-3.6275,-3.5961,-3.5979,-3.5515,-3.5068,-3.5402,2.6847,2.6571,2.387,2.428,2.6624,2.6849,2.6936,2.6832,2.7073,2.6712,2.647,2.6349,2.6227,2.5619,2.4409,2.3325,2.2827,2.3311,2.3311,2.2702,2.3311,2.3559,2.2452,2.1825,2.1475,2.1082,1.9279,1.7485,1.5495,1.2604,1.0836,1.0717,1.0744,1.0792,1.1035,1.1219,1.0995,1.0073,0.9692,0.9566,0.9716,0.9883,0.9648,1.0556,0.8713,0.7152,0.7161,0.9068,0.9706,0.7127,0.9821,1.1194,1.1181,1.1181,1.1325,1.1626,1.1633,1.1681,1.1755,1.1796,1.1864,1.1959,1.1884,1.1965,1.1921,1.1714,1.1516,0.9382,0.5011,-0.1255,-0.9291,-0.8328,-0.8674,-1.1918,-1.468,-1.6616,-1.8452,-2.0422,-2.1805,-2.2682,-2.4764,-2.6525,-2.6039,-2.5962,-2.5962,-2.5688,-2.5845,-2.5688,-2.5872,-2.6397,-2.7393,-2.7264,-2.6977,-2.6689,-2.6228,-2.6531,-2.7305,-2.9604,-3.1115,-3.3095,-3.5366,-3.7198,-3.8263,-3.8428,-3.8574,-3.8574,-3.8574,-3.8574,-3.8263,-3.7492,-3.7658,-3.7805,-3.7364,-3.6812,-3.7462,2.342,2.3266,2.1684,2.2039,2.3305,2.3429,2.4495,2.5951,2.5984,2.5497,2.4901,2.4778,2.4163,2.3435,2.2702,2.1727,2.1601,2.1853,2.1853,2.1475,2.1853,2.1978,2.0982,2.0335,1.9914,1.9334,1.8052,1.6936,1.5674,1.2344,1.0925,1.0712,1.0766,1.0846,1.1043,1.1358,1.1399,1.1192,1.1206,1.1212,1.1226,1.1274,1.0492,0.855,0.8287,0.6713,0.3282,0.4016,0.5623,0.6346,0.9457,1.007,0.9329,0.8874,0.959,1.1208,1.1694,1.1755,1.1843,1.1904,1.1864,1.1925,1.2025,1.1967,1.1906,1.1683,0.9703,0.517,-0.1254,-0.8046,-1.2272,-1.0622,-1.1177,-1.2775,-1.4875,-1.6552,-1.8352,-2.1155,-2.2452,-2.3392,-2.6092,-2.7848,-2.8356,-2.871,-2.99,-3.036,-3.036,-3.0054,-2.9607,-2.9359,-2.9293,-2.7919,-2.6991,-2.6847,-2.6702,-2.7305,-2.8076,-3.0207,-3.2337,-3.4301,-3.6127,-3.7805,-3.8428,-3.8574,-3.8574,-3.8574,-3.8574,-3.8574,-3.8574,-3.8574,-3.8428,-3.8282,-3.8487,-3.875,-3.8965,2.1109,2.1096,2.1034,2.1078,2.1037,2.1108,2.2559,2.47,2.4885,2.4163,2.3201,2.3076,2.2341,2.1475,2.1222,2.1109,2.1109,2.1109,2.1109,2.1109,2.1235,2.1122,2.0795,1.9658,1.8724,1.8827,1.6583,1.5565,1.5111,1.3336,1.1789,1.1009,1.0829,1.104,1.1337,1.1497,1.1358,1.1392,1.1253,1.1253,1.1294,1.1114,0.9638,0.5946,0.8174,0.5822,0.116,-0.0,-0.0,0.4216,0.6704,0.8033,0.6261,0.5829,0.7593,1.0844,1.165,1.1857,1.1972,1.1904,1.1553,1.0387,1.1574,1.1952,1.0103,0.7804,0.3916,-0.1411,-0.6145,-1.1106,-1.2483,-1.2834,-1.2949,-1.3584,-1.5101,-1.6912,-1.8494,-2.0674,-2.3081,-2.5003,-2.7563,-2.9109,-2.9713,-3.1526,-3.2541,-3.2692,-3.2709,-3.1662,-3.1051,-2.9698,-2.8983,-2.7462,-2.6544,-2.6544,-2.7004,-2.8232,-2.9449,-3.1437,-3.3398,-3.5515,-3.6885,-3.8428,-3.8574,-3.8574,-3.8574,-3.8574,-3.8574,-3.8574,-3.8574,-3.8574,-3.8574,-3.8594,-3.8633,-3.8867,-3.916,2.1109,2.1109,2.1082,2.1069,2.1042,2.1128,2.1281,2.1699,2.1839,2.1601,2.1209,2.1348,2.1096,2.0969,2.0982,2.0982,2.1109,2.1109,2.1109,2.1109,2.1149,2.1283,2.1186,1.9516,1.8731,1.8262,1.5596,1.424,1.3959,1.4301,1.3489,1.1703,1.1331,1.1518,1.1502,1.1509,1.1578,1.1531,1.1552,1.1545,1.1552,1.1469,0.9446,0.6543,0.3639,-0.0,-0.0,-0.0,-0.0,0.0875,0.1604,0.321,0.4973,0.5753,0.8007,1.0558,1.1932,1.1986,1.2038,1.2126,1.1103,0.9459,0.9226,1.1641,0.7513,-0.0624,-0.6115,-0.5006,-0.7417,-0.955,-1.235,-1.2915,-1.3037,-1.3937,-1.5147,-1.6973,-1.8703,-2.0867,-2.33,-2.4736,-2.6936,-2.9419,-3.1115,-3.323,-3.505,-3.5199,-3.4751,-3.3398,-3.1879,-2.9898,-2.8671,-2.7004,-2.6386,-2.64,-2.7004,-2.8232,-2.9759,-3.1896,-3.4151,-3.5961,-3.7032,-3.797,-3.8574,-3.8574,-3.8574,-3.8574,-3.8574,-3.8574,-3.8574,-3.8574,-3.8574,-3.8574,-3.8574,-3.8926,-3.9375,2.1109,2.1109,2.1109,2.1109,2.1109,2.1109,2.0462,1.9801,1.9674,1.9024,1.8244,1.8116,1.864,1.9419,1.9674,2.0195,2.0843,2.1109,2.1109,2.1176,2.1269,2.143,2.1162,1.9854,1.8986,1.7391,1.5412,1.3571,1.3169,1.2866,1.2271,1.1587,1.1516,1.1598,1.1646,1.166,1.1558,1.1599,1.1613,1.1626,1.1647,1.1529,1.0819,0.876,0.3207,-0.0,-0.0,-0.0,-0.0,-0.0,0.3356,0.4689,0.324,0.2519,0.3574,0.4853,0.9737,1.1782,1.2179,1.1965,1.0463,0.7037,0.376,-0.2507,-0.3445,-0.7056,-1.1979,-1.0052,-0.9982,-1.1189,-1.2416,-1.3017,-1.3152,-1.3888,-1.5536,-1.6016,-1.8188,-2.1318,-2.346,-2.4882,-2.6148,-2.8501,-3.0515,-3.1879,-3.323,-3.3549,-3.3095,-3.2184,-3.0515,-2.853,-2.7449,-2.6689,-2.6386,-2.64,-2.7162,-2.8076,-2.8983,-3.113,-3.4001,-3.5664,-3.6423,-3.7345,-3.8117,-3.8574,-3.8574,-3.8574,-3.8574,-3.8574,-3.8574,-3.8574,-3.8574,-3.8574,-3.8633,-3.9277,-3.9766,2.1122,2.1022,1.9308,1.8927,1.9801,1.9522,1.8744,1.7988,1.815,1.7518,1.6462,1.5923,1.6281,1.7451,1.8244,1.9571,2.1036,2.1122,2.1176,2.1424,2.1443,2.163,2.1293,2.0269,1.8552,1.6847,1.519,1.3444,1.2087,1.1653,1.1592,1.1308,1.1525,1.1592,1.1606,1.1606,1.1613,1.1613,1.1626,1.164,1.1653,1.1549,1.1569,0.9216,0.4962,0.0875,0.2625,-0.0,-0.0,-0.0,0.6158,0.6933,0.4914,0.2248,-0.0,-0.0,0.5698,0.6183,0.5887,0.5758,0.7842,0.3445,-0.1252,-0.8489,-1.1017,-1.2447,-1.246,-1.1998,-1.2285,-1.2569,-1.3024,-1.3152,-1.3746,-1.4803,-1.6303,-1.5926,-1.67,-2.1296,-2.4271,-2.5225,-2.6346,-2.6819,-2.8686,-2.9913,-3.0823,-3.159,-3.1284,-3.0669,-2.9293,-2.7462,-2.7004,-2.6386,-2.6386,-2.6386,-2.6847,-2.7762,-2.8686,-3.0207,-3.3079,-3.505,-3.5664,-3.7032,-3.8428,-3.8574,-3.8428,-3.8574,-3.8574,-3.8574,-3.8574,-3.8574,-3.8574,-3.8574,-3.8789,-3.9453,-3.9946,2.1062,2.0618,1.4217,1.3465,1.6162,1.5058,1.5336,1.6193,1.7196,1.7087,1.5864,1.5135,1.3639,1.4957,1.6797,1.8816,2.1041,2.1049,2.1296,2.1585,2.1733,2.1884,2.1593,2.0429,1.8787,1.7027,1.5211,1.3405,1.2036,1.1592,1.1586,1.1613,1.1606,1.1613,1.1619,1.1619,1.1619,1.1619,1.1633,1.1208,1.1227,1.126,1.1292,0.9512,0.4962,0.3209,1.0105,0.9809,0.8513,0.6044,0.7378,0.925,0.8145,0.4555,-0.0,-0.0,-0.0,-0.0,-0.3747,-0.2651,-0.3593,-0.7056,-0.9266,-0.9729,-1.2096,-1.2562,-1.2603,-1.2705,-1.2827,-1.2983,-1.3132,-1.3446,-1.4009,-1.5647,-1.7121,-1.8207,-1.9473,-2.291,-2.5568,-2.6056,-2.6373,-2.6847,-2.7004,-2.8232,-2.8842,-2.9449,-2.9604,-2.8983,-2.8232,-2.6702,-2.6702,-2.6386,-2.6386,-2.6386,-2.6689,-2.7305,-2.8218,-2.9434,-3.1558,-3.3381,-3.4733,-3.6275,-3.7198,-3.7951,-3.7805,-3.8117,-3.8574,-3.8574,-3.8574,-3.8574,-3.8594,-3.8672,-3.8689,-3.914,-3.9797,2.1083,2.0371,1.3613,1.1431,1.2896,1.453,1.5135,1.4941,1.524,1.3227,0.9871,0.8508,0.9282,1.1665,1.3257,1.6581,2.04,2.0077,2.0825,2.1683,2.2055,2.2205,2.1758,2.0661,1.8988,1.7097,1.5283,1.3452,1.1756,1.1619,1.1619,1.1619,1.1619,1.1619,1.1619,1.1619,1.1619,1.1626,1.1345,1.0775,0.8729,1.0233,0.9367,0.4085,0.8629,0.8043,1.1147,1.1431,1.0754,1.0075,0.9645,1.0685,1.1776,0.8301,0.4783,0.0775,-0.0,-0.0,-1.056,-0.9276,-0.9745,-1.0531,-1.0993,-1.0808,-1.2387,-1.2542,-1.2603,-1.2718,-1.2881,-1.3037,-1.3166,-1.3466,-1.421,-1.6147,-1.791,-1.9644,-2.1916,-2.4882,-2.6056,-2.6228,-2.6386,-2.6544,-2.6544,-2.6544,-2.7004,-2.7462,-2.7462,-2.7305,-2.686,-2.6228,-2.607,-2.574,-2.574,-2.5581,-2.5727,-2.6504,-2.7449,-2.8827,-3.0037,-3.1558,-3.2927,-3.3549,-3.4469,-3.5682,-3.7051,-3.7383,-3.7843,-3.8428,-3.8574,-3.8574,-3.8691,-3.8828,-3.8812,-3.8728,-3.8817,1.9528,1.8804,1.3193,1.0719,1.1091,1.3274,1.3875,1.2848,1.0551,0.6394,0.0802,0.1735,0.4126,0.7176,1.0359,1.28,1.7,1.858,2.0379,2.1569,2.2391,2.2458,2.1901,2.0772,1.9055,1.7107,1.5283,1.3452,1.1619,1.1619,1.1619,1.1619,1.1619,1.1619,1.1619,1.1619,1.1626,1.1633,1.1358,1.0643,0.8449,0.4506,0.4956,0.0437,0.4665,0.8649,1.0596,1.1816,1.1891,1.1689,1.1762,1.2012,1.2318,1.1497,0.8402,0.3432,-0.2195,-0.6448,-1.0565,-1.246,-1.2447,-1.2407,-1.2393,-1.2218,-1.2535,-1.2556,-1.2664,-1.2807,-1.2942,-1.3078,-1.3377,-1.3995,-1.5514,-1.7774,-1.9199,-2.0772,-2.2898,-2.5371,-2.5885,-2.6386,-2.64,-2.64,-2.64,-2.64,-2.6544,-2.6847,-2.6847,-2.6847,-2.6702,-2.6056,-2.5568,-2.5238,-2.4748,-2.4589,-2.443,-2.5066,-2.5529,-2.6319,-2.7692,-2.9434,-3.0654,-3.1284,-3.2353,-3.4001,-3.5235,-3.6182,-3.7201,-3.7944,-3.8437,-3.8594,-3.8662,-3.8806,-3.8292,-3.8013,-3.7355,1.6004,1.5541,1.2127,1.067,1.0704,1.0738,1.1017,1.0066,0.347,-0.2944,-0.7541,-0.3216,0.0134,0.214,0.696,1.0352,1.2994,1.6542,1.9483,2.1289,2.1365,2.2062,2.162,2.019,1.8089,1.6967,1.5,1.3031,1.1619,1.1619,1.1619,1.1626,1.1633,1.1626,1.1619,1.1619,1.1633,1.1358,1.0945,0.9925,0.6986,-0.1886,-0.4364,-0.2484,-0.0291,0.3502,0.8136,1.0098,1.0637,1.2018,1.2216,1.2311,1.2447,1.2528,1.0025,0.5942,-0.4709,-1.0258,-1.2161,-1.2427,-1.2549,-1.2522,-1.2522,-1.2528,-1.2542,-1.263,-1.2779,-1.2929,-1.3064,-1.3214,-1.3967,-1.5177,-1.7138,-1.8741,-2.0159,-2.1916,-2.4038,-2.5529,-2.6056,-2.64,-2.64,-2.64,-2.64,-2.64,-2.64,-2.6386,-2.6386,-2.64,-2.64,-2.6056,-2.5555,-2.405,-2.3413,-2.298,-2.282,-2.314,-2.362,-2.4405,-2.5674,-2.7577,-2.9027,-2.9989,-3.1194,-3.2538,-3.3905,-3.5344,-3.6659,-3.7821,-3.7932,-3.8101,-3.8605,-3.8593,-3.7902,-3.6745,-3.5686,1.25,1.239,1.1157,1.0758,1.0778,1.0652,1.0665,0.8617,-0.1205,-0.8655,-1.0245,-0.7767,-0.4098,-0.0547,0.2468,0.6305,1.0587,1.1956,1.5468,1.8765,1.9152,1.8988,1.8648,1.7809,1.6263,1.5,1.3595,1.2466,1.1619,1.1619,1.1633,1.164,0.9735,1.166,1.1653,1.1214,1.0342,0.6809,0.4924,0.3477,0.2604,-0.6076,-1.0806,-0.7948,-0.6574,-0.2343,0.3272,0.4766,0.769,1.0726,1.1225,1.1913,1.2333,1.2562,1.067,0.657,-0.1877,-0.5329,-0.8154,-1.0342,-1.238,-1.2522,-1.2522,-1.2562,-1.2644,-1.2691,-1.2854,-1.303,-1.3139,-1.3268,-1.3679,-1.5342,-1.7293,-1.9066,-2.0653,-2.2727,-2.4527,-2.5542,-2.64,-2.64,-2.64,-2.6544,-2.6702,-2.6386,-2.64,-2.64,-2.64,-2.64,-2.64,-2.5885,-2.5371,-2.3046,-2.1745,-2.1329,-2.12,-2.12,-2.22,-2.3187,-2.4614,-2.6675,-2.7819,-2.8904,-2.9591,-3.0575,-3.2602,-3.4659,-3.6147,-3.7343,-3.7454,-3.7662,-3.7393,-3.6796,-3.5748,-3.4321,-3.2912,1.0672,1.0672,1.0678,1.0685,1.0685,1.0685,0.946,0.5245,-0.5376,-1.0894,-1.0866,-1.062,-0.8586,-0.4316,-0.0838,0.1541,0.7261,1.0404,1.1924,1.5477,1.6877,1.7679,1.7288,1.5434,1.5159,1.403,1.2753,1.1619,1.1619,1.1626,0.9718,0.7094,0.5216,0.5493,0.6501,0.7073,0.3756,0.0289,-0.1592,-0.506,-0.8544,-1.3866,-1.7047,-1.6365,-1.397,-0.9097,-0.5793,-0.2098,0.2115,0.6419,0.8942,1.0389,1.1405,1.1927,1.0993,0.7838,-0.0312,-0.4068,-0.7197,-1.0403,-1.2304,-1.2596,-1.2583,-1.2657,-1.2786,-1.2874,-1.2983,-1.3119,-1.337,-1.3938,-1.4676,-1.6483,-1.8426,-2.0351,-2.2293,-2.4221,-2.5028,-2.6215,-2.7388,-2.7374,-2.7175,-2.7162,-2.7004,-2.6544,-2.64,-2.64,-2.64,-2.64,-2.6228,-2.5727,-2.438,-2.1574,-1.9634,-1.8894,-1.877,-1.9085,-2.0099,-2.1794,-2.3579,-2.5353,-2.6894,-2.8033,-2.8368,-2.9022,-3.1795,-3.4155,-3.6093,-3.703,-3.6532,-3.5711,-3.4668,-3.4078,-3.3177,-3.2002,-3.0881,1.0264,1.0404,1.0417,1.0021,1.0155,0.96,0.6195,-0.0134,-0.7004,-1.0084,-1.0346,-1.0385,-1.0064,-0.8879,-0.3229,-0.0,0.1704,0.7508,1.0414,1.2634,1.4849,1.6481,1.6481,1.4884,1.3888,1.3634,1.2926,1.1619,1.1626,1.1653,0.7977,0.1155,-0.5358,-0.3313,-0.086,-0.1998,-0.6033,-0.9247,-0.9976,-1.365,-1.8011,-2.1734,-2.3274,-2.2691,-1.978,-1.6267,-1.328,-1.0243,-0.5316,-0.0919,0.2474,0.6696,0.9719,1.1823,1.1985,0.769,-0.4068,-0.6736,-0.8471,-1.1547,-1.2889,-1.3512,-1.3533,-1.331,-1.2935,-1.3044,-1.3443,-1.3853,-1.4266,-1.5287,-1.6483,-1.8598,-2.0705,-2.2648,-2.4589,-2.5727,-2.6043,-2.7203,-2.8532,-2.8831,-2.8588,-2.8403,-2.7762,-2.7305,-2.64,-2.64,-2.64,-2.64,-2.607,-2.5251,-2.3253,-1.9463,-1.7711,-1.6311,-1.6328,-1.7138,-1.8201,-1.9915,-2.1959,-2.3631,-2.5351,-2.6888,-2.7241,-2.8529,-3.1425,-3.3635,-3.5502,-3.5742,-3.5291,-3.4083,-3.2391,-3.0733,-2.9864,-3.0073,-2.9063,0.3094,0.3094,0.3096,0.3096,0.3096,-0.0,0.1747,-0.0402,-0.2551,-0.4349,-0.7091,-0.9654,-1.0058,-1.0568,-0.0,-0.0,-0.0,0.2739,0.7081,1.0,1.233,1.3236,1.2798,1.1743,1.1319,1.2058,1.2065,1.1626,1.1653,1.1543,1.1253,0.6974,-1.0029,-1.0562,-1.1213,-1.3459,-1.7389,-1.973,-1.8801,-2.0934,-2.3399,-2.5567,-2.6417,-2.5116,-2.3861,-2.0799,-1.8453,-1.5789,-1.0932,-0.6469,-0.3252,0.0311,0.2948,0.3572,0.3418,0.2959,-0.4057,-0.8462,-1.0832,-1.3923,-1.5631,-1.5714,-1.6432,-1.5425,-1.4393,-1.3803,-1.4356,-1.5077,-1.5779,-1.6957,-1.8904,-2.1168,-2.2625,-2.4246,-2.5872,-2.6531,-2.7004,-2.7976,-2.9301,-2.9256,-2.9012,-2.87,-2.8218,-2.7148,-2.64,-2.64,-2.64,-2.64,-2.574,-2.4761,-2.2785,-1.8836,-1.6751,-1.5671,-1.5193,-1.5679,-1.6766,-1.8018,-2.024,-2.2355,-2.4246,-2.5587,-2.6173,-2.7865,-3.0647,-3.292,-3.4792,-3.444,-3.2811,-3.1182,-2.9494,-2.7848,-2.6694,-2.685,-2.633,-0.0,-0.0,-0.0,-0.0,-0.0,-0.0,-0.0,-0.0,-0.0,-0.1363,-0.3351,-0.5328,-0.6701,-0.6108,-0.0,-0.0,-0.0,-0.0,0.2902,0.5225,0.9184,1.051,1.0064,0.9457,0.974,1.0768,1.1647,1.1633,1.1372,1.1108,1.0831,0.4496,-1.2979,-1.5864,-1.6188,-1.783,-2.2994,-2.5143,-2.6129,-2.6239,-2.6843,-2.7664,-2.7382,-2.7019,-2.6171,-2.3971,-2.187,-1.9046,-1.5201,-1.1625,-0.9021,-0.7937,-0.6663,-0.7427,-0.7415,-0.8207,-1.0714,-1.4045,-1.5812,-1.6796,-1.7566,-1.8031,-1.9026,-1.8219,-1.7288,-1.6674,-1.7051,-1.7593,-1.8091,-1.9076,-2.1318,-2.356,-2.4527,-2.5661,-2.6477,-2.7148,-2.7947,-2.8744,-2.9042,-2.9168,-2.8997,-2.8686,-2.8076,-2.7004,-2.64,-2.64,-2.64,-2.64,-2.5251,-2.3472,-2.1823,-1.9018,-1.694,-1.5514,-1.5201,-1.5081,-1.6194,-1.7636,-1.9551,-2.1691,-2.3424,-2.5465,-2.7109,-2.8495,-2.9835,-3.1586,-3.278,-3.1287,-2.9827,-2.8184,-2.633,-2.4291,-2.3276,-2.3265,-2.2407,-0.0,-0.0,-0.0,-0.0,-0.0,-0.0,-0.0,-0.0,-0.0,-0.0,-0.0,-0.0,-0.0,-0.0,-0.0,-0.0,-0.0,-0.0,-0.0,-0.0,0.6402,0.9195,1.0378,0.9463,1.0041,1.1076,1.1365,1.1044,1.063,0.9039,0.4944,-0.1158,-1.1736,-1.671,-1.7188,-1.896,-2.2484,-2.4722,-2.5848,-2.6158,-2.9666,-3.0932,-3.0718,-3.0634,-2.8361,-2.5514,-2.3273,-2.0635,-1.7692,-1.5906,-1.44,-1.3789,-1.5975,-1.7273,-1.7398,-1.7986,-1.827,-1.9197,-2.0081,-2.0791,-2.067,-2.0732,-2.057,-2.1827,-2.218,-1.9936,-1.9816,-2.1103,-2.1756,-2.3647,-2.6042,-2.684,-2.765,-2.7848,-2.8047,-2.7762,-2.7319,-2.8573,-3.0129,-3.0083,-2.9913,-2.9449,-2.7762,-2.6847,-2.6386,-2.64,-2.64,-2.64,-2.5409,-2.33,-2.0986,-1.9027,-1.8155,-1.6567,-1.5451,-1.5513,-1.6133,-1.7406,-1.9519,-2.1579,-2.3879,-2.6242,-2.8755,-2.9216,-2.9327,-2.9299,-2.9632,-2.8325,-2.698,-2.4961,-2.3104,-2.0692,-2.0009,-2.0702,-2.0009,-0.4973,-0.0,-0.0,-0.0,-0.0,-0.0,-0.0,-0.0,-0.0,-0.0,-0.0,-0.0,-0.0,-0.0,-0.0,-0.0,-0.0,-0.0,-0.0,-0.0,0.6853,0.9646,1.1286,1.0787,1.0925,1.1358,1.1201,0.9579,0.7259,0.4066,-0.087,-0.828,-1.5274,-1.7218,-1.75,-1.9273,-2.1114,-2.2679,-2.3067,-2.4432,-2.735,-2.7998,-2.7855,-2.6532,-2.409,-2.3125,-2.09,-1.8683,-1.6761,-1.5259,-1.3583,-1.5341,-1.949,-2.0469,-2.0785,-2.1061,-2.2965,-2.3702,-2.4556,-2.5323,-2.5923,-2.6805,-2.7449,-2.8857,-2.823,-2.4414,-2.3147,-2.4585,-2.6172,-2.8216,-2.9792,-3.0284,-3.0469,-3.0037,-2.9604,-2.8218,-2.7004,-2.9042,-3.1055,-3.1024,-3.0977,-2.9634,-2.7947,-2.7045,-2.6544,-2.64,-2.64,-2.6228,-2.574,-2.4099,-2.0943,-1.9341,-1.9385,-1.8312,-1.6859,-1.6426,-1.738,-1.8557,-2.0716,-2.249,-2.4473,-2.655,-2.8628,-2.846,-2.8601,-2.7848,-2.6968,-2.6004,-2.4326,-2.2256,-2.0529,-1.8627,-1.9324,-2.0009,-1.8976,-0.8365,-0.4428,-0.0,-0.0,-0.0,-0.0,-0.0,-0.0,-0.0,-0.0,-0.0,-0.0,0.1708,0.4366,0.5107,0.2333,-0.0,-0.0,-0.0,-0.0,0.8188,1.0541,1.1563,1.1536,1.1516,1.1358,0.8693,0.6221,0.3041,0.1014,-0.3767,-1.2661,-1.6519,-1.7621,-1.8096,-1.9307,-1.9712,-1.9227,-1.9748,-2.1049,-2.3344,-2.4022,-2.5263,-2.3793,-2.1841,-2.053,-1.9714,-1.7626,-1.6221,-1.5582,-1.4645,-1.9432,-2.3192,-2.4676,-2.5299,-2.6488,-2.7875,-2.8397,-2.9421,-3.0541,-3.1521,-3.1986,-3.2341,-3.2877,-3.1695,-2.8497,-2.8637,-2.9931,-2.9483,-3.1067,-3.2574,-3.3364,-3.232,-3.1727,-3.1284,-3.0515,-3.1055,-3.284,-3.3095,-3.1912,-3.1379,-3.0187,-2.8547,-2.7148,-2.6787,-2.6627,-2.6587,-2.6453,-2.5951,-2.5422,-2.2225,-1.9977,-2.0364,-2.0005,-1.8881,-1.8643,-1.9108,-2.0487,-2.2097,-2.3936,-2.5992,-2.7253,-2.8136,-2.7772,-2.6889,-2.5289,-2.4268,-2.3287,-2.1911,-1.9836,-1.8279,-1.6904,-1.8113,-2.0009,-2.0356,-1.0143,-0.9728,-0.4026,-0.0,-0.0,-0.0,-0.0,-0.0,-0.0,-0.0,-0.0,-0.0,-0.0,0.8126,1.1299,0.6566,-0.0,-0.0,-0.0,0.7302,1.0402,1.1431,1.1556,1.1523,1.1057,0.84,0.4904,0.1873,-0.1299,-0.3317,-0.7773,-1.5666,-1.7834,-1.8325,-1.8887,-1.9223,-1.8932,-1.7824,-1.7448,-1.6796,-1.8351,-1.9887,-2.0759,-2.048,-1.9139,-1.7204,-1.6961,-1.6507,-1.4756,-1.5778,-1.6456,-2.2481,-2.669,-2.864,-3.0385,-3.1635,-3.3239,-3.4486,-3.5646,-3.6465,-3.6143,-3.5821,-3.5903,-3.5244,-3.4346,-3.3816,-3.3966,-3.3833,-3.3247,-3.3549,-3.5068,-3.5068,-3.3868,-3.2657,-3.2353,-3.2048,-3.3702,-3.5202,-3.4156,-3.2657,-3.166,-3.0652,-2.879,-2.7405,-2.6905,-2.6746,-2.66,-2.664,-2.6361,-2.6122,-2.4564,-2.2648,-2.2162,-2.1622,-2.092,-2.0765,-2.1107,-2.3011,-2.4794,-2.6242,-2.7343,-2.7928,-2.7786,-2.6732,-2.5495,-2.3369,-2.1849,-2.0702,-1.915,-1.7763,-1.7588,-1.7247,-1.915,-2.0875,-2.2955,-0.8061,-1.0498,-0.9128,-0.5492,-0.0,-0.0,-0.0,-0.0,-0.0,-0.0,-0.0,-0.0,0.1423,0.2625,0.9248,0.9243,0.7606,0.3646,0.0729,0.2188,0.906,1.0976,1.1549,1.1523,0.9568,0.5329,0.0143,-0.4159,-0.7153,-0.8997,-1.2165,-1.866,-2.1114,-2.0332,-1.7731,-1.7834,-1.7478,-1.6306,-1.4279,-1.3094,-1.101,-1.1676,-1.1676,-1.0898,-0.9046,-0.8594,-0.8915,-0.9687,-0.8896,-1.1029,-1.7284,-2.4232,-2.9152,-3.2333,-3.3991,-3.5933,-3.7687,-3.9235,-4.0345,-4.0978,-4.0479,-3.9646,-3.9412,-3.87,-3.7808,-3.6901,-3.6938,-3.6571,-3.6275,-3.6275,-3.6885,-3.5515,-3.4301,-3.2337,-3.1284,-3.159,-3.2419,-3.3802,-3.4203,-3.3078,-3.2065,-3.0212,-2.7685,-2.673,-2.6182,-2.604,-2.6073,-2.5957,-2.6439,-2.6454,-2.6136,-2.4924,-2.356,-2.375,-2.3127,-2.2999,-2.337,-2.5469,-2.6825,-2.7369,-2.7746,-2.7941,-2.7604,-2.6223,-2.3551,-2.0908,-1.9578,-1.8627,-1.7247,-1.6386,-1.7413,-1.8104,-2.0009,-2.2084,-2.3984]},{"header":{"parameterUnit":"m.s-1","parameterCategory":1,"la1":31.0,"la2":29.5877,"lo1":-88.7671,"lo2":-86.6584,"dy":0.0162,"dx":0.0185,"nx":115,"ny":88,"refTime":"2024-07-09T06:00:00:Z","depth":0,"parameterNumber":3,"parameterNumberName":"V-component_of_WINDS"},"data":[0.0,0.0,0.0,0.0,0.0,0.0,0.0,0.0,0.0,0.0,0.0,0.0,0.0,0.0,0.0,0.0,0.0,0.0,0.0,0.0,0.0,0.0,0.0,0.0,0.0,0.0,0.0,0.0,0.0,0.0,0.0,0.0,0.0,0.0,0.0,0.0,0.0,0.0,0.0,0.0,0.0,0.0,0.0,0.0,0.0,0.0,0.0,0.0,0.0,0.0,0.0,0.0,0.0,0.0,0.0,0.0,0.0,0.0,0.0,0.0,0.0,0.0,0.0,0.0,0.0,0.0,0.0,0.0,0.0,0.0,0.0,0.0,0.0,0.0,0.0,0.0,0.0,0.0,0.0,0.0,0.0,0.0,0.0,0.0,0.0,0.0,0.0,0.0,0.0,0.0,0.0,0.0,0.0,0.0,0.0,0.0,0.0,0.0,0.0,0.0,0.0,0.0,0.0,0.0,0.0,0.0,0.0,0.0,0.0,0.0,0.0,0.0,0.0,0.0,0.0,0.0,0.0,0.0,0.0,0.0,0.0,0.0,0.0,0.0,0.0,0.0,0.0,0.0,0.0,0.0,0.0,0.0,0.0,0.0,0.0,0.0,0.0,0.0,0.0,0.0,0.0,0.0,0.0,0.0,0.0,0.0,0.0,0.0,0.0,0.0,0.0,0.0,0.0,0.0,0.0,0.0,0.0,0.0,0.0,0.0,0.0,0.0,0.0,0.0,0.0,0.0,0.0,0.0,0.0,0.0,0.0,0.0,0.0,0.0,0.0,0.0,0.0,0.0,0.0,0.0,0.0,0.0,0.0,0.0,0.0,0.0,0.0,0.0,0.0,0.0,0.0,0.0,0.0,0.0,0.0,0.0,0.0,0.0,0.0,0.0,0.0,0.0,0.0,0.0,0.0,0.0,0.0,0.0,0.0,0.0,0.0,0.0,0.0,0.0,0.0,0.0,0.0,0.0,0.0,0.0,0.0,0.0,0.0,0.0,0.0,0.0,0.0,0.0,0.0,0.0,0.0,0.0,0.0,0.0,0.0,0.0,0.0,0.0,0.0,0.0,0.0,0.0,0.0,0.0,0.0,0.0,0.0,0.0,0.0,0.0,0.0,0.0,0.0,0.0,0.0,0.0,0.0,0.0,0.0,0.0,0.0,0.0,0.0,0.0,0.0,0.0,0.0,0.0,0.0,0.0,0.0,0.0,0.0,0.0,0.0,0.0,0.0,0.0,0.0,0.0,0.0,0.0,0.0,0.0,0.0,0.0,0.0,0.0,0.0,0.0,0.0,0.0,0.0,0.0,0.0,0.0,0.0,0.0,0.0,0.0,0.0,0.0,0.0,0.0,0.0,0.0,0.0,0.0,0.0,0.0,0.0,0.0,0.0,0.0,0.0,0.0,0.0,0.0,0.0,0.0,0.0,0.0,0.0,0.0,0.0,0.0,0.0,0.0,0.0,0.0,0.0,0.0,0.0,0.0,0.0,0.0,0.0,0.0,0.0,0.0,0.0,0.0,0.0,0.0,0.0,0.0,0.0,0.0,0.0,0.0,0.0,0.0,0.0,0.0,0.0,0.0,0.0,0.0,0.0,0.0,0.0,0.0,0.0,0.0,0.0,0.0,0.0,0.0,0.0,0.0,0.0,0.0,0.0,0.0,0.0,0.0,0.0,0.0,0.0,0.0,0.0,0.0,0.0,0.0,0.0,0.0,0.0,0.0,0.0,0.0,0.0,0.0,0.0,0.0,0.0,0.0,0.0,0.0,0.0,0.0,0.0,0.0,0.0,0.0,0.0,0.0,0.0,0.0,0.0,0.0,0.0,0.0,0.0,0.0,0.0,0.0,0.0,0.0,0.0,0.0,0.0,0.0,0.0,0.0,0.0,0.0,0.0,0.0,0.0,0.0,0.0,0.0,0.0,0.0,0.0,0.0,0.0,0.0,0.0,0.0,0.0,0.0,0.0,0.0,0.0,0.0,0.0,0.0,0.0,0.0,0.0,0.0,0.0,0.0,0.0,0.0,0.0,0.0,0.0,0.0,0.0,0.0,0.0,0.0,0.0,0.0,0.0,0.0,0.0,0.0,0.0,0.0,0.0,0.0,0.0,0.0,0.0,0.0,0.0,0.0,0.0,0.0,0.0,0.0,0.0,0.0,0.0,0.0,0.0,0.0,0.0,0.0,0.0,0.0,0.0,0.0,0.0,0.0,0.0,0.0,0.0,0.0,0.0,0.0,0.0,0.0,0.0,0.0,0.0,0.0,0.0,0.0,0.0,0.0,0.0,0.0,0.0,0.0,0.0,0.0,0.0,0.0,0.0,0.0,0.0,0.0,0.0,0.0,0.0,0.0,0.0,0.0,0.0,0.0,0.0,0.0,0.0,0.0,0.0,0.0,0.0,0.0,0.0,0.0,0.0,0.0,0.0,0.0,0.0,0.0,0.0,0.0,0.0,0.0,0.0,0.0,0.0,0.0,0.0,0.0,0.0,0.0,0.0,0.0,0.0,0.0,0.0,0.0,0.0,0.0,0.0,0.0,0.0,0.0,0.0,0.0,0.0,0.0,0.0,0.0,0.0,0.0,0.0,0.0,0.0,0.0,0.0,0.0,0.0,0.0,0.0,0.0,0.0,0.0,0.0,0.0,0.0,0.0,0.0,0.0,0.0,0.0,0.0,0.0,0.0,0.0,0.0,0.0,0.0,0.0,0.0,0.0,0.0,0.0,0.0,0.0,0.0,0.0,0.0,0.0,0.0,0.0,0.0,0.0,0.0,0.0,0.0,0.0,0.0,0.0,0.0,0.0,0.0,0.0,0.0,0.0,0.0,0.0,0.0,0.0,0.0,0.0,0.0,0.0,0.0,0.0,0.0,0.0,0.0,0.0,0.0,0.0,0.0,0.0,0.0,0.0,0.0,0.0,0.0,0.0,0.0,0.0,0.0,0.0,0.0,0.0,0.0,0.0,0.0,0.0,0.0,0.0,0.0,0.0,0.0,0.0,0.0,0.0,0.0,0.0,0.0,0.0,0.0,0.0,0.0,0.0,0.0,0.0,0.0,0.0,0.0,0.0,0.0,0.0,0.0,0.0,0.0,0.0,0.0,0.0,0.0,0.0,0.0,0.0,0.0,0.0,0.0,0.0,0.0,0.0,0.0,0.0,0.0,0.0,0.0,0.0,0.0,0.0,0.0,0.0,0.0,0.0,0.0,0.0,0.0,0.0,0.0,0.0,0.0,0.0,0.0,0.0,0.0,0.0,0.0,0.0,0.0,0.0,0.0,0.0,0.0,0.0,0.0,0.0,0.0,0.0,0.0,0.0,0.0,0.0,0.0,0.0,0.0,0.0,0.0,0.0,0.0,0.0,0.0,0.0,0.0,0.0,0.0,0.0,0.0,0.0,0.0,0.0,0.0,0.0,0.0,0.0,0.0,0.0,0.0,0.0,0.0,0.0,0.0,0.0,0.0,0.0,0.0,0.0,0.0,0.0,0.0,0.0,0.0,0.0,0.0,0.0,0.0,0.0,0.0,0.0,0.0,0.0,0.0,0.0,0.0,0.0,0.0,0.0,0.0,0.0,0.0,0.0,0.0,0.0,0.0,0.0,0.0,0.0,0.0,0.0,0.0,0.0,0.0,0.0,0.0,0.0,0.0,0.0,0.0,0.0,0.0,0.0,0.0,0.0,0.0,0.0,0.0,0.0,0.0,0.0,0.0,0.0,0.0,0.0,0.0,0.0,0.0,0.0,0.0,0.0,0.0,0.0,0.0,0.0,0.0,0.0,0.0,0.0,0.0,0.0,0.0,0.0,0.0,0.0,0.0,0.0,0.0,0.0,0.0,0.0,0.0,0.0,0.0,0.0,0.0,0.0,0.0,0.0,0.0,0.0,0.0,0.0,0.0,0.0,0.0,0.0,0.0,0.0,0.0,0.0,0.0,0.0,0.0,0.0,0.0,0.0,0.0,0.0,0.0,0.0,0.0,0.0,0.0,0.0,0.0,0.0,0.0,0.0,0.0,0.0,0.0,0.0,0.0,0.0,0.0,0.0,0.0,0.0,0.0,0.0,0.0,0.0,0.0,0.0,0.0,0.0,0.0,0.0,0.0,0.0,0.0,0.0,0.0,0.0,0.0,0.0,0.0,0.0,0.0,0.0,0.0,0.0,0.0,0.0,0.0,0.0,0.0,0.0,0.0,0.0,0.0,0.0,0.0,0.0,0.0,0.0,0.0,0.0,0.0,0.0,0.0,0.0,0.0,0.0,0.0,0.0,0.0,0.0,0.0,0.0,-1.4828,0.0,0.0,0.0,0.0,0.0,0.0,0.0,0.0,0.0,0.0,0.0,0.0,0.0,0.0,0.0,0.0,0.0,0.0,0.0,0.0,0.0,0.0,0.0,0.0,0.0,0.0,0.0,0.0,0.0,0.0,0.0,0.0,0.0,0.0,0.0,0.0,0.0,0.0,0.0,0.0,0.0,0.0,0.0,0.0,0.0,0.0,0.0,0.0,0.0,0.0,0.0,0.0,0.0,0.0,0.0,0.0,0.0,0.0,0.0,0.0,0.0,0.0,0.0,0.0,0.0,0.0,0.0,0.0,0.0,0.0,0.0,0.0,0.0,0.0,0.0,0.0,0.0,0.0,0.0,0.0,0.0,0.0,0.0,0.0,0.0,0.0,0.0,0.0,0.0,0.0,0.0,0.0,0.0,0.0,0.0,0.0,0.0,0.0,0.0,0.0,0.0,0.0,0.0,0.0,0.0,0.0,0.0,0.0,0.0,0.0,-1.622,-1.6497,-1.5693,-1.5155,-1.4928,0.0,0.0,0.0,0.0,0.0,0.0,0.0,0.0,0.0,0.0,0.0,0.0,0.0,0.0,0.0,0.0,0.0,0.0,0.0,0.0,0.0,0.0,0.0,0.0,0.0,0.0,0.0,0.0,0.0,0.0,0.0,0.0,0.0,0.0,0.0,0.0,0.0,0.0,0.0,0.0,0.0,0.0,0.0,0.0,0.0,0.0,0.0,0.0,0.0,0.0,0.0,0.0,0.0,0.0,0.0,0.0,0.0,0.0,0.0,0.0,0.0,0.0,0.0,0.0,0.0,0.0,0.0,0.0,0.0,0.0,0.0,0.0,0.0,0.0,0.0,0.0,0.0,0.0,0.0,0.0,0.0,0.0,0.0,0.0,0.0,0.0,0.0,0.0,0.0,0.0,0.0,0.0,0.0,0.0,0.0,0.0,0.0,0.0,0.0,0.0,0.0,0.0,0.0,0.0,0.0,0.0,0.0,0.0,0.0,0.0,0.0,0.0,-1.5944,-1.5417,-1.5271,0.0,0.0,0.0,0.0,0.0,0.0,0.0,0.0,0.0,0.0,0.0,0.0,0.0,0.0,0.0,0.0,0.0,0.0,0.0,0.0,0.0,0.0,0.0,0.0,0.0,0.0,0.0,0.0,0.0,0.0,0.0,0.0,0.0,0.0,0.0,0.0,0.0,0.0,0.0,0.0,0.0,0.0,0.0,0.0,0.0,0.0,0.0,0.0,0.0,0.0,0.0,0.0,0.0,0.0,0.0,0.0,0.0,0.0,0.0,0.0,0.0,0.0,0.0,0.0,0.0,0.0,0.0,0.0,0.0,0.0,0.0,0.0,0.0,0.0,0.0,0.0,0.0,0.0,0.0,0.0,0.0,0.0,0.0,0.0,0.0,0.0,0.0,0.0,0.0,0.0,0.0,0.0,0.0,0.0,0.0,0.0,0.0,0.0,0.0,0.0,0.0,0.0,0.0,0.0,0.0,0.0,0.0,0.0,0.0,0.0,-1.6446,-1.7978,-1.7451,0.0,-1.6459,0.0,0.0,0.0,0.0,0.0,0.0,0.0,0.0,0.0,0.0,0.0,0.0,0.0,0.0,0.0,0.0,0.0,0.0,0.0,0.0,0.0,0.0,0.0,0.0,0.0,0.0,0.0,0.0,0.0,0.0,0.0,0.0,0.0,0.0,0.0,0.0,0.0,0.0,0.0,0.0,0.0,0.0,0.0,0.0,0.0,0.0,0.0,0.0,0.0,0.0,0.0,0.0,0.0,0.0,0.0,0.0,0.0,0.0,0.0,0.0,0.0,0.0,0.0,0.0,0.0,0.0,0.0,0.0,0.0,0.0,0.0,0.0,0.0,0.0,0.0,0.0,0.0,0.0,0.0,0.0,0.0,0.0,0.0,0.0,0.0,0.0,0.0,0.0,0.0,0.0,0.0,0.0,0.0,0.0,0.0,0.0,0.0,0.0,0.0,0.0,0.0,0.0,0.0,0.0,0.0,0.0,0.0,0.0,0.0,0.0,0.0,-1.7174,-1.6672,-1.6388,0.0,0.0,0.0,0.0,0.0,0.0,0.0,0.0,0.0,0.0,0.0,0.0,0.0,0.0,0.0,0.0,0.0,0.0,0.0,0.0,0.0,0.0,0.0,0.0,0.0,0.0,0.0,0.0,0.0,0.0,0.0,0.0,0.0,0.0,0.0,0.0,0.0,0.0,0.0,0.0,0.0,0.0,0.0,0.0,0.0,0.0,0.0,0.0,0.0,0.0,0.0,0.0,0.0,0.0,0.0,0.0,0.0,0.0,0.0,0.0,0.0,0.0,0.0,0.0,0.0,0.0,0.0,0.0,0.0,0.0,0.0,0.0,0.0,0.0,0.0,0.0,0.0,0.0,0.0,0.0,0.0,0.0,0.0,0.0,0.0,0.0,0.0,0.0,0.0,0.0,0.0,0.0,0.0,0.0,0.0,0.0,0.0,0.0,0.0,0.0,0.0,0.0,0.0,0.0,0.0,0.0,0.0,0.0,0.0,0.0,-1.5643,0.0,-1.6697,-1.6371,-1.615,-1.6049,0.0,0.0,0.0,0.0,0.0,0.0,0.0,0.0,0.0,0.0,0.0,0.0,0.0,0.0,0.0,0.0,0.0,0.0,0.0,0.0,0.0,0.0,0.0,0.0,0.0,0.0,0.0,0.0,0.0,0.0,0.0,0.0,0.0,0.0,0.0,0.0,0.0,0.0,0.0,0.0,0.0,0.0,0.0,0.0,0.0,0.0,0.0,0.0,0.0,0.0,0.0,0.0,0.0,0.0,0.0,0.0,0.0,0.0,0.0,0.0,0.0,0.0,0.0,0.0,0.0,0.0,0.0,0.0,0.0,0.0,0.0,0.0,0.0,0.0,0.0,0.0,0.0,0.0,0.0,0.0,0.0,0.0,0.0,0.0,0.0,0.0,0.0,0.0,0.0,0.0,0.0,0.0,0.0,0.0,0.0,0.0,0.0,0.0,0.0,0.0,0.0,0.0,0.0,0.0,0.0,0.0,0.0,0.0,0.0,-1.6195,-1.622,-1.7325,-1.7325,-1.6769,0.0,0.0,0.0,0.0,0.0,0.0,0.0,0.0,0.0,0.0,0.0,0.0,0.0,0.0,0.0,0.0,0.0,0.0,0.0,0.0,0.0,0.0,0.0,0.0,0.0,0.0,0.0,0.0,0.0,0.0,0.0,0.0,0.0,0.0,0.0,0.0,0.0,0.0,0.0,0.0,0.0,0.0,0.0,0.0,0.0,0.0,0.0,0.0,0.0,0.0,0.0,0.0,0.0,0.0,0.0,0.0,0.0,0.0,0.0,0.0,0.0,0.0,0.0,0.0,0.0,0.0,0.0,0.0,0.0,0.0,0.0,0.0,0.0,0.0,0.0,0.0,0.0,0.0,0.0,0.0,0.0,0.0,0.0,0.0,0.0,0.0,0.0,0.0,0.0,0.0,0.0,0.0,0.0,0.0,0.0,0.0,0.0,0.0,0.0,0.0,0.0,0.0,0.0,0.0,0.0,0.0,0.0,0.0,0.0,-1.4664,-1.5015,-1.622,-1.8279,-1.6722,-1.6186,0.0,0.0,0.0,0.0,0.0,0.0,0.0,0.0,0.0,0.0,0.0,0.0,0.0,0.0,0.0,0.0,0.0,0.0,0.0,0.0,0.0,0.0,0.0,0.0,0.0,0.0,0.0,0.0,0.0,0.0,0.0,0.0,0.0,0.0,0.0,0.0,0.0,0.0,0.0,0.0,0.0,0.0,0.0,0.0,0.0,0.0,0.0,0.0,0.0,0.0,0.0,0.0,0.0,0.0,0.0,0.0,0.0,0.0,0.0,0.0,0.0,0.0,0.0,0.0,0.0,0.0,0.0,0.0,0.0,0.0,0.0,0.0,0.0,0.0,0.0,0.0,0.0,0.0,0.0,0.0,0.0,0.0,0.0,0.0,0.0,0.0,0.0,0.0,0.0,0.0,0.0,0.0,0.0,0.0,0.0,0.0,0.0,0.0,0.0,0.0,0.0,0.0,0.0,0.0,0.0,0.0,0.0,0.0,0.0,-1.4509,0.0,-1.6773,0.0,-1.6497,-1.5905,0.0,0.0,0.0,0.0,0.0,0.0,0.0,0.0,0.0,0.0,0.0,0.0,0.0,0.0,0.0,0.0,0.0,0.0,0.0,0.0,0.0,0.0,0.0,0.0,0.0,0.0,0.0,0.0,0.0,0.0,0.0,0.0,0.0,0.0,0.0,0.0,0.0,0.0,0.0,0.0,0.0,0.0,0.0,0.0,0.0,0.0,0.0,0.0,0.0,0.0,0.0,0.0,0.0,0.0,0.0,0.0,0.0,0.0,0.0,0.0,0.0,0.0,0.0,0.0,0.0,0.0,0.0,0.0,0.0,0.0,0.0,0.0,0.0,0.0,0.0,0.0,0.0,0.0,0.0,0.0,0.0,0.0,0.0,0.0,0.0,0.0,0.0,0.0,0.0,0.0,0.0,0.0,0.0,0.0,0.0,0.0,0.0,0.0,0.0,0.0,0.0,0.0,0.0,0.0,0.0,0.0,0.0,0.0,-1.5397,-1.7094,-1.7778,-1.7903,-1.7451,-1.6823,-1.6123,0.0,0.0,0.0,0.0,0.0,0.0,0.0,0.0,0.0,0.0,0.0,0.0,0.0,0.0,0.0,0.0,0.0,0.0,0.0,0.0,0.0,0.0,0.0,0.0,0.0,0.0,0.0,0.0,0.0,0.0,0.0,0.0,0.0,0.0,0.0,0.0,0.0,0.0,0.0,0.0,0.0,0.0,0.0,0.0,0.0,0.0,0.0,0.0,0.0,0.0,0.0,0.0,0.0,0.0,0.0,0.0,0.0,0.0,0.0,0.0,0.0,0.0,0.0,0.0,0.0,0.0,0.0,0.0,0.0,0.0,0.0,0.0,0.0,0.0,0.0,0.0,0.0,0.0,0.0,0.0,0.0,0.0,0.0,0.0,0.0,0.0,0.0,0.0,0.0,0.0,0.0,0.0,0.0,0.0,0.0,0.0,0.0,0.0,0.0,0.0,0.0,0.0,0.0,0.0,0.0,0.0,0.0,0.0,0.0,-1.6735,-1.7339,-1.8279,-1.951,-1.725,-1.686,0.0,0.0,0.0,0.0,0.0,0.0,0.0,0.0,0.0,0.0,0.0,0.0,0.0,0.0,0.0,0.0,0.0,0.0,0.0,0.0,0.0,0.0,0.0,0.0,0.0,0.0,0.0,0.0,0.0,0.0,0.0,0.0,0.0,0.0,0.0,0.0,0.0,0.0,0.0,0.0,0.0,0.0,0.0,0.0,0.0,0.0,0.0,0.0,0.0,0.0,0.0,0.0,0.0,0.0,0.0,0.0,0.0,0.0,0.0,0.0,0.0,0.0,0.0,0.0,0.0,0.0,0.0,0.0,0.0,0.0,0.0,0.0,0.0,0.0,0.0,0.0,0.0,0.0,0.0,0.0,0.0,0.0,0.0,0.0,0.0,0.0,0.0,0.0,0.0,0.0,0.0,0.0,0.0,0.0,0.0,0.0,0.0,0.0,0.0,0.0,0.0,0.0,0.0,0.0,0.0,0.0,0.0,0.0,0.0,-1.8453,-1.8932,-1.966,-2.0693,-1.8229,-1.7676,-1.9066,0.0,0.0,0.0,0.0,0.0,0.0,0.0,0.0,0.0,0.0,0.0,0.0,0.0,0.0,0.0,0.0,0.0,0.0,0.0,0.0,0.0,0.0,0.0,0.0,0.0,0.0,0.0,0.0,0.0,0.0,0.0,0.0,0.0,0.0,0.0,0.0,0.0,0.0,0.0,0.0,0.0,0.0,0.0,0.0,0.0,0.0,0.0,0.0,0.0,0.0,0.0,0.0,0.0,0.0,0.0,0.0,0.0,0.0,0.0,0.0,0.0,0.0,0.0,0.0,0.0,0.0,0.0,0.0,0.0,0.0,0.0,0.0,0.0,0.0,0.0,0.0,0.0,0.0,0.0,0.0,0.0,0.0,0.0,0.0,0.0,0.0,0.0,0.0,0.0,0.0,0.0,0.0,0.0,0.0,0.0,0.0,0.0,0.0,0.0,0.0,0.0,0.0,0.0,0.0,0.0,0.0,0.0,0.0,-2.1625,-2.2221,-2.2046,-2.1071,-1.9811,-1.8595,0.0,0.0,0.0,0.0,0.0,0.0,0.0,0.0,0.0,0.0,0.0,0.0,0.0,0.0,0.0,0.0,0.0,0.0,0.0,0.0,0.0,0.0,0.0,0.0,0.0,0.0,0.0,0.0,0.0,0.0,0.0,0.0,0.0,0.0,0.0,0.0,0.0,0.0,0.0,0.0,0.0,0.0,0.0,0.0,0.0,0.0,0.0,0.0,0.0,0.0,0.0,0.0,0.0,0.0,0.0,0.0,0.0,0.0,0.0,0.0,0.0,0.0,0.0,0.0,0.0,0.0,0.0,0.0,0.0,0.0,0.0,0.0,0.0,0.0,0.0,0.0,0.0,0.0,0.0,0.0,0.0,0.0,0.0,0.0,0.0,0.0,0.0,0.0,0.0,0.0,0.0,0.0,0.0,0.0,0.0,0.0,0.0,0.0,0.0,0.0,0.0,0.0,0.0,0.0,0.0,0.0,0.0,0.0,0.0,-2.2732,-2.4456,-2.5034,-2.428,-2.2046,-2.1093,0.0,0.0,0.0,0.0,0.0,0.0,0.0,0.0,0.0,0.0,0.0,0.0,0.0,0.0,0.0,0.0,0.0,0.0,0.0,0.0,0.0,0.0,0.0,0.0,0.0,0.0,0.0,0.0,0.0,0.0,0.0,0.0,0.0,0.0,0.0,0.0,0.0,0.0,0.0,0.0,0.0,0.0,0.0,0.0,0.0,0.0,0.0,0.0,0.0,0.0,0.0,0.0,0.0,0.0,0.0,0.0,0.0,0.0,0.0,0.0,0.0,0.0,0.0,0.0,0.0,0.0,0.0,0.0,0.0,0.0,0.0,0.0,0.0,0.0,0.0,0.0,0.0,0.0,0.0,0.0,0.0,0.0,0.0,0.0,0.0,0.0,0.0,0.0,0.0,0.0,0.0,0.0,0.0,0.0,0.0,0.0,0.0,0.0,0.0,0.0,0.0,0.0,0.0,0.0,0.0,0.0,0.0,0.0,-2.3495,-2.4602,-2.6544,-2.7344,-2.6992,-2.4556,-2.2828,0.0,0.0,0.0,0.0,0.0,0.0,0.0,0.0,0.0,0.0,0.0,0.0,0.0,0.0,0.0,0.0,0.0,0.0,0.0,0.0,0.0,0.0,0.0,0.0,0.0,0.0,0.0,0.0,0.0,0.0,0.0,0.0,0.0,0.0,0.0,0.0,0.0,0.0,0.0,0.0,0.0,0.0,0.0,0.0,0.0,0.0,0.0,0.0,0.0,0.0,0.0,0.0,0.0,0.0,0.0,0.0,0.0,0.0,0.0,0.0,0.0,0.0,0.0,0.0,0.0,0.0,0.0,0.0,0.0,0.0,0.0,0.0,0.0,0.0,0.0,0.0,0.0,0.0,0.0,0.0,0.0,0.0,0.0,0.0,0.0,0.0,0.0,0.0,0.0,0.0,0.0,0.0,0.0,0.0,0.0,0.0,0.0,0.0,0.0,0.0,0.0,0.0,0.0,0.0,0.0,0.0,0.0,0.0,-2.486,-2.6634,-2.813,-2.8925,-2.885,-2.6816,-2.4238,0.0,0.0,0.0,0.0,0.0,0.0,0.0,0.0,0.0,0.0,0.0,0.0,0.0,0.0,0.0,0.0,0.0,0.0,0.0,0.0,0.0,0.0,0.0,0.0,0.0,0.0,0.0,0.0,0.0,0.0,0.0,0.0,0.0,0.0,0.0,0.0,0.0,0.0,0.0,0.0,0.0,0.0,0.0,0.0,0.0,0.0,0.0,0.0,0.0,0.0,0.0,0.0,0.0,0.0,0.0,0.0,0.0,0.0,0.0,0.0,0.0,0.0,0.0,0.0,0.0,0.0,0.0,0.0,0.0,0.0,0.0,0.0,0.0,0.0,0.0,0.0,0.0,0.0,0.0,0.0,0.0,0.0,0.0,0.0,0.0,0.0,0.0,0.0,0.0,0.0,0.0,0.0,0.0,0.0,0.0,0.0,0.0,0.0,0.0,0.0,0.0,0.0,0.0,0.0,0.0,0.0,0.0,0.0,-2.5296,-2.6553,-2.8069,-2.8925,-2.8925,-2.7218,-2.5614,0.0,0.0,0.0,0.0,0.0,0.0,0.0,0.0,0.0,0.0,0.0,0.0,0.0,0.0,0.0,0.0,0.0,0.0,0.0,0.0,0.0,0.0,0.0,0.0,0.0,0.0,0.0,0.0,0.0,0.0,0.0,0.0,0.0,0.0,0.0,0.0,0.0,0.0,0.0,0.0,0.0,0.0,0.0,0.0,0.0,0.0,0.0,0.0,-2.7925,0.0,0.0,0.0,0.0,0.0,0.0,0.0,0.0,0.0,0.0,0.0,0.0,0.0,0.0,0.0,0.0,0.0,0.0,0.0,0.0,0.0,0.0,0.0,0.0,0.0,0.0,0.0,0.0,0.0,0.0,0.0,0.0,0.0,0.0,0.0,0.0,0.0,0.0,0.0,0.0,0.0,0.0,0.0,0.0,0.0,0.0,0.0,0.0,0.0,0.0,0.0,0.0,0.0,0.0,0.0,0.0,0.0,0.0,0.0,-2.6722,-2.7387,-2.9083,-2.9731,-2.9277,-2.7971,-2.6514,0.0,0.0,0.0,0.0,0.0,0.0,0.0,0.0,0.0,0.0,0.0,0.0,0.0,0.0,0.0,0.0,0.0,0.0,0.0,0.0,0.0,0.0,0.0,0.0,0.0,0.0,0.0,0.0,0.0,0.0,0.0,0.0,0.0,0.0,0.0,0.0,0.0,0.0,0.0,0.0,0.0,0.0,0.0,0.0,0.0,0.0,0.0,0.0,0.0,0.0,0.0,0.0,0.0,0.0,0.0,0.0,0.0,0.0,0.0,0.0,0.0,0.0,0.0,0.0,0.0,0.0,0.0,0.0,0.0,0.0,0.0,0.0,0.0,0.0,0.0,0.0,0.0,0.0,0.0,0.0,0.0,0.0,0.0,0.0,0.0,0.0,0.0,0.0,0.0,0.0,0.0,0.0,0.0,0.0,0.0,0.0,0.0,0.0,0.0,0.0,0.0,0.0,0.0,0.0,0.0,0.0,0.0,-2.6623,-2.8251,-2.8822,-3.0322,-3.082,-3.0062,-2.8774,-2.7156,-2.5151,0.0,0.0,0.0,0.0,0.0,0.0,0.0,0.0,0.0,0.0,0.0,0.0,0.0,0.0,0.0,0.0,0.0,0.0,0.0,0.0,0.0,0.0,0.0,0.0,0.0,0.0,0.0,0.0,0.0,0.0,0.0,0.0,0.0,0.0,0.0,0.0,0.0,0.0,-2.4517,-2.6104,0.0,0.0,0.0,0.0,0.0,0.0,0.0,0.0,-3.1968,0.0,0.0,0.0,0.0,0.0,0.0,0.0,0.0,0.0,0.0,0.0,0.0,0.0,0.0,0.0,0.0,0.0,0.0,0.0,0.0,0.0,0.0,0.0,0.0,0.0,0.0,0.0,0.0,0.0,0.0,0.0,0.0,0.0,0.0,0.0,0.0,0.0,0.0,0.0,0.0,0.0,0.0,0.0,0.0,0.0,0.0,0.0,0.0,0.0,0.0,0.0,0.0,0.0,0.0,0.0,0.0,-2.6515,-2.701,-2.8268,-3.0376,-3.094,-3.1119,-3.0944,-2.9094,-2.7336,-2.563,0.0,0.0,0.0,0.0,0.0,0.0,0.0,0.0,0.0,0.0,0.0,0.0,0.0,0.0,0.0,0.0,0.0,0.0,0.0,0.0,0.0,0.0,0.0,0.0,0.0,0.0,0.0,0.0,0.0,0.0,0.0,0.0,0.0,0.0,0.0,0.0,0.0,0.0,0.0,-2.8697,-3.0048,0.0,0.0,0.0,0.0,0.0,0.0,0.0,0.0,-3.2765,0.0,0.0,0.0,0.0,0.0,0.0,0.0,0.0,0.0,0.0,0.0,0.0,0.0,0.0,0.0,0.0,0.0,0.0,0.0,0.0,0.0,0.0,0.0,0.0,0.0,0.0,0.0,0.0,0.0,0.0,0.0,0.0,0.0,0.0,0.0,0.0,0.0,0.0,0.0,0.0,0.0,0.0,0.0,0.0,0.0,0.0,0.0,0.0,0.0,0.0,0.0,0.0,0.0,0.0,0.0,-2.6104,-2.8265,-3.0036,-3.132,-3.2221,-3.2191,-3.1214,-2.8864,-2.6987,0.0,0.0,0.0,0.0,0.0,0.0,0.0,0.0,0.0,0.0,0.0,0.0,0.0,0.0,0.0,0.0,0.0,0.0,0.0,0.0,0.0,0.0,0.0,0.0,0.0,0.0,0.0,0.0,0.0,0.0,0.0,0.0,0.0,0.0,0.0,0.0,0.0,0.0,0.0,0.0,-3.0274,-3.1219,-3.2757,0.0,0.0,0.0,0.0,0.0,0.0,-3.4346,-3.3923,0.0,0.0,0.0,0.0,0.0,0.0,0.0,0.0,0.0,0.0,0.0,0.0,0.0,0.0,0.0,0.0,0.0,0.0,0.0,0.0,0.0,0.0,0.0,0.0,0.0,0.0,0.0,0.0,0.0,0.0,0.0,0.0,0.0,0.0,0.0,0.0,0.0,0.0,0.0,0.0,0.0,0.0,0.0,0.0,0.0,0.0,0.0,0.0,0.0,0.0,0.0,0.0,0.0,0.0,0.0,-2.559,-2.9189,-3.1384,-3.2038,-3.3152,-3.2876,-3.1214,-2.8849,-2.6943,0.0,0.0,0.0,0.0,0.0,0.0,0.0,0.0,0.0,0.0,0.0,0.0,0.0,0.0,0.0,0.0,0.0,0.0,0.0,0.0,0.0,0.0,0.0,0.0,0.0,0.0,0.0,0.0,0.0,0.0,0.0,0.0,0.0,0.0,0.0,0.0,0.0,0.0,0.0,0.0,0.0,-3.2848,-3.3929,-3.3658,0.0,0.0,0.0,0.0,-3.6589,-3.6122,0.0,0.0,0.0,0.0,0.0,0.0,0.0,0.0,0.0,0.0,0.0,0.0,0.0,0.0,0.0,0.0,0.0,0.0,0.0,0.0,0.0,0.0,0.0,0.0,0.0,0.0,0.0,0.0,0.0,0.0,0.0,0.0,0.0,0.0,0.0,0.0,0.0,0.0,0.0,0.0,0.0,0.0,0.0,0.0,0.0,0.0,0.0,0.0,0.0,0.0,0.0,0.0,0.0,0.0,0.0,0.0,-2.6366,-2.8388,-3.0582,-3.2806,-3.2807,-3.2263,-3.1241,-2.9918,-2.7827,0.0,0.0,0.0,0.0,0.0,0.0,0.0,0.0,0.0,0.0,0.0,0.0,0.0,0.0,0.0,0.0,0.0,0.0,0.0,0.0,0.0,0.0,0.0,0.0,0.0,0.0,0.0,0.0,0.0,0.0,0.0,0.0,0.0,0.0,0.0,0.0,0.0,0.0,0.0,0.0,0.0,-3.619,-3.4665,-3.4684,-3.5139,0.0,0.0,-3.6395,-3.8709,-3.8902,0.0,0.0,0.0,0.0,0.0,0.0,0.0,0.0,0.0,0.0,0.0,0.0,0.0,0.0,0.0,0.0,0.0,0.0,0.0,0.0,0.0,0.0,0.0,0.0,0.0,0.0,0.0,0.0,0.0,0.0,0.0,0.0,0.0,0.0,0.0,0.0,0.0,0.0,0.0,0.0,0.0,0.0,0.0,0.0,0.0,0.0,0.0,0.0,0.0,0.0,0.0,0.0,0.0,0.0,0.0,-2.3319,-2.6374,-2.9488,-3.1915,-3.3552,-3.4062,-3.3533,-3.2046,-2.997,-2.7604,0.0,0.0,0.0,0.0,0.0,0.0,0.0,0.0,0.0,0.0,0.0,0.0,0.0,0.0,0.0,0.0,0.0,0.0,0.0,0.0,0.0,0.0,0.0,0.0,0.0,0.0,0.0,0.0,0.0,0.0,0.0,0.0,0.0,0.0,0.0,0.0,0.0,0.0,0.0,0.0,0.0,0.0,-3.6363,-3.6557,0.0,0.0,0.0,-3.8579,-4.001,0.0,0.0,0.0,0.0,0.0,0.0,0.0,0.0,0.0,0.0,0.0,0.0,0.0,0.0,0.0,0.0,0.0,0.0,0.0,0.0,0.0,0.0,0.0,0.0,0.0,0.0,0.0,0.0,0.0,0.0,0.0,0.0,0.0,0.0,0.0,0.0,0.0,0.0,0.0,0.0,0.0,0.0,0.0,0.0,0.0,0.0,0.0,0.0,0.0,0.0,0.0,0.0,0.0,0.0,0.0,0.0,0.0,-2.6201,-3.0016,-3.2413,-3.3309,-3.4274,-3.3865,-3.192,-3.0135,0.0,0.0,0.0,0.0,0.0,0.0,0.0,0.0,0.0,0.0,0.0,0.0,0.0,0.0,0.0,0.0,0.0,0.0,0.0,0.0,0.0,0.0,0.0,0.0,0.0,0.0,0.0,-2.092,0.0,0.0,0.0,0.0,0.0,0.0,0.0,0.0,0.0,0.0,0.0,0.0,0.0,0.0,-3.6982,-3.8207,-3.855,-3.9117,0.0,0.0,-4.0444,-4.1154,-4.1383,-4.0778,0.0,0.0,0.0,0.0,0.0,0.0,0.0,0.0,0.0,0.0,0.0,0.0,0.0,0.0,0.0,0.0,0.0,0.0,0.0,0.0,0.0,0.0,0.0,0.0,0.0,0.0,0.0,0.0,0.0,0.0,0.0,0.0,0.0,0.0,0.0,0.0,0.0,0.0,0.0,0.0,0.0,0.0,0.0,0.0,0.0,0.0,0.0,0.0,0.0,0.0,0.0,0.0,0.0,0.0,0.0,-2.6229,-2.9171,-3.1006,-3.1409,-3.2307,-3.1901,-3.0062,-3.0519,-2.8884,0.0,0.0,0.0,0.0,0.0,0.0,0.0,0.0,0.0,0.0,0.0,0.0,0.0,0.0,0.0,0.0,0.0,0.0,0.0,0.0,0.0,0.0,0.0,0.0,0.0,0.0,0.0,0.0,0.0,0.0,0.0,0.0,0.0,0.0,0.0,0.0,0.0,0.0,0.0,0.0,0.0,-4.0027,-3.9699,-4.0391,-4.1253,0.0,0.0,-4.1357,-4.2068,-4.3305,-4.284,-3.9109,0.0,0.0,0.0,0.0,0.0,0.0,0.0,0.0,0.0,0.0,0.0,0.0,0.0,0.0,0.0,0.0,0.0,0.0,0.0,0.0,0.0,0.0,0.0,0.0,0.0,0.0,0.0,0.0,0.0,0.0,0.0,0.0,0.0,0.0,0.0,0.0,0.0,0.0,0.0,0.0,0.0,0.0,0.0,0.0,0.0,0.0,0.0,0.0,0.0,0.0,0.0,0.0,0.0,-2.3664,-2.5301,-2.8884,-3.1172,-3.2037,-3.2947,-3.3087,-3.2407,-3.1977,-3.0035,0.0,0.0,0.0,0.0,0.0,0.0,0.0,0.0,0.0,0.0,0.0,0.0,0.0,0.0,0.0,0.0,0.0,0.0,0.0,0.0,0.0,0.0,0.0,0.0,0.0,0.0,0.0,0.0,-2.4986,-2.6103,-2.5405,0.0,0.0,0.0,0.0,0.0,0.0,0.0,0.0,0.0,0.0,-4.138,-4.1937,-4.2339,0.0,0.0,-4.3504,-4.3369,-4.3673,-4.336,-4.2543,-4.0927,-3.9801,0.0,0.0,0.0,0.0,0.0,0.0,0.0,0.0,0.0,0.0,0.0,0.0,0.0,0.0,0.0,0.0,0.0,0.0,0.0,0.0,0.0,0.0,0.0,0.0,0.0,0.0,0.0,0.0,0.0,0.0,0.0,0.0,0.0,0.0,0.0,0.0,0.0,0.0,0.0,0.0,0.0,0.0,0.0,0.0,0.0,0.0,0.0,0.0,0.0,0.0,0.0,0.0,-2.4049,-2.5437,-2.9414,-3.1845,-3.2566,-3.3533,-3.3876,-3.3573,-3.2844,-3.0955,0.0,0.0,0.0,0.0,0.0,0.0,0.0,0.0,0.0,0.0,0.0,0.0,0.0,0.0,0.0,0.0,0.0,0.0,0.0,0.0,0.0,0.0,0.0,0.0,0.0,0.0,0.0,0.0,-2.6149,-2.7024,-2.6268,0.0,0.0,0.0,0.0,0.0,0.0,0.0,0.0,0.0,0.0,-4.2894,-4.3594,-4.3833,-4.4145,-4.4481,-4.434,-4.4131,-4.4131,-4.3355,-4.2499,-4.1466,0.0,0.0,0.0,0.0,0.0,0.0,0.0,0.0,0.0,0.0,0.0,0.0,0.0,0.0,0.0,0.0,0.0,0.0,0.0,0.0,0.0,0.0,0.0,0.0,0.0,0.0,0.0,0.0,0.0,0.0,-1.512,0.0,0.0,0.0,0.0,0.0,0.0,0.0,0.0,0.0,0.0,0.0,0.0,0.0,0.0,0.0,0.0,0.0,0.0,0.0,0.0,0.0,0.0,-2.5991,-2.7029,-3.0945,-3.284,-3.2636,-3.3533,-3.3602,-3.2735,-3.2976,-3.1853,-2.9113,0.0,0.0,0.0,0.0,0.0,0.0,0.0,0.0,0.0,0.0,0.0,0.0,0.0,0.0,0.0,0.0,0.0,0.0,0.0,0.0,0.0,0.0,0.0,0.0,0.0,0.0,-2.6674,-2.6683,-2.6628,0.0,0.0,0.0,0.0,0.0,0.0,0.0,0.0,0.0,0.0,-4.2939,-4.4834,-4.4369,-4.4908,-4.5197,-4.4509,-4.3653,-4.3135,-4.3135,-4.3581,-4.3035,0.0,0.0,0.0,0.0,0.0,0.0,0.0,0.0,0.0,0.0,0.0,0.0,0.0,0.0,0.0,0.0,0.0,0.0,0.0,0.0,0.0,0.0,0.0,0.0,0.0,0.0,0.0,-1.7193,-1.7076,0.0,0.0,0.0,0.0,0.0,0.0,0.0,0.0,0.0,0.0,0.0,-2.6109,-2.7569,0.0,0.0,0.0,0.0,0.0,0.0,0.0,0.0,0.0,0.0,0.0,0.0,-2.5718,-2.7826,-3.07,-3.2635,-3.3504,-3.3808,-3.4177,-3.4476,-3.4192,-3.2642,-2.9555,0.0,0.0,0.0,0.0,0.0,0.0,0.0,0.0,0.0,0.0,0.0,0.0,0.0,0.0,0.0,0.0,0.0,0.0,0.0,0.0,0.0,0.0,0.0,0.0,0.0,-2.6203,0.0,0.0,0.0,0.0,0.0,0.0,0.0,0.0,0.0,0.0,0.0,-4.1324,-4.3123,-4.573,-4.7237,-4.6637,-4.7291,-4.7488,0.0,0.0,0.0,0.0,0.0,0.0,0.0,0.0,0.0,0.0,0.0,0.0,0.0,0.0,-5.1472,-4.5957,-4.4498,-4.4133,-4.4124,0.0,0.0,0.0,0.0,0.0,0.0,0.0,0.0,0.0,0.0,0.0,0.0,0.0,0.0,-1.9839,0.0,-2.0355,0.0,0.0,0.0,0.0,0.0,0.0,0.0,0.0,-2.825,-2.9505,-2.9325,-3.0432,-3.0508,0.0,-2.9898,-2.8165,0.0,0.0,0.0,0.0,0.0,0.0,0.0,0.0,-2.6928,-2.9261,-3.1782,-3.3571,-3.4447,-3.4543,-3.4839,-3.5489,-3.4831,-3.3427,-3.1121,-3.0347,-2.907,0.0,0.0,0.0,0.0,0.0,0.0,0.0,0.0,0.0,0.0,0.0,0.0,0.0,0.0,0.0,0.0,0.0,0.0,0.0,0.0,0.0,0.0,0.0,-2.7097,0.0,0.0,0.0,0.0,0.0,0.0,0.0,0.0,0.0,-3.9743,-4.2158,-4.4631,-4.6452,-4.8289,-4.9345,-4.8995,0.0,0.0,0.0,0.0,0.0,0.0,0.0,-4.3789,-4.4278,-4.4149,-4.4645,-4.64,-5.0047,-5.3113,-5.4288,0.0,0.0,-5.1095,-4.9795,-4.9431,-4.9311,-5.0408,-5.1202,-5.0606,-5.2184,-5.3602,0.0,0.0,0.0,0.0,0.0,0.0,0.0,0.0,-2.2796,-2.2917,0.0,-2.3712,0.0,0.0,0.0,0.0,0.0,-2.7042,0.0,0.0,-3.2257,-3.3215,-3.2736,-3.3366,-3.3727,-3.3898,-3.4395,-3.3759,-3.1884,-2.8003,0.0,0.0,0.0,0.0,0.0,0.0,-2.9675,-3.1569,-3.411,-3.5489,-3.5489,-3.5489,-3.5519,-3.5554,-3.4925,-3.4364,-3.383,-3.3678,-3.2676,-3.0591,-2.89,0.0,0.0,0.0,0.0,0.0,0.0,0.0,0.0,0.0,0.0,0.0,0.0,0.0,0.0,0.0,0.0,0.0,0.0,0.0,0.0,-2.8123,0.0,0.0,0.0,0.0,0.0,0.0,0.0,0.0,0.0,0.0,-4.318,-4.6067,-4.8846,-4.9756,0.0,0.0,0.0,0.0,-4.9887,-4.9859,-4.7734,-4.6126,-4.605,-4.5555,-4.4855,-4.3798,0.0,0.0,-4.9573,-5.2484,-5.4692,-5.4781,-5.6261,-5.7516,-5.8368,-5.6936,-5.5899,-5.5788,-5.5434,-5.5241,-5.5206,-5.6095,-5.6936,-2.5892,0.0,0.0,0.0,0.0,-2.3682,-2.4772,-2.6773,-2.5744,-2.5456,-2.573,-2.6324,0.0,0.0,0.0,0.0,0.0,0.0,-3.0162,-3.1724,-3.3431,-3.4831,-3.5998,-3.6801,-3.7217,-3.7313,-3.8125,-3.7978,-3.6842,-3.5224,-3.1351,-2.5608,0.0,0.0,0.0,0.0,-3.2261,-3.3741,-3.4936,-3.5489,-3.5489,-3.5489,-3.5718,-3.629,-3.6075,-3.6013,-3.5907,-3.6355,-3.558,-3.3462,-3.2386,0.0,0.0,0.0,0.0,0.0,0.0,0.0,0.0,0.0,0.0,0.0,0.0,0.0,0.0,0.0,0.0,0.0,0.0,0.0,-2.7427,-2.8966,-3.0659,0.0,0.0,0.0,0.0,0.0,0.0,0.0,0.0,0.0,-5.0974,-5.1777,-5.2266,0.0,0.0,-5.3327,-5.2785,-5.3016,-5.274,-5.1478,-5.0516,0.0,-4.8151,-4.6468,-4.5484,-4.6082,-4.8593,-5.1531,-5.5053,-5.6432,-5.7529,-5.8892,-5.9625,-6.0299,-6.1048,-5.9457,-5.7929,-5.7802,-5.8572,-5.9287,-5.937,-6.0551,-6.1681,-2.9349,-2.7144,-2.5921,-2.599,-2.6952,-2.716,-2.8375,-3.0137,-2.9626,-2.9697,-3.0277,-3.056,-3.0086,-2.903,-2.9415,0.0,0.0,0.0,-3.2842,-3.4473,-3.5304,-3.6466,-3.7922,-3.845,-3.903,-3.9686,-3.993,-4.017,-4.0234,-3.9554,-3.6638,-3.1659,0.0,0.0,-3.1154,-3.3003,-3.4809,-3.6353,-3.6661,-3.6732,-3.6732,-3.6489,-3.6689,-3.7492,-3.721,-3.7231,-3.7636,-3.8013,-3.7632,-3.6384,-3.5341,-3.3481,0.0,0.0,0.0,0.0,0.0,0.0,0.0,0.0,0.0,0.0,0.0,-2.721,0.0,0.0,0.0,0.0,-2.6354,-2.8025,-3.0474,-3.2436,0.0,0.0,0.0,0.0,0.0,0.0,0.0,-5.0619,-5.2862,-5.4499,-5.5654,-5.5965,-5.5772,-5.5003,-5.5104,-5.533,-5.544,0.0,-5.5245,-5.4275,-5.3146,-5.1885,-5.0448,-4.8469,-4.7448,-4.8511,-5.0736,-5.346,-5.6767,-5.8048,-5.915,-6.0618,-6.1092,-6.1424,-6.2395,-6.1277,-6.0278,-6.0488,-6.1366,-6.206,-6.2128,-6.3085,-6.3876,-3.2389,-3.2255,-3.0331,-2.9891,-3.0562,-3.1757,-3.2712,-3.3514,-3.3734,-3.4651,-3.5856,-3.5478,-3.5087,-3.4651,-3.3455,0.0,-3.479,-3.5383,-3.6283,-3.7515,-3.7584,-3.8007,-3.8865,-3.9025,-3.9877,-4.137,-4.0664,-4.1041,-4.2301,-4.1699,-4.0657,-3.9211,-3.6052,-3.4772,-3.5333,-3.5954,-3.7284,-3.9172,-3.8936,-3.8838,-3.8774,-3.809,-3.8089,-3.8964,-3.829,-3.8246,-3.8962,-3.8962,-3.9068,-3.9122,-3.7814,-3.5756,-3.2957,0.0,0.0,0.0,0.0,0.0,0.0,0.0,0.0,0.0,0.0,0.0,0.0,0.0,0.0,0.0,-3.1576,0.0,-3.4883,-3.749,0.0,0.0,0.0,-4.4487,-4.741,-4.9741,-5.2026,-5.4463,0.0,0.0,-5.7985,-5.8887,-5.9133,-5.8013,-5.7076,-5.6999,-5.849,-5.7854,-5.7435,-5.751,-5.5705,-5.3822,-5.2804,-5.1136,-5.0268,-5.1205,-5.2713,-5.4644,-5.6656,-5.8401,-5.9874,-6.1085,-6.1273,-6.1606,-6.2596,-6.2833,-6.3159,-6.3637,-6.3801,-6.3867,-6.3783,-6.404,-6.4316,-3.4073,-3.4185,-3.4489,-3.3778,-3.2382,-3.2673,-3.3369,-3.4297,-3.44,-3.4604,-3.4938,-3.5525,-3.6131,-3.6716,-3.6387,-3.6424,-3.67,-3.6903,-3.7386,-3.8157,-3.8865,-3.9529,-4.0262,-4.1565,-4.2402,-4.2795,-4.3265,-4.3339,-4.3111,-4.2968,-4.2408,-4.1523,-4.0644,-3.9546,-3.8124,-3.9325,-4.017,-4.068,-4.0015,-3.9686,-3.9654,-3.8925,-3.8964,-3.9804,-3.9083,-3.9049,-3.9765,-3.9765,-4.0052,-4.0363,-3.9595,-3.8529,-3.7431,-3.4038,0.0,0.0,0.0,0.0,0.0,0.0,0.0,0.0,0.0,-3.4053,-2.854,0.0,-3.4058,0.0,-3.3864,-3.5938,-3.8594,-4.0469,0.0,0.0,-4.7518,-4.8925,-5.2677,-5.3383,-5.4455,-5.6637,-5.8232,-5.9681,-6.0877,-6.0943,-6.0931,-6.079,-5.8967,-5.7882,-5.8595,-5.9089,-5.9107,-5.8566,-5.7855,-5.6728,-5.4941,-5.3182,-5.2477,-5.398,-5.5173,-5.6609,-5.9061,-6.0331,-6.1388,-6.2194,-6.2761,-6.3275,-6.3952,-6.4352,-6.485,-6.5472,-6.5228,-6.4643,-6.4302,-6.4966,-6.5525,-3.5052,-3.5149,-3.6102,-3.6006,-3.5326,-3.5802,-3.6353,-3.6929,-3.7386,-3.7641,-3.7613,-3.7843,-3.8263,-3.8751,-3.8751,-3.8762,-3.8742,-3.9062,-3.9337,-3.9755,-4.0213,-4.111,-4.2275,-4.3202,-4.406,-4.4857,-4.5361,-4.5331,-4.4925,-4.4925,-4.4732,-4.432,-4.4313,-4.3664,-4.2523,-4.2278,-4.2322,-4.2712,-4.1894,-4.1443,-4.1411,-4.0378,-4.023,-4.1021,-4.027,-3.9968,-4.0431,-4.072,-4.0828,-4.0761,-4.0377,-3.9729,-3.8758,-3.6139,-3.4081,0.0,0.0,0.0,0.0,0.0,0.0,0.0,0.0,0.0,0.0,0.0,-3.79,-3.686,-3.906,-4.1534,-4.3919,-4.602,-4.8543,-5.1736,-5.2389,-5.3681,-5.6181,-5.7102,-5.8122,-5.9458,-6.0545,-6.155,-6.2512,-6.223,-6.1987,-6.2189,-6.0792,-5.9752,-5.9793,-6.0566,-6.0943,-6.0278,-5.9797,-5.8625,-5.6268,-5.4783,-5.4365,-5.5479,-5.6684,-5.8183,-6.0105,-6.1379,-6.2449,-6.3468,-6.4002,-6.4603,-6.539,-6.5857,-6.6336,-6.6752,-6.6652,-6.6057,-6.5276,-6.592,-6.6562,-3.5837,-3.5987,-3.6671,-3.7563,-3.8638,-3.979,-4.0149,-4.0031,-4.0944,-4.1384,-4.1354,-4.0786,-4.0516,-4.0516,-4.0546,-4.0544,-4.054,-4.1175,-4.143,-4.1445,-4.1475,-4.2406,-4.389,-4.4161,-4.5113,-4.6574,-4.6727,-4.6786,-4.6786,-4.6786,-4.6792,-4.6772,-4.6748,-4.6777,-4.6727,-4.4798,-4.408,-4.4553,-4.3856,-4.3443,-4.3469,-4.217,-4.1744,-4.2325,-4.1581,-4.1128,-4.108,-4.1568,-4.1624,-4.1029,-4.1034,-4.0431,-3.9262,-3.7893,-3.6973,0.0,-3.544,0.0,0.0,0.0,0.0,0.0,0.0,0.0,0.0,-4.1661,-4.223,-4.2271,-4.5417,-4.8032,-4.952,-5.2135,-5.4121,-5.493,-5.6712,-5.8073,-5.854,-6.0304,-6.1713,-6.2106,-6.2848,-6.332,-6.3411,-6.31,-6.2862,-6.2933,-6.2606,-6.2108,-6.1684,-6.2213,-6.2515,-6.2211,-6.1424,-6.0053,-5.8002,-5.6867,-5.6563,-5.7055,-5.8288,-5.9564,-6.0777,-6.2241,-6.3652,-6.4791,-6.527,-6.5766,-6.6733,-6.7138,-6.7448,-6.7696,-6.7677,-6.7407,-6.6661,-6.6974,-6.7448,-3.7464,-3.8298,-3.8944,-3.9901,-4.0996,-4.211,-4.2049,-4.1126,-4.1308,-4.1384,-4.1384,-4.1265,-4.1205,-4.1205,-4.1175,-4.122,-4.122,-4.137,-4.1394,-4.144,-4.2105,-4.2623,-4.302,-4.4494,-4.5304,-4.5715,-4.6455,-4.6786,-4.6786,-4.6786,-4.6811,-4.6801,-4.676,-4.6784,-4.677,0.0,0.0,0.0,-4.444,-4.4384,-4.435,-4.3951,-4.3528,-4.3044,-4.273,0.0,-4.2056,-4.2139,-4.2486,-4.307,-4.3102,0.0,0.0,0.0,0.0,0.0,0.0,0.0,0.0,0.0,0.0,0.0,-4.6681,-4.6203,-4.35,-4.6514,-4.8519,-4.8206,-5.0056,-5.1658,-5.2533,-5.4573,-5.6176,-5.6973,-5.8843,-6.0122,-6.0265,-6.1489,-6.2432,-6.2475,-6.3012,-6.3589,-6.4243,-6.427,-6.4304,-6.4505,-6.454,-6.4272,-6.3842,-6.3702,-6.3619,-6.3384,-6.2701,-6.1948,-6.1333,-6.0249,-5.9809,-6.0463,-6.137,-6.2283,-6.3091,-6.4406,-6.5456,-6.6038,-6.6632,-6.7114,-6.7321,-6.7422,-6.7735,-6.7793,-6.7888,-6.7829,-6.7588,-6.8033,-6.8317,-3.8817,0.0,-4.1113,-4.2023,0.0,-4.3775,-4.3928,-4.3269,-4.2611,-4.2342,-4.2312,-4.2013,-4.1863,-4.1863,-4.1863,-4.188,-4.1942,-4.2209,-4.2335,-4.2367,-4.2817,-4.3271,-4.3758,-4.4661,-4.5627,-4.6485,-4.6965,-4.7469,-4.7902,-4.7902,-4.7902,-4.7902,-4.7875,-4.7916,-4.7833,-4.7518,-4.6794,-4.5669,-4.5669,-4.5637,-4.5583,-4.5335,-4.4987,-4.4572,-4.4574,0.0,0.0,0.0,0.0,0.0,0.0,0.0,0.0,0.0,0.0,-4.4326,-4.4083,-4.4238,-4.4919,-4.5819,-4.7507,-5.0212,-5.2438,-5.233,-4.9086,-5.1458,-5.3161,-5.3349,-5.4511,-5.557,-5.6339,-5.7702,-5.8686,-5.9103,-6.06,-6.1614,-6.1769,-6.2795,-6.3578,-6.3646,-6.4166,-6.4782,-6.5205,-6.5243,-6.5308,-6.5503,-6.5858,-6.603,-6.5703,-6.4997,-6.4457,-6.447,-6.4471,-6.415,-6.3539,-6.3296,-6.2785,-6.2803,-6.3269,-6.3802,-6.3992,-6.5161,-6.635,-6.7133,-6.8002,-6.8618,-6.8983,-6.913,-6.9247,-6.9214,-6.9272,-6.9379,-6.9575,-6.9541,-6.9387,-4.0481,-4.0884,-4.2754,-4.3687,-4.401,-4.4899,-4.5274,-4.5214,0.0,0.0,0.0,-4.2821,-4.2521,-4.2521,-4.2551,-4.2587,-4.256,-4.3079,-4.3329,-4.3329,-4.3329,-4.3693,-4.451,-4.4737,-4.5706,-4.7306,-4.7506,-4.8063,-4.9018,-4.9018,-4.9018,-4.9018,-4.9018,-4.9018,-4.8951,-4.8409,-4.78,-4.7192,-4.7005,-4.6953,-4.6934,-4.6896,-4.6801,-4.6658,-4.69,-4.7079,-4.7144,-4.7604,-4.7277,-4.6007,-4.6593,-4.661,-4.5859,-4.7226,-4.8479,-4.9422,-5.0374,-5.1118,-5.1503,-5.1854,-5.2893,-5.4823,-5.6914,-5.7291,-5.5283,-5.5897,-5.6732,-5.7529,-5.824,-5.8899,-5.9578,-6.0475,-6.1035,-6.1073,-6.2155,-6.2976,-6.3019,-6.4058,-6.4834,-6.491,-6.541,-6.5974,-6.6128,-6.6192,-6.6269,-6.65,-6.7051,-6.7423,-6.7256,-6.6519,-6.5864,-6.592,-6.6227,-6.6208,-6.5502,-6.5454,-6.5515,-6.4756,-6.5087,-6.5294,-6.5238,-6.6026,-6.7278,-6.8603,-6.9366,-6.9974,-7.0562,-7.0593,-7.0787,-7.0638,-7.0663,-7.0882,-7.13,-7.0989,-7.0527,-4.2888,-4.375,-4.3627,-4.4179,-4.506,-4.5251,-4.5274,-4.5214,-4.4496,-4.4167,-4.4137,-4.3479,-4.321,-4.321,-4.318,-4.318,-4.315,-4.3269,-4.3329,-4.3329,-4.3329,-4.3409,-4.3566,-4.4358,-4.5374,-4.6384,-4.7239,-4.8096,-4.8923,-4.9018,-4.9018,-4.9018,-4.9018,-4.9018,-4.8984,-4.8917,-4.8815,-4.868,-4.8026,-4.7875,-4.8275,-4.9249,-4.9698,-4.9565,-5.0023,-5.0214,-5.0033,-5.0068,-5.0185,-5.0204,-5.031,-5.0336,-5.0183,-5.0413,-5.0636,-5.0864,-5.1664,-5.2463,-5.3224,-5.4762,-5.6759,-5.9182,-5.9709,-5.9646,-5.922,-5.885,-5.8971,-5.9753,-6.0076,-6.0368,-6.0591,-6.1609,-6.233,-6.2437,-6.3532,-6.4334,-6.4281,-6.509,-6.5667,-6.5667,-6.5782,-6.6307,-6.6962,-6.7166,-6.746,-6.8192,-6.842,-6.8655,-6.8642,-6.8398,-6.8218,-6.8126,-6.7864,-6.7709,-6.7487,-6.7198,-6.7271,-6.7693,-6.7748,-6.7935,-6.8294,-6.8898,-6.9578,-7.0253,-7.0688,-7.0963,-7.086,-7.058,-7.0587,-7.0565,-7.0679,-7.096,-7.1446,-7.1591,-7.1659,-4.4493,-4.4995,-4.5464,-4.5898,-4.6416,-4.6411,-4.6381,-4.6322,-4.5693,-4.5185,-4.4825,-4.4526,-4.4407,-4.4377,-4.4989,-4.4917,-4.4388,-4.5026,-4.491,-4.4407,-4.4407,-4.4407,-4.4377,-4.486,-4.5866,-4.7325,-4.7755,-4.8561,-4.9468,-4.9593,-4.939,-4.9052,-4.9018,-4.9018,-4.9018,-4.9342,-4.9521,-4.958,-4.924,-4.9223,-4.9603,-5.083,-5.1491,-5.1575,-5.2103,-5.241,-5.2334,-5.2279,-5.2069,-5.1753,-5.2142,-5.2099,-5.1608,-5.2887,-5.3736,-5.3905,-5.5165,-5.6142,-5.661,-5.7836,-5.9078,-6.0215,-6.0689,-6.0873,-6.0837,-6.0512,-6.0422,-6.0673,-6.1169,-6.1535,-6.1497,-6.2815,-6.3663,-6.3663,-6.4629,-6.5307,-6.5345,-6.5628,-6.5897,-6.5936,-6.6384,-6.6885,-6.7333,-6.7845,-6.8296,-6.8858,-6.9245,-6.975,-7.0221,-7.0298,-6.9902,-6.8975,-6.8851,-6.8976,-6.9039,-6.9289,-6.9362,-6.9514,-6.959,-6.9628,-6.9743,-7.0067,-7.0409,-7.0524,-7.1,-7.1278,-7.1184,-7.1156,-7.1131,-7.1126,-7.1253,-7.1476,-7.1659,-7.216,-7.2483,-4.5776,-4.5921,-4.6903,-4.7309,-4.7309,-4.7309,-4.7309,-4.7249,-4.677,-4.6262,-4.5753,-4.5454,-4.5274,-4.5357,-4.6432,-4.6438,-4.5912,-4.678,-4.6779,-4.6052,-4.5798,-4.5686,-4.5604,-4.544,-4.6352,-4.8137,-4.8317,-4.9034,-5.018,-5.0338,-5.0159,-4.9773,-4.9767,-4.9854,-5.0035,-5.0424,-5.0675,-5.064,-5.0788,-5.0959,-5.1173,-5.2401,-5.3245,-5.356,-5.3978,-5.4272,-5.4396,-5.4523,-5.4255,-5.365,-5.4307,-5.4324,-5.3709,-5.5483,-5.6738,-5.6989,-5.8163,-5.9101,-5.9492,-6.0234,-6.0627,-6.0487,-6.1127,-6.1465,-6.1452,-6.1577,-6.1573,-6.1518,-6.2116,-6.2603,-6.2872,-6.4012,-6.4897,-6.4936,-6.5474,-6.582,-6.5897,-6.6051,-6.6167,-6.6346,-6.7077,-6.7757,-6.8164,-6.8781,-6.9367,-6.9741,-7.0211,-7.0873,-7.1477,-7.1695,-7.1008,-7.0063,-6.9896,-7.0192,-7.0174,-7.0689,-7.0956,-7.0692,-7.0792,-7.064,-7.0339,-7.0435,-7.0494,-7.0545,-7.0879,-7.1198,-7.1402,-7.146,-7.1512,-7.1523,-7.1668,-7.1862,-7.2137,-7.293,-7.3359,-4.7135,-4.7135,-4.7222,-4.7309,-4.7309,-4.7309,-4.7309,-4.7309,-4.7219,-4.7189,-4.695,-4.5843,-4.5334,-4.544,-4.6462,-4.6826,-4.676,-4.785,-4.8167,-4.7934,-4.7169,-4.6748,-4.6731,-4.5879,-4.6352,-4.8201,-4.8423,-4.9464,-5.1051,-5.1082,-5.1458,-5.1993,-5.2136,-5.2415,-5.296,-5.2758,-5.2641,-5.2654,-5.2931,-5.3087,-5.32,-5.4382,-5.5322,-5.5877,-5.6033,-5.6223,-5.6348,-5.7109,-5.7467,-5.7429,-5.8085,-5.8568,-5.8491,-5.8761,-5.8858,-5.8877,-5.9084,-5.9492,-6.0234,-6.1094,-6.1491,-6.1383,-6.1443,-6.1466,-6.1427,-6.2134,-6.2654,-6.2774,-6.3185,-6.3769,-6.4499,-6.5243,-6.5705,-6.5667,-6.5782,-6.5897,-6.6013,-6.6551,-6.7051,-6.7256,-6.8039,-6.895,-6.9797,-7.022,-7.0649,-7.1289,-7.1484,-7.1675,-7.1841,-7.1926,-7.1846,-7.1418,-7.141,-7.1324,-7.1352,-7.1424,-7.1433,-7.1484,-7.1556,-7.1395,-7.1205,-7.1093,-7.1178,-7.0505,-7.0812,-7.1053,-7.0921,-7.0882,-7.1338,-7.171,-7.1835,-7.1957,-7.289,-7.3828,-7.4258,-4.7309,-4.7309,-4.7309,-4.7309,-4.7309,-4.7309,-4.7309,-4.7396,-4.7904,-4.7849,-4.7422,-4.7297,-4.7001,-4.6556,-4.7548,-4.7729,-4.7247,-4.8847,-4.9228,-4.8702,-4.8874,-4.8952,-4.8952,-4.8561,-4.9075,-5.0351,-5.0424,-5.0872,-5.1661,-5.1896,-5.2451,-5.3389,-5.352,-5.3898,-5.443,-5.4768,-5.499,-5.5016,-5.5735,-5.6116,-5.6058,-5.6109,-5.6673,-5.7585,-5.7926,-5.8091,-5.8125,-5.8398,-5.8502,-5.8499,-5.8778,-5.8901,-5.894,-5.9405,-5.9719,-5.9801,-6.0348,-6.082,-6.1172,-6.1523,-6.1668,-6.149,-6.1503,-6.1651,-6.2136,-6.2581,-6.3224,-6.4257,-6.4548,-6.4714,-6.4871,-6.5538,-6.5974,-6.5897,-6.5897,-6.6051,-6.6577,-6.7,-6.75,-6.8129,-6.9104,-6.9887,-7.0459,-7.1054,-7.1503,-7.1953,-7.1992,-7.1992,-7.1992,-7.2,-7.1914,-7.1741,-7.1611,-7.1472,-7.1432,-7.1498,-7.1536,-7.1573,-7.1581,-7.1542,-7.1525,-7.1059,-7.0695,-7.031,-7.0386,-7.0598,-7.0682,-7.0808,-7.1163,-7.1784,-7.2691,-7.314,-7.4239,-7.4741,-7.5131,-4.7309,-4.7366,-4.7533,-4.7873,-4.8157,-4.8157,-4.8157,-4.824,-4.8922,-4.8708,-4.7849,-4.8512,-4.821,-4.7538,-4.8377,-4.8368,-4.8009,-4.9864,-5.041,-4.974,-5.0486,-5.0779,-5.0779,-5.0474,-5.1048,-5.207,-5.2146,-5.264,-5.3301,-5.3463,-5.4146,-5.5207,-5.5518,-5.5835,-5.643,-5.6993,-5.718,-5.7265,-5.7946,-5.8349,-5.8385,-5.8012,-5.802,-5.8671,-5.9039,-5.9219,-5.9219,-5.9258,-5.9288,-5.9235,-5.9374,-5.9456,-5.9417,-6.0027,-6.0417,-6.0578,-6.127,-6.1719,-6.1719,-6.1719,-6.164,-6.1523,-6.1673,-6.212,-6.2645,-6.3174,-6.4095,-6.523,-6.5654,-6.5595,-6.5353,-6.575,-6.6013,-6.5936,-6.6051,-6.65,-6.7,-6.7603,-6.8424,-6.9102,-7.0117,-7.0831,-7.0913,-7.1398,-7.1822,-7.1875,-7.1914,-7.1953,-7.1992,-7.1992,-7.1953,-7.1797,-7.1836,-7.177,-7.1398,-7.132,-7.1481,-7.1866,-7.1963,-7.1938,-7.1836,-7.1363,-7.0642,-7.0663,-7.0119,-7.0098,-7.0674,-7.0973,-7.1179,-7.2338,-7.3177,-7.373,-7.4331,-7.496,-7.5604,-4.7309,-4.7452,-4.8348,-4.9315,-5.0242,-5.0165,-5.0165,-5.0087,-5.0242,-4.9694,-4.8841,-4.8841,-4.8293,-4.7482,-4.8293,-4.8736,-4.8998,-5.0698,-5.1549,-5.1499,-5.1696,-5.1849,-5.1776,-5.093,-5.1353,-5.2977,-5.3178,-5.4129,-5.5955,-5.6148,-5.6918,-5.8189,-5.818,-5.8725,-5.9354,-5.9204,-5.9139,-5.9104,-5.8955,-5.9114,-5.9789,-5.9978,-5.9572,-5.8982,-5.9078,-5.9336,-5.9375,-5.9961,-6.0282,-6.0166,-6.0837,-6.1217,-6.1156,-6.1186,-6.1239,-6.1405,-6.1601,-6.1719,-6.1719,-6.1719,-6.168,-6.168,-6.2265,-6.2696,-6.2935,-6.4188,-6.5161,-6.543,-6.6271,-6.6575,-6.6334,-6.6295,-6.6192,-6.609,-6.6628,-6.7077,-6.7154,-6.8693,-6.9744,-7.0194,-7.096,-7.1448,-7.1589,-7.1568,-7.1643,-7.169,-7.1719,-7.1836,-7.207,-7.207,-7.207,-7.2265,-7.2523,-7.259,-7.1758,-7.1735,-7.2054,-7.2432,-7.2695,-7.2613,-7.2726,-7.2608,-7.1769,-7.1067,-7.0776,-7.0696,-7.0907,-7.1181,-7.147,-7.2167,-7.2927,-7.3574,-7.3873,-7.49,-7.5456,-4.7692,-4.8364,-4.9395,-5.008,-5.036,-5.0422,-5.0397,-5.0474,-5.108,-5.0779,-4.9931,-4.9852,-4.9215,-4.821,-4.7904,-4.78,-4.8011,-4.9309,-5.0274,-5.0984,-5.1557,-5.2241,-5.2905,-5.301,-5.3313,-5.4029,-5.4556,-5.5588,-5.7037,-5.747,-5.8281,-5.9365,-5.9738,-6.015,-6.0692,-6.0817,-6.0815,-6.082,-6.0695,-6.0756,-6.0934,-6.1113,-6.0923,-6.0517,-6.0672,-6.0781,-6.0781,-6.1094,-6.1235,-6.1175,-6.1376,-6.1486,-6.1428,-6.1417,-6.1452,-6.1523,-6.1601,-6.1719,-6.1719,-6.1719,-6.1953,-6.2422,-6.2734,-6.3437,-6.4349,-6.5127,-6.5677,-6.6145,-6.6561,-6.6934,-6.7208,-6.7099,-6.7013,-6.6974,-6.7513,-6.8129,-6.8732,-6.9566,-7.0311,-7.0935,-7.1472,-7.1665,-7.1588,-7.1516,-7.1528,-7.1568,-7.1563,-7.1924,-7.2461,-7.2617,-7.2851,-7.3476,-7.3745,-7.374,-7.3446,-7.3025,-7.3016,-7.3277,-7.3406,-7.3168,-7.314,-7.2581,-7.1744,-7.0939,-7.0788,-7.0422,-7.0374,-7.0638,-7.1008,-7.1263,-7.2071,-7.2843,-7.3062,-7.4086,-7.4599,-4.8882,-4.9778,-5.0237,-5.0594,-5.0806,-5.0498,-5.055,-5.093,-5.1598,-5.1525,-5.093,-5.0855,-5.0165,-4.881,-4.8072,-4.7624,-4.7452,-4.8377,-4.9215,-5.0009,-5.1303,-5.2312,-5.3043,-5.4102,-5.4695,-5.5084,-5.6004,-5.6985,-5.7892,-5.8307,-5.9027,-6.0122,-6.0408,-6.0768,-6.1266,-6.1538,-6.164,-6.164,-6.168,-6.1668,-6.1588,-6.1639,-6.1627,-6.1549,-6.1594,-6.1676,-6.1719,-6.1719,-6.168,-6.164,-6.1492,-6.1381,-6.1304,-6.1381,-6.1423,-6.147,-6.1601,-6.1836,-6.207,-6.2109,-6.25,-6.332,-6.3711,-6.4414,-6.5508,-6.578,-6.6139,-6.6535,-6.695,-6.7345,-6.7724,-6.8167,-6.8256,-6.8013,-6.8398,-6.9013,-6.9629,-7.0271,-7.0873,-7.1387,-7.1491,-7.1479,-7.1398,-7.1349,-7.1491,-7.1706,-7.1816,-7.2228,-7.3124,-7.3437,-7.3672,-7.4453,-7.4609,-7.4689,-7.4653,-7.4499,-7.4197,-7.4363,-7.3927,-7.3698,-7.3308,-7.2614,-7.1839,-7.0975,-7.0354,-6.9885,-6.9761,-7.0043,-7.0212,-7.0273,-7.1126,-7.2041,-7.2516,-7.3193,-7.3738,-5.0943,-5.1582,-5.0855,-5.1048,-5.1565,-5.093,-5.1005,-5.1671,-5.1849,-5.1849,-5.1921,-5.1849,-5.0747,-4.9215,-4.8841,-4.821,-4.7764,-4.8293,-4.8759,-4.9135,-5.0811,-5.1736,-5.2137,-5.371,-5.4964,-5.578,-5.7229,-5.8157,-5.8595,-5.8728,-5.9235,-6.0086,-6.0238,-6.058,-6.1265,-6.1328,-6.1484,-6.1523,-6.164,-6.168,-6.1719,-6.1719,-6.1642,-6.1503,-6.1537,-6.1594,-6.168,-6.168,-6.164,-6.1523,-6.1376,-6.1151,-6.0973,-6.1127,-6.1292,-6.1328,-6.1525,-6.207,-6.2773,-6.289,-6.3203,-6.418,-6.5039,-6.543,-6.5742,-6.6198,-6.6506,-6.6613,-6.7191,-6.768,-6.8115,-6.9167,-6.9602,-6.8948,-6.9321,-6.9744,-6.9975,-7.0786,-7.155,-7.1571,-7.1409,-7.1206,-7.1129,-7.1017,-7.1227,-7.1871,-7.2294,-7.2803,-7.3828,-7.4155,-7.4414,-7.4805,-7.5273,-7.565,-7.5794,-7.5898,-7.5638,-7.534,-7.4662,-7.4168,-7.3684,-7.3082,-7.2059,-7.1119,-7.012,-6.9601,-6.874,-6.8989,-6.9098,-6.9389,-7.0356,-7.1106,-7.1563,-7.2149,-7.3008,-5.2269,-5.2006,-5.2412,-5.2269,-5.19,-5.1516,-5.1631,-5.1921,-5.1921,-5.2312,-5.2767,-5.2241,-5.1525,-5.0671,-4.9504,-4.8594,-4.8293,-4.7988,-4.8157,-4.8821,-4.9521,-5.0579,-5.1849,-5.3045,-5.4583,-5.6491,-5.7859,-5.8549,-5.8716,-5.9027,-5.937,-5.962,-5.9775,-6.0096,-6.0596,-6.0799,-6.1056,-6.1445,-6.1562,-6.1601,-6.168,-6.1719,-6.164,-6.1537,-6.1574,-6.1618,-6.1562,-6.1582,-6.1562,-6.164,-6.1492,-6.1304,-6.105,-6.1012,-6.1078,-6.1104,-6.1295,-6.1798,-6.2516,-6.2851,-6.3555,-6.4726,-6.539,-6.582,-6.6221,-6.6449,-6.65,-6.6423,-6.7192,-6.7962,-6.8655,-6.9667,-7.0167,-6.9794,-7.0321,-7.0629,-7.0542,-7.0976,-7.1324,-7.1446,-7.103,-7.0642,-7.0533,-7.0548,-7.0836,-7.1329,-7.2036,-7.3029,-7.3971,-7.4709,-7.5351,-7.6015,-7.6406,-7.6462,-7.6375,-7.6049,-7.5644,-7.527,-7.4741,-7.4179,-7.3828,-7.3015,-7.2013,-7.0851,-6.9878,-6.9043,-6.825,-6.798,-6.8102,-6.8489,-6.9278,-6.9848,-7.0229,-7.1214,-7.2483,-5.3109,-5.2582,-5.2806,-5.2564,-5.1868,-5.1516,-5.1525,-5.1849,-5.1921,-5.2454,-5.3179,-5.28,-5.2241,-5.1598,-5.0133,-4.9215,-4.8759,-4.7764,-4.7624,-4.8248,-4.8657,-4.9543,-5.093,-5.243,-5.4171,-5.6134,-5.747,-5.8171,-5.8461,-5.8753,-5.899,-5.914,-5.939,-5.9776,-6.0226,-6.058,-6.0997,-6.1383,-6.1484,-6.1562,-6.168,-6.1719,-6.1642,-6.155,-6.1582,-6.1597,-6.1527,-6.1486,-6.1582,-6.164,-6.1537,-6.1272,-6.102,-6.0997,-6.1032,-6.1099,-6.1518,-6.2112,-6.2865,-6.3521,-6.4241,-6.55,-6.5847,-6.6078,-6.6466,-6.65,-6.6307,-6.6307,-6.7385,-6.8396,-6.8944,-7.0183,-7.081,-7.0783,-7.1052,-7.1245,-7.1197,-7.1182,-7.1299,-7.1286,-7.0783,-7.0476,-7.0527,-7.0422,-7.086,-7.1354,-7.2396,-7.3437,-7.4447,-7.5229,-7.6008,-7.6574,-7.6646,-7.6651,-7.6665,-7.6216,-7.5582,-7.5111,-7.46,-7.4093,-7.3616,-7.2409,-7.1354,-6.9788,-6.8642,-6.8083,-6.7325,-6.7161,-6.7243,-6.7742,-6.8607,-6.953,-7.0535,-7.1511,-7.2573,-5.3518,-5.3349,-5.2438,-5.2027,-5.1822,-5.1048,-5.1155,-5.1849,-5.1921,-5.2487,-5.3348,-5.3348,-5.2939,-5.1921,-5.093,-5.0009,-4.9035,-4.8177,-4.7688,-4.792,-4.8369,-4.899,-4.9487,-5.1801,-5.3886,-5.5256,-5.6472,-5.7364,-5.8051,-5.8142,-5.8231,-5.8784,-5.914,-5.963,-6.0094,-6.0687,-6.1012,-6.1292,-6.1409,-6.1523,-6.168,-6.1719,-6.164,-6.1523,-6.1539,-6.1535,-6.1482,-6.1513,-6.1549,-6.164,-6.1442,-6.1236,-6.107,-6.1012,-6.1151,-6.1196,-6.2012,-6.2906,-6.3767,-6.4409,-6.5291,-6.6226,-6.6321,-6.6422,-6.6468,-6.6307,-6.6205,-6.632,-6.7693,-6.8767,-6.9261,-7.0544,-7.1479,-7.1626,-7.1501,-7.153,-7.1609,-7.1377,-7.1277,-7.1207,-7.0707,-7.0255,-7.0796,-7.0646,-7.1308,-7.2339,-7.3307,-7.4316,-7.4996,-7.5628,-7.6234,-7.6496,-7.6566,-7.6397,-7.6216,-7.5436,-7.4836,-7.4458,-7.4001,-7.3452,-7.2797,-7.1502,-7.0221,-6.8768,-6.7832,-6.7161,-6.6846,-6.6812,-6.7161,-6.7945,-6.8873,-6.9953,-7.0901,-7.1854,-7.238,-5.3518,-5.3484,-5.3213,-5.2606,-5.1927,-5.1619,-5.1631,-5.1921,-5.1921,-5.2557,-5.3348,-5.3518,-5.3348,-5.2972,-5.1921,-5.1303,-5.0788,-4.9968,-4.9066,-4.8508,-4.8657,-4.8791,-4.9358,-5.1658,-5.3601,-5.4615,-5.6116,-5.7302,-5.7914,-5.8033,-5.8281,-5.8681,-5.8915,-5.9332,-6.003,-6.0304,-6.0674,-6.1196,-6.1342,-6.147,-6.168,-6.1719,-6.164,-6.1523,-6.1575,-6.1571,-6.1523,-6.1484,-6.1511,-6.1524,-6.1383,-6.1205,-6.1142,-6.1512,-6.182,-6.1935,-6.2627,-6.3474,-6.4243,-6.4705,-6.5341,-6.6109,-6.6329,-6.6329,-6.6203,-6.6128,-6.632,-6.6859,-6.8001,-6.9038,-6.9848,-7.097,-7.1593,-7.1706,-7.1573,-7.155,-7.1626,-7.1388,-7.1126,-7.086,-7.0081,-6.9929,-7.0115,-7.0696,-7.1261,-7.2331,-7.3611,-7.4783,-7.5255,-7.5679,-7.6129,-7.6156,-7.6139,-7.5923,-7.5475,-7.4648,-7.4056,-7.3713,-7.3172,-7.2463,-7.1502,-7.0159,-6.8781,-6.741,-6.7305,-6.6896,-6.6812,-6.6812,-6.742,-6.8146,-6.9021,-6.9953,-7.0966,-7.1794,-7.2226,-5.3518,-5.3518,-5.3518,-5.318,-5.2606,-5.26,-5.2557,-5.2557,-5.2557,-5.287,-5.3416,-5.3518,-5.3518,-5.3348,-5.2416,-5.1921,-5.1762,-5.0835,-5.0066,-4.9595,-4.954,-4.9233,-4.9456,-5.1141,-5.2741,-5.4313,-5.59,-5.7231,-5.8186,-5.8473,-5.8739,-5.9004,-5.916,-5.9574,-6.0076,-6.037,-6.07,-6.1212,-6.1387,-6.1495,-6.1677,-6.1719,-6.1601,-6.1509,-6.1601,-6.1543,-6.1448,-6.1422,-6.142,-6.145,-6.1582,-6.164,-6.162,-6.2204,-6.2589,-6.2627,-6.3397,-6.4089,-6.4551,-6.4974,-6.5474,-6.5972,-6.6167,-6.6144,-6.6189,-6.632,-6.6782,-6.7231,-6.8462,-6.9533,-7.0277,-7.117,-7.1637,-7.17,-7.1602,-7.1523,-7.1594,-7.1346,-7.1028,-7.0648,-7.0384,-7.023,-7.0297,-7.1238,-7.2034,-7.2897,-7.4143,-7.4789,-7.5163,-7.5561,-7.5775,-7.5727,-7.5475,-7.5132,-7.4857,-7.4148,-7.3729,-7.3335,-7.2275,-7.1573,-7.062,-6.9246,-6.8154,-6.7249,-6.6928,-6.6812,-6.6812,-6.7029,-6.7662,-6.8378,-6.9168,-7.0092,-7.1095,-7.1323,-7.1732,-5.3518,-5.3518,-5.3518,-5.3518,-5.3484,-5.3518,-5.3348,-5.3416,-5.3416,-5.3416,-5.3518,-5.3518,-5.3518,-5.3416,-5.2803,-5.2246,-5.2246,-5.1843,-5.122,-5.095,-5.065,-5.0256,-5.016,-5.0876,-5.2399,-5.4252,-5.574,-5.7288,-5.8418,-5.9079,-5.9409,-5.9515,-5.9855,-6.0085,-6.0332,-6.0725,-6.1074,-6.1263,-6.1434,-6.1569,-6.1664,-6.1648,-6.1601,-6.1504,-6.1466,-6.1408,-6.1331,-6.1352,-6.1458,-6.142,-6.1973,-6.2228,-6.2397,-6.3051,-6.3397,-6.3589,-6.4205,-6.4743,-6.4859,-6.5474,-6.5897,-6.6038,-6.5961,-6.6013,-6.6282,-6.6744,-6.7308,-6.7885,-6.9232,-7.0127,-7.0718,-7.1329,-7.1611,-7.1645,-7.1506,-7.1371,-7.1416,-7.1279,-7.0946,-7.053,-7.095,-7.1295,-7.1895,-7.2482,-7.3242,-7.365,-7.4597,-7.4903,-7.5017,-7.5092,-7.5167,-7.5094,-7.4705,-7.4287,-7.4018,-7.3677,-7.3401,-7.3066,-7.1648,-7.0734,-7.0092,-6.903,-6.7946,-6.7215,-6.6962,-6.6812,-6.6812,-6.7243,-6.7742,-6.8378,-6.8947,-7.0229,-7.1386,-7.0901,-7.0966,-5.3518,-5.3518,-5.3518,-5.3518,-5.3518,-5.3518,-5.3518,-5.3518,-5.3518,-5.3518,-5.3518,-5.3518,-5.3551,-5.3551,-5.3844,-5.3969,-5.3977,-5.4059,-5.4159,-5.3197,-5.1785,-5.2127,-5.2539,-5.2741,-5.3175,-5.4615,-5.6428,-5.781,-5.8628,-5.9253,-5.9585,-5.995,-6.0081,-6.0272,-6.0647,-6.0825,-6.1079,-6.1297,-6.1427,-6.1559,-6.1637,-6.1621,-6.1659,-6.1612,-6.1535,-6.1318,-6.1272,-6.1726,-6.2012,-6.2012,-6.2243,-6.2704,-6.3166,-6.3897,-6.4282,-6.4474,-6.5089,-6.5551,-6.5628,-6.5743,-6.5897,-6.5936,-6.6013,-6.6167,-6.6859,-6.7192,-6.8039,-6.8988,-6.9923,-7.064,-7.128,-7.1579,-7.1688,-7.1591,-7.1145,-7.0948,-7.1152,-7.0942,-7.0647,-7.0667,-7.048,-7.0555,-7.1685,-7.2595,-7.3452,-7.4393,-7.4775,-7.5051,-7.4943,-7.4672,-7.4551,-7.4426,-7.3989,-7.3639,-7.3492,-7.3187,-7.2906,-7.2595,-7.134,-7.0022,-6.9458,-6.8828,-6.7901,-6.7291,-6.6862,-6.6812,-6.6812,-6.6896,-6.7325,-6.8024,-6.8648,-6.9601,-7.0229,-7.0022,-6.9953,-5.4567,-5.4466,-5.4127,-5.4025,-5.3991,-5.3619,-5.3518,-5.3518,-5.3518,-5.3717,-5.3946,-5.3977,-5.4235,-5.4544,-5.4939,-5.5084,-5.5164,-5.5471,-5.5383,-5.4712,-5.3873,-5.4074,-5.472,-5.4968,-5.5145,-5.5699,-5.712,-5.8248,-5.9028,-5.9658,-6.0208,-6.0425,-6.0416,-6.0527,-6.0781,-6.0973,-6.1041,-6.1167,-6.1314,-6.1444,-6.1483,-6.187,-6.2274,-6.2467,-6.2459,-6.2305,-6.2367,-6.2714,-6.3075,-6.3243,-6.3397,-6.3589,-6.3974,-6.4705,-6.5166,-6.532,-6.5551,-6.5897,-6.5897,-6.5897,-6.5897,-6.5936,-6.6205,-6.6705,-6.7385,-6.7962,-6.8989,-6.999,-7.0651,-7.1204,-7.1743,-7.1662,-7.1686,-7.1871,-7.1287,-7.1169,-7.1553,-7.1066,-7.0523,-7.0871,-7.1162,-7.147,-7.2132,-7.2703,-7.3382,-7.4216,-7.4292,-7.4513,-7.4468,-7.4255,-7.3943,-7.3747,-7.329,-7.2997,-7.2943,-7.2669,-7.2328,-7.1938,-7.125,-6.9918,-6.8986,-6.8474,-6.7924,-6.7365,-6.6812,-6.6812,-6.6812,-6.6896,-6.7078,-6.7866,-6.8496,-6.8873,-6.9095,-6.9168,-6.9168,-5.5713,-5.5678,-5.5056,-5.472,-5.4661,-5.4151,-5.3946,-5.3881,-5.3849,-5.4328,-5.4668,-5.4757,-5.5024,-5.561,-5.5836,-5.5893,-5.6004,-5.5928,-5.5913,-5.6062,-5.5786,-5.5821,-5.6187,-5.6544,-5.684,-5.718,-5.7899,-5.8687,-5.9383,-6.0207,-6.0507,-6.0719,-6.0781,-6.0896,-6.1012,-6.1127,-6.1417,-6.1694,-6.1879,-6.195,-6.1966,-6.2455,-6.3013,-6.3361,-6.3488,-6.3415,-6.345,-6.3792,-6.4147,-6.4671,-6.4932,-6.496,-6.5089,-6.5397,-6.5897,-6.5859,-6.5859,-6.6013,-6.6205,-6.6167,-6.6205,-6.6244,-6.6898,-6.75,-6.8078,-6.9027,-6.9977,-7.0643,-7.1236,-7.1692,-7.191,-7.1682,-7.1901,-7.2238,-7.1816,-7.1814,-7.2167,-7.1517,-7.1111,-7.1152,-7.1218,-7.1324,-7.1974,-7.2559,-7.3287,-7.383,-7.383,-7.3822,-7.3682,-7.3565,-7.3164,-7.3045,-7.2687,-7.2705,-7.2686,-7.2537,-7.2226,-7.1448,-7.0865,-6.9778,-6.8572,-6.797,-6.7414,-6.7131,-6.6812,-6.6812,-6.6812,-6.6812,-6.7243,-6.7866,-6.799,-6.8024,-6.8223,-6.8454,-6.837,-5.566,-5.5706,-5.5558,-5.5508,-5.5507,-5.5355,-5.5227,-5.532,-5.5203,-5.5379,-5.5495,-5.5552,-5.561,-5.5893,-5.6474,-5.7015,-5.7216,-5.6978,-5.6978,-5.7266,-5.6978,-5.6876,-5.7364,-5.7606,-5.7821,-5.7923,-5.8466,-5.9027,-5.9379,-5.9939,-6.0681,-6.0781,-6.0935,-6.1204,-6.1796,-6.2041,-6.2358,-6.2712,-6.2969,-6.3068,-6.3124,-6.3295,-6.3608,-6.3939,-6.4019,-6.4016,-6.4093,-6.4522,-6.4943,-6.5079,-6.5715,-6.601,-6.5933,-6.5933,-6.5909,-6.5936,-6.5974,-6.6244,-6.6667,-6.6898,-6.7282,-6.7821,-6.827,-6.8732,-6.9374,-7.0003,-7.0709,-7.126,-7.1661,-7.1903,-7.1784,-7.1705,-7.194,-7.2187,-7.2154,-7.1974,-7.2654,-7.241,-7.1883,-7.1938,-7.1414,-7.0945,-7.1541,-7.1818,-7.1818,-7.2041,-7.1985,-7.2041,-7.2059,-7.2034,-7.1829,-7.1961,-7.2153,-7.2343,-7.2553,-7.2401,-7.2071,-7.1031,-7.0297,-6.9386,-6.8301,-6.7454,-6.6946,-6.6896,-6.6812,-6.6812,-6.6812,-6.6812,-6.6946,-6.7291,-6.7243,-6.7161,-6.7407,-6.7799,-6.7933,-5.6891,-5.687,-5.6489,-5.6309,-5.6263,-5.5872,-5.5669,-5.5653,-5.5724,-5.5948,-5.6259,-5.6313,-5.658,-5.6927,-5.7266,-5.7726,-5.7774,-5.7679,-5.7679,-5.7821,-5.7679,-5.7631,-5.8042,-5.8231,-5.8665,-5.9064,-5.951,-5.9553,-5.9534,-6.0671,-6.118,-6.1535,-6.1843,-6.2305,-6.2627,-6.2809,-6.304,-6.3474,-6.3551,-6.3589,-6.3666,-6.3935,-6.4424,-6.4947,-6.5139,-6.5241,-6.5347,-6.5658,-6.5932,-6.5906,-6.6242,-6.6389,-6.6379,-6.6284,-6.6144,-6.6088,-6.632,-6.6667,-6.7167,-6.7513,-6.8155,-6.8501,-6.9078,-6.9643,-7.0208,-7.0761,-7.1296,-7.1689,-7.1825,-7.2013,-7.2365,-7.2152,-7.2621,-7.3388,-7.3111,-7.3151,-7.3606,-7.3175,-7.2869,-7.2532,-7.1688,-7.115,-7.1076,-7.106,-7.044,-7.0243,-7.0243,-7.0375,-7.0606,-7.0879,-7.1159,-7.1794,-7.2189,-7.2285,-7.238,-7.2071,-7.1732,-7.0734,-6.9743,-6.8798,-6.7945,-6.7161,-6.6896,-6.6812,-6.6812,-6.6812,-6.6812,-6.6812,-6.6812,-6.6812,-6.6896,-6.698,-6.6998,-6.7117,-6.7489,-5.7997,-5.796,-5.74,-5.7134,-5.7024,-5.6456,-5.6187,-5.6134,-5.6223,-5.658,-5.7065,-5.7116,-5.7449,-5.7821,-5.7914,-5.7997,-5.7997,-5.7997,-5.7997,-5.7997,-5.795,-5.8033,-5.8317,-5.8751,-5.9384,-6.017,-6.0827,-6.0732,-6.0605,-6.142,-6.2094,-6.2435,-6.3022,-6.3421,-6.3488,-6.3578,-6.3603,-6.3795,-6.382,-6.382,-6.4051,-6.4677,-6.5466,-6.6296,-6.657,-6.6543,-6.6474,-6.664,-6.664,-6.6546,-6.6577,-6.6627,-6.6542,-6.662,-6.6639,-6.6584,-6.6923,-6.7244,-6.7898,-6.8385,-6.904,-6.9501,-7.0105,-7.0478,-7.0767,-7.1253,-7.1729,-7.1861,-7.2043,-7.2158,-7.2646,-7.2783,-7.3437,-7.4196,-7.4221,-7.399,-7.4174,-7.3921,-7.3205,-7.2613,-7.1805,-7.1151,-7.0858,-6.9985,-6.9389,-6.9318,-6.9353,-6.988,-7.0154,-7.0822,-7.1286,-7.2011,-7.2438,-7.2438,-7.2226,-7.1671,-7.1095,-7.0196,-6.9241,-6.8223,-6.7582,-6.6896,-6.6812,-6.6812,-6.6812,-6.6812,-6.6812,-6.6812,-6.6812,-6.6812,-6.6812,-6.6846,-6.6914,-6.732,-6.7827,-5.7997,-5.7997,-5.7923,-5.7886,-5.7813,-5.7657,-5.7684,-5.7653,-5.7642,-5.7774,-5.7877,-5.7867,-5.796,-5.8006,-5.8042,-5.8042,-5.7997,-5.7997,-5.7997,-5.7997,-5.8107,-5.8474,-5.9007,-5.9621,-6.0323,-6.116,-6.1974,-6.2299,-6.2323,-6.2566,-6.2786,-6.3143,-6.3449,-6.3693,-6.4411,-6.4449,-6.4834,-6.5397,-6.5513,-6.5474,-6.5513,-6.5884,-6.6165,-6.6436,-6.6658,-6.6836,-6.6836,-6.6875,-6.6836,-6.683,-6.6817,-6.6837,-6.6925,-6.745,-6.7653,-6.7618,-6.7667,-6.7975,-6.9155,-6.9655,-7.0103,-7.0659,-7.128,-7.148,-7.1481,-7.1481,-7.1693,-7.1583,-7.208,-7.2538,-7.2827,-7.3245,-7.3937,-7.429,-7.4451,-7.4257,-7.4323,-7.3989,-7.3341,-7.2869,-7.2043,-7.1023,-7.0297,-6.9278,-6.842,-6.8343,-6.8572,-6.9241,-6.9953,-7.0865,-7.1412,-7.2226,-7.2496,-7.2532,-7.2226,-7.1671,-7.0966,-6.9989,-6.8873,-6.799,-6.7501,-6.7112,-6.6812,-6.6812,-6.6812,-6.6812,-6.6812,-6.6812,-6.6812,-6.6812,-6.6812,-6.6812,-6.6812,-6.7421,-6.8199,-5.7997,-5.7997,-5.7997,-5.7997,-5.7997,-5.7997,-5.8186,-5.8332,-5.8375,-5.8549,-5.8756,-5.8796,-5.8673,-5.8461,-5.8375,-5.8238,-5.8051,-5.7997,-5.7997,-5.818,-5.8437,-5.8877,-5.9348,-6.0209,-6.1144,-6.2184,-6.2985,-6.3847,-6.4011,-6.3953,-6.3871,-6.4078,-6.4487,-6.4949,-6.5218,-6.5295,-6.5551,-6.5782,-6.5859,-6.5936,-6.6051,-6.623,-6.6429,-6.6535,-6.6759,-6.6875,-6.6875,-6.6914,-6.6914,-6.6875,-6.683,-6.7063,-6.7461,-6.7883,-6.8188,-6.9401,-6.928,-6.9477,-6.9963,-7.0555,-7.107,-7.1451,-7.1737,-7.1792,-7.1714,-7.1645,-7.1583,-7.1523,-7.2164,-7.2698,-7.3212,-7.3822,-7.4591,-7.4935,-7.469,-7.4549,-7.433,-7.3738,-7.329,-7.2778,-7.2333,-7.1438,-7.0601,-6.9953,-6.9278,-6.9168,-6.9386,-6.9813,-7.0601,-7.1511,-7.1975,-7.2343,-7.2496,-7.2532,-7.2167,-7.1732,-7.1286,-7.0332,-6.8947,-6.8146,-6.7787,-6.7373,-6.7029,-6.6812,-6.6812,-6.6812,-6.6812,-6.6812,-6.6812,-6.6812,-6.6812,-6.6812,-6.6914,-6.803,-6.8876,-5.8033,-5.8153,-5.8127,-5.8252,-5.8332,-5.8344,-5.8557,-5.8835,-5.8908,-5.914,-5.9361,-5.9427,-5.9208,-5.8915,-5.8756,-5.8492,-5.8189,-5.8033,-5.818,-5.8464,-5.8914,-5.9428,-6.013,-6.1018,-6.2133,-6.3426,-6.3883,-6.4632,-6.5217,-6.5257,-6.491,-6.496,-6.5359,-6.5743,-6.582,-6.582,-6.5859,-6.5859,-6.5936,-6.6013,-6.609,-6.6346,-6.6461,-6.6631,-6.6769,-6.6869,-6.6823,-6.6836,-6.6797,-6.707,-6.7022,-6.7378,-6.8143,-6.8674,-6.918,-7.0156,-7.0434,-7.0667,-7.0849,-7.1174,-7.1603,-7.1714,-7.1747,-7.1726,-7.1579,-7.1503,-7.158,-7.1698,-7.2442,-7.3147,-7.386,-7.4591,-7.508,-7.5277,-7.5086,-7.4927,-7.4559,-7.3663,-7.3066,-7.2743,-7.2386,-7.2212,-7.1448,-7.0901,-7.0468,-7.0127,-7.0264,-7.0535,-7.1159,-7.2011,-7.2226,-7.2496,-7.2496,-7.2496,-7.2285,-7.1854,-7.1448,-7.0734,-6.9351,-6.842,-6.8146,-6.7501,-6.6896,-6.6812,-6.6896,-6.6812,-6.6812,-6.6812,-6.6812,-6.6812,-6.6812,-6.6812,-6.7184,-6.8335,-6.9538,-5.8263,-5.8629,-5.8653,-5.891,-5.9282,-5.929,-5.9299,-5.9395,-5.9478,-5.9591,-5.9726,-5.9592,-5.9672,-5.9436,-5.9064,-5.8781,-5.8603,-5.8226,-5.851,-5.8904,-5.9307,-6.0126,-6.0977,-6.1953,-6.2919,-6.4105,-6.46,-6.5159,-6.5743,-6.5743,-6.5705,-6.5859,-6.582,-6.5859,-6.5897,-6.5897,-6.5897,-6.5897,-6.5974,-6.6088,-6.6203,-6.6396,-6.6588,-6.6629,-6.6769,-6.6798,-6.6621,-6.6625,-6.6921,-6.7386,-6.737,-6.7967,-6.8816,-6.9499,-7.0117,-7.0664,-7.1328,-7.1484,-7.1503,-7.1435,-7.155,-7.1645,-7.159,-7.1489,-7.1325,-7.1245,-7.1475,-7.2052,-7.2745,-7.363,-7.4476,-7.5293,-7.5588,-7.5226,-7.4904,-7.4406,-7.3964,-7.3218,-7.2705,-7.2573,-7.2459,-7.2285,-7.2226,-7.1671,-7.1386,-7.1095,-7.1031,-7.1286,-7.1671,-7.238,-7.238,-7.2496,-7.2496,-7.2496,-7.2343,-7.2071,-7.1635,-7.1059,-7.0056,-6.9206,-6.8537,-6.7866,-6.7454,-6.7078,-6.7161,-6.7029,-6.6812,-6.6812,-6.6812,-6.6812,-6.6846,-6.6981,-6.7692,-6.8829,-6.9984,-5.9127,-5.9583,-5.9558,-5.9498,-5.9397,-5.9381,-5.9592,-5.9923,-6.0009,-6.0285,-6.0608,-6.0538,-6.0305,-6.0009,-5.9798,-5.9287,-5.8829,-5.9146,-5.9218,-5.9575,-6.0188,-6.1006,-6.1871,-6.2658,-6.3593,-6.4369,-6.4904,-6.5388,-6.5833,-6.5897,-6.5897,-6.5897,-6.5897,-6.5897,-6.5897,-6.5897,-6.5897,-6.5936,-6.6024,-6.6159,-6.6303,-6.6483,-6.665,-6.6789,-6.667,-6.6704,-6.6613,-6.6525,-6.6954,-6.7415,-6.7557,-6.8428,-6.9438,-7.0135,-7.0619,-7.1089,-7.1719,-7.1836,-7.1727,-7.1668,-7.1605,-7.1533,-7.1424,-7.1255,-7.1156,-7.1129,-7.1475,-7.2129,-7.3053,-7.3937,-7.4668,-7.5408,-7.5749,-7.516,-7.4599,-7.3959,-7.3399,-7.2778,-7.2573,-7.2553,-7.2496,-7.2438,-7.2438,-7.2438,-7.2226,-7.2011,-7.2011,-7.2071,-7.2321,-7.2553,-7.261,-7.2686,-7.2686,-7.2742,-7.265,-7.2328,-7.1975,-7.135,-7.0764,-7.0056,-6.9423,-6.9168,-6.8758,-6.818,-6.7535,-6.7441,-6.7229,-6.6896,-6.6812,-6.6812,-6.7015,-6.7252,-6.8252,-6.9509,-7.0754,-5.9658,-6.0095,-6.0132,-6.0027,-5.984,-5.9874,-6.0099,-6.0446,-6.0612,-6.0837,-6.1284,-6.1147,-6.0915,-6.0631,-6.0288,-6.0217,-5.9778,-5.9838,-6.0034,-6.0488,-6.1105,-6.1704,-6.2277,-6.2992,-6.3817,-6.4407,-6.4904,-6.5388,-6.5897,-6.5897,-6.5897,-6.5897,-6.5897,-6.5897,-6.5897,-6.5897,-6.5936,-6.5974,-6.6101,-6.626,-6.6418,-6.6527,-6.6691,-6.6834,-6.6712,-6.6825,-6.69,-6.7013,-6.7436,-6.8026,-6.845,-6.9001,-6.986,-7.0593,-7.0989,-7.1441,-7.1841,-7.1899,-7.1765,-7.158,-7.1503,-7.1272,-7.1195,-7.1106,-7.1091,-7.1206,-7.1822,-7.2629,-7.3399,-7.4168,-7.4909,-7.5511,-7.5413,-7.4752,-7.4237,-7.365,-7.3181,-7.265,-7.2593,-7.2496,-7.2532,-7.2532,-7.2532,-7.2532,-7.2438,-7.2285,-7.2285,-7.2285,-7.238,-7.2573,-7.2705,-7.2779,-7.2906,-7.296,-7.3013,-7.2797,-7.2595,-7.2312,-7.1672,-7.1059,-7.0499,-7.0264,-6.9778,-6.8947,-6.8412,-6.8049,-6.7809,-6.7755,-6.7251,-6.6846,-6.7303,-6.7896,-6.9438,-7.0746,-7.1758,-5.9729,-6.0093,-6.0277,-6.0512,-6.0704,-6.0896,-6.0926,-6.0971,-6.1112,-6.1296,-6.1414,-6.1361,-6.1445,-6.1291,-6.1089,-6.1042,-6.1134,-6.0676,-6.0864,-6.1828,-6.205,-6.2303,-6.2788,-6.355,-6.4138,-6.4444,-6.4971,-6.5513,-6.5897,-6.5897,-6.5897,-6.5936,-6.5974,-6.5936,-6.5897,-6.5897,-6.5974,-6.6101,-6.629,-6.6411,-6.647,-6.6497,-6.6576,-6.6946,-6.6718,-6.6822,-6.748,-6.757,-6.812,-6.904,-6.9283,-6.9821,-7.0591,-7.1052,-7.133,-7.1511,-7.1838,-7.1849,-7.171,-7.1387,-7.1168,-7.1014,-7.1014,-7.1052,-7.1129,-7.1629,-7.2476,-7.3322,-7.4091,-7.4938,-7.5357,-7.5441,-7.498,-7.4475,-7.3942,-7.3399,-7.2897,-7.2595,-7.2573,-7.2532,-7.2532,-7.2532,-7.2532,-7.2532,-7.2532,-7.2496,-7.2496,-7.2532,-7.2532,-7.2573,-7.2669,-7.2934,-7.3141,-7.3442,-7.3492,-7.3391,-7.3238,-7.2939,-7.2502,-7.1842,-7.1395,-7.1081,-7.0475,-6.9778,-6.9516,-6.9366,-6.8946,-6.8583,-6.8432,-6.8383,-6.8234,-6.8913,-7.054,-7.2116,-7.3167,-6.0759,-6.0901,-6.094,-6.1012,-6.1127,-6.1189,-6.1266,-6.1311,-6.1355,-6.1582,-6.205,-6.2134,-6.2522,-6.2732,-6.2803,-6.2613,-6.2429,-6.2976,-6.3213,-6.2844,-6.3135,-6.3593,-6.3978,-6.4217,-6.4626,-6.4971,-6.5359,-6.5663,-6.5897,-6.5897,-6.5974,-6.6013,-6.6123,-6.6128,-6.609,-6.6126,-6.6229,-6.6174,-6.6262,-6.6354,-6.6277,-6.6128,-6.6352,-6.7148,-6.6747,-6.7107,-6.8124,-6.8154,-6.8829,-6.9687,-6.9885,-7.0247,-7.0848,-7.1245,-7.1394,-7.1496,-7.1694,-7.1716,-7.1568,-7.1324,-7.1118,-7.1014,-7.1014,-7.1245,-7.1706,-7.1975,-7.2899,-7.3899,-7.4514,-7.5245,-7.5648,-7.5408,-7.4905,-7.4392,-7.3846,-7.3193,-7.2775,-7.2632,-7.2532,-7.2532,-7.2532,-7.2438,-7.238,-7.2496,-7.2532,-7.2532,-7.2532,-7.2532,-7.2532,-7.2593,-7.265,-7.3093,-7.3409,-7.3775,-7.3934,-7.3934,-7.3763,-7.354,-7.3034,-7.2307,-7.2,-7.1992,-7.1882,-7.1596,-7.1126,-7.0669,-7.0184,-6.9865,-7.0071,-7.0093,-7.0325,-7.0684,-7.2092,-7.3602,-7.4798,-6.1304,-6.1304,-6.1343,-6.1381,-6.1381,-6.1381,-6.1464,-6.1495,-6.1445,-6.1781,-6.2421,-6.2621,-6.309,-6.3721,-6.3979,-6.42,-6.3728,-6.3885,-6.4334,-6.3854,-6.4104,-6.4293,-6.4521,-6.4909,-6.5014,-6.5307,-6.5608,-6.5897,-6.5897,-6.5936,-6.6007,-6.6105,-6.6279,-6.61,-6.6009,-6.5911,-6.6143,-6.6132,-6.6309,-6.6135,-6.6012,-6.5941,-6.5917,-6.6251,-6.6438,-6.6845,-6.7917,-6.8679,-6.9225,-6.9862,-7.0293,-7.0567,-7.1004,-7.1274,-7.1424,-7.1564,-7.1601,-7.1642,-7.1474,-7.175,-7.1607,-7.1437,-7.136,-7.1783,-7.2514,-7.3014,-7.363,-7.4399,-7.487,-7.5203,-7.5501,-7.5127,-7.4594,-7.4011,-7.349,-7.2918,-7.2687,-7.2516,-7.229,-7.2254,-7.2204,-7.2167,-7.2226,-7.2438,-7.2532,-7.2532,-7.2532,-7.2532,-7.2553,-7.265,-7.2865,-7.3419,-7.3921,-7.4396,-7.4588,-7.4468,-7.4363,-7.4169,-7.3662,-7.3112,-7.3392,-7.3508,-7.3421,-7.3207,-7.2259,-7.1607,-7.122,-7.1134,-7.1698,-7.2415,-7.3093,-7.3499,-7.4082,-7.4937,-7.5954,-6.1334,-6.135,-6.1427,-6.1533,-6.1511,-6.1481,-6.1525,-6.1484,-6.1477,-6.1918,-6.2667,-6.2898,-6.3544,-6.4193,-6.4294,-6.4687,-6.5056,-6.4643,-6.4833,-6.4994,-6.4965,-6.4893,-6.4893,-6.5117,-6.5337,-6.555,-6.5733,-6.5897,-6.5936,-6.609,-6.6161,-6.6162,-6.6229,-6.5971,-6.5658,-6.5399,-6.5661,-6.5799,-6.5771,-6.5626,-6.5498,-6.543,-6.5271,-6.5435,-6.5721,-6.6476,-6.7535,-6.8536,-6.9484,-7.0228,-7.0855,-7.117,-7.1412,-7.1609,-7.1621,-7.1659,-7.1642,-7.1598,-7.1571,-7.1891,-7.2178,-7.2025,-7.214,-7.2698,-7.336,-7.3976,-7.4341,-7.4743,-7.5142,-7.514,-7.5127,-7.4591,-7.4034,-7.3504,-7.296,-7.265,-7.2537,-7.2277,-7.1972,-7.1811,-7.1656,-7.1646,-7.1854,-7.2071,-7.2532,-7.2532,-7.2532,-7.2532,-7.261,-7.2816,-7.3192,-7.3926,-7.4486,-7.5124,-7.5201,-7.498,-7.5091,-7.4978,-7.4731,-7.4383,-7.4682,-7.4889,-7.4845,-7.4322,-7.3144,-7.2543,-7.2388,-7.2879,-7.3575,-7.4358,-7.494,-7.5593,-7.5814,-7.5858,-7.671,-6.1602,-6.1602,-6.1641,-6.1641,-6.1641,-6.164,-6.1577,-6.1483,-6.1509,-6.2192,-6.3472,-6.3647,-6.4415,-6.5797,-6.6015,-6.6133,-6.6055,-6.6037,-6.5988,-6.5925,-6.5728,-6.5791,-6.5838,-6.5756,-6.587,-6.5858,-6.5897,-6.5936,-6.609,-6.6307,-6.6357,-6.6353,-6.6119,-6.5759,-6.5254,-6.4709,-6.4898,-6.5042,-6.5032,-6.4911,-6.4728,-6.4492,-6.4571,-6.5004,-6.5558,-6.647,-6.7686,-6.9078,-7.0011,-7.0406,-7.0941,-7.121,-7.1072,-7.1121,-7.1168,-7.1345,-7.1447,-7.1493,-7.141,-7.1628,-7.1994,-7.2376,-7.2617,-7.3357,-7.4044,-7.4474,-7.4727,-7.4944,-7.5038,-7.4941,-7.4434,-7.3822,-7.3429,-7.2992,-7.2556,-7.2401,-7.2226,-7.1939,-7.1621,-7.1512,-7.1359,-7.1485,-7.1635,-7.213,-7.2532,-7.2532,-7.2532,-7.2532,-7.2686,-7.2943,-7.338,-7.4169,-7.4787,-7.534,-7.5518,-7.5379,-7.5625,-7.5778,-7.5538,-7.5469,-7.5745,-7.5921,-7.6011,-7.5532,-7.4446,-7.394,-7.3769,-7.4279,-7.5013,-7.5747,-7.6336,-7.7035,-7.7525,-7.743,-7.7567,-6.1719,-6.1719,-6.1719,-6.1719,-6.1719,-6.1719,-6.164,-6.1601,-6.1562,-6.2485,-6.3936,-6.4115,-6.5125,-6.6478,-6.6719,-6.6758,-6.664,-6.6484,-6.646,-6.6396,-6.6399,-6.636,-6.635,-6.6242,-6.6162,-6.6121,-6.6051,-6.5974,-6.6178,-6.6381,-6.6506,-6.6371,-6.6001,-6.5448,-6.4926,-6.4292,-6.4044,-6.4239,-6.4266,-6.4137,-6.4014,-6.4004,-6.4507,-6.4829,-6.5597,-6.6765,-6.781,-6.9265,-7.0009,-7.0414,-7.0913,-7.1042,-7.082,-7.0665,-7.0549,-7.0658,-7.0637,-7.0609,-7.0594,-7.133,-7.1788,-7.2317,-7.291,-7.3759,-7.4144,-7.4444,-7.4599,-7.4714,-7.4636,-7.443,-7.3738,-7.3052,-7.2775,-7.2465,-7.2255,-7.213,-7.1866,-7.1593,-7.1431,-7.1295,-7.1323,-7.1448,-7.1732,-7.2226,-7.2532,-7.2532,-7.2532,-7.2532,-7.2816,-7.3327,-7.3672,-7.4203,-7.4865,-7.5413,-7.5556,-7.5819,-7.6188,-7.6389,-7.6284,-7.6272,-7.6616,-7.6662,-7.6553,-7.6214,-7.5742,-7.5325,-7.4941,-7.5534,-7.6207,-7.6913,-7.7567,-7.8229,-7.8578,-7.8541,-7.879,-6.168,-6.168,-6.168,-6.168,-6.1719,-6.1719,-6.168,-6.1719,-6.168,-6.2695,-6.4062,-6.4297,-6.5234,-6.6601,-6.6875,-6.6914,-6.6836,-6.6719,-6.668,-6.6601,-6.6489,-6.6476,-6.646,-6.6281,-6.6196,-6.6189,-6.614,-6.5996,-6.6183,-6.6419,-6.6535,-6.6357,-6.5718,-6.5197,-6.4709,-6.4009,-6.3935,-6.4402,-6.438,-6.4339,-6.435,-6.4489,-6.4764,-6.4588,-6.5617,-6.6901,-6.759,-6.8563,-6.9663,-7.0293,-7.0776,-7.0938,-7.0598,-6.9929,-6.9778,-6.9548,-6.9393,-6.9223,-6.946,-7.0188,-7.0916,-7.1711,-7.2936,-7.31,-7.3116,-7.3759,-7.3954,-7.3596,-7.3447,-7.2778,-7.2039,-7.1787,-7.1563,-7.1612,-7.166,-7.1854,-7.2108,-7.162,-7.0979,-7.0872,-7.0901,-7.1095,-7.1854,-7.2285,-7.2496,-7.2532,-7.2532,-7.2532,-7.2761,-7.3341,-7.3793,-7.4241,-7.4901,-7.5508,-7.5944,-7.625,-7.672,-7.6922,-7.6857,-7.7156,-7.7498,-7.7308,-7.6909,-7.661,-7.64,-7.6327,-7.6199,-7.6778,-7.726,-7.7977,-7.8629,-7.9298,-7.9513,-7.9335,-7.9513,-6.1479,-6.1406,-6.1484,-6.1601,-6.168,-6.1719,-6.1719,-6.1719,-6.1719,-6.2695,-6.4062,-6.4414,-6.5234,-6.6719,-6.6875,-6.6875,-6.6836,-6.6797,-6.6836,-6.6758,-6.6601,-6.6531,-6.655,-6.6237,-6.6174,-6.6101,-6.6049,-6.6067,-6.6283,-6.6477,-6.6479,-6.6242,-6.5508,-6.4823,-6.4747,-6.4037,-6.403,-6.4943,-6.5138,-6.5347,-6.5622,-6.5561,-6.5622,-6.6084,-6.7095,-6.764,-6.8361,-6.9121,-6.9813,-7.0276,-7.0699,-7.0658,-7.0277,-6.9102,-6.8518,-6.8352,-6.7654,-6.7399,-6.7467,-6.8184,-6.8877,-6.9377,-7.0132,-7.0536,-7.121,-7.2442,-7.2857,-7.2425,-7.1908,-7.1174,-7.0613,-7.0488,-7.0494,-7.0764,-7.1031,-7.1635,-7.2226,-7.1431,-7.0579,-7.0507,-7.04,-7.1103,-7.1866,-7.2336,-7.2438,-7.2532,-7.2532,-7.2553,-7.2686,-7.3082,-7.3642,-7.4119,-7.4956,-7.5547,-7.6044,-7.6458,-7.6808,-7.7296,-7.7312,-7.7791,-7.8213,-7.7657,-7.7082,-7.7144,-7.7009,-7.7035,-7.7223,-7.7718,-7.8341,-7.8914,-7.938,-7.9888,-7.9723,-7.9513,-7.9806,-6.1465,-6.1403,-6.1484,-6.1562,-6.164,-6.168,-6.1719,-6.1719,-6.1719,-6.2656,-6.414,-6.4414,-6.5212,-6.6615,-6.6758,-6.6795,-6.6797,-6.6758,-6.6719,-6.6719,-6.6687,-6.6553,-6.6423,-6.6269,-6.6153,-6.6101,-6.6032,-6.6114,-6.6336,-6.6398,-6.6338,-6.5904,-6.5044,-6.4633,-6.4704,-6.415,-6.4476,-6.5966,-6.6138,-6.676,-6.7317,-6.7369,-6.7122,-6.7657,-6.823,-6.8758,-6.9321,-7.0043,-7.0261,-7.0286,-7.0407,-6.9482,-6.8814,-6.7797,-6.6774,-6.5975,-6.5273,-6.492,-6.4934,-6.5495,-6.6458,-6.7059,-6.8188,-6.8928,-6.9951,-7.0977,-7.0879,-7.0512,-7.0742,-7.019,-6.946,-6.9171,-6.9708,-7.0022,-7.0264,-7.0601,-7.0579,-7.0026,-6.9776,-7.0024,-7.0478,-7.1549,-7.2471,-7.3589,-7.3597,-7.3156,-7.3046,-7.2679,-7.2777,-7.2798,-7.3266,-7.391,-7.4695,-7.5318,-7.5728,-7.6189,-7.6638,-7.713,-7.77,-7.7685,-7.7681,-7.7496,-7.7304,-7.7353,-7.754,-7.783,-7.8155,-7.8616,-7.901,-7.9556,-7.9969,-8.039,-8.0046,-7.9513,-7.9425,-6.1434,-6.1422,-6.1431,-6.1445,-6.1523,-6.1601,-6.168,-6.1719,-6.1719,-6.2656,-6.414,-6.4297,-6.5234,-6.6183,-6.6627,-6.6669,-6.668,-6.6758,-6.6719,-6.6672,-6.6614,-6.6525,-6.6384,-6.6192,-6.6073,-6.603,-6.599,-6.6028,-6.6159,-6.6049,-6.5674,-6.5255,-6.4858,-6.4437,-6.4275,-6.4379,-6.4953,-6.652,-6.7468,-6.8639,-6.9089,-6.9353,-6.8975,-6.914,-6.9604,-7.0308,-7.0649,-7.0796,-7.0942,-7.0442,-6.9885,-6.868,-6.7324,-6.6263,-6.4791,-6.3798,-6.2845,-6.2214,-6.2053,-6.2843,-6.3883,-6.4957,-6.647,-6.7704,-6.8513,-6.8951,-6.8877,-6.8986,-6.9314,-6.9168,-6.8454,-6.8454,-6.9056,-6.9637,-6.9778,-6.9919,-6.9484,-6.9088,-6.9262,-6.9637,-7.0695,-7.1776,-7.3088,-7.4286,-7.4427,-7.3986,-7.3582,-7.3193,-7.292,-7.2757,-7.2886,-7.3504,-7.4223,-7.4789,-7.5434,-7.6165,-7.676,-7.7067,-7.7456,-7.7308,-7.7215,-7.7255,-7.7389,-7.7636,-7.7886,-7.8265,-7.8784,-7.9335,-7.9765,-8.0125,-8.0163,-8.0277,-7.9765,-7.929,-7.8754,-6.1229,-6.1097,-6.1079,-6.1238,-6.1484,-6.1523,-6.1601,-6.168,-6.1719,-6.2656,-6.3945,-6.4414,-6.5219,-6.6823,-6.6863,-6.6825,-6.6755,-6.6775,-6.6832,-6.6839,-6.6574,-6.6483,-6.6346,-6.6192,-6.5989,-6.5878,-6.5742,-6.5649,-6.5312,-6.5045,-6.4845,-6.4544,-6.403,-6.3996,-6.4481,-6.4858,-6.5804,-6.7271,-6.8648,-6.9798,-7.0513,-7.0722,-7.0722,-7.0807,-7.1106,-7.128,-7.132,-7.118,-7.1165,-7.0628,-6.9323,-6.7957,-6.6253,-6.4498,-6.293,-6.1616,-6.0605,-6.0128,-6.0096,-6.0753,-6.1741,-6.2835,-6.4314,-6.5699,-6.6486,-6.7261,-6.733,-6.7708,-6.7866,-6.7866,-6.7582,-6.8223,-6.8798,-6.9743,-7.0264,-7.0127,-6.992,-6.9305,-6.8978,-6.974,-7.077,-7.2047,-7.3556,-7.4448,-7.4974,-7.4568,-7.4143,-7.3811,-7.3639,-7.3178,-7.2794,-7.3424,-7.416,-7.4755,-7.5645,-7.6419,-7.7041,-7.7237,-7.7356,-7.7289,-7.7279,-7.7292,-7.7413,-7.7809,-7.8251,-7.8716,-7.9258,-7.9888,-8.0277,-8.0537,-8.0201,-8.0008,-7.9513,-7.8962,-7.8447]}]]